     2.11           OBSERVATION DATA    G (GPS)             RINEX VERSION / TYPE
teqc 2007Jun25 20080610 12:44:53UTC                         PGM / RUN BY / DATE
MSXP|IAx86-PII|bcc32 5.0|MSWin95->XP|486/DX+                COMMENT
2.10 OBSERVATION DATA G (GPS)                               COMMENT
JPS2RIN 1.40 RUN BY 03-JUN-08 14:17                         COMMENT
build Feb 6 2004 (c) Javad Navigation Systems               COMMENT
Use -p (profile) switch to override ANTENNA TYPE and DELTA  COMMENT
and other fields                                            COMMENT
sfj10510a.jps                                               COMMENT
SE TPS 00000000                                             COMMENT
sfj10510a_AOSG                                              MARKER NAME
OBSERVER AGENCY                                             OBSERVER / AGENCY
8PBGA1WAOSG TPS MAXOR 2.6.0 Apr,18,2007                     REC # / TYPE / VERS
sfj10510a -Unknown-                                         ANT # / TYPE
  1582503.3854 -1933626.3633  5848739.8665                  APPROX POSITION XYZ
        0.0000        0.0000        0.0000                  ANTENNA: DELTA H/E/N
     1     1                                                WAVELENGTH FACT L1/2
     7    C1    P1    P2    L1    L2    D1    D2            # / TYPES OF OBSERV
    30.0000                                                 INTERVAL
Forced Modulo Decimation to 30 seconds                      COMMENT
teqc windowed: start @ 2008 May 10 00:00:00.000             COMMENT
  2008     5    10     0     0    0.0000000     GPS         TIME OF FIRST OBS
                                                            END OF HEADER
 08  5 10  0  0  0.0000000  0 10G 2G 6G13G16G23G24G25G29G30G31
  24070031.880    24070031.7324   24070032.6424  126488880.795 5  98562785.91341
     -2118.709       -1650.923
  23518585.459    23518585.4174   23518589.1444  123591029.047 6  96304714.00842
      3406.976        2654.801
  22712511.415    22712510.9174   22712514.0004  119355064.619 6  93003970.13743
      2632.959        2051.655
  20968088.888    20968088.0584   20968090.4324  110188080.448 8  85860864.06046
      1921.042        1496.912
  21233511.421    21233511.0604   21233511.9674  111582891.045 8  86947717.18946
       197.067         153.570
  23776892.373    23776891.3694   23776896.2284  124948407.523 5  97362423.89542
      2243.689        1748.329
  24579723.124    24579722.4594   24579726.9994  129167321.723 5 100649882.03141
      3361.203        2619.128
  21834240.137    21834239.9514   21834242.6274  114739725.224 7  89407606.78945
     -1305.714       -1017.487
  24535090.383    24535091.3044   24535093.5874  128932760.737 5 100467102.35441
     -4036.292       -3145.148
  21727723.866    21727723.9234   21727725.9264  114179975.218 8  88971427.59546
     -2649.427       -2064.507
 08  5 10  0  0 30.0000000  0 10G 2G 6G13G16G23G24G25G29G30G31
  24082176.734    24082175.6404   24082177.9504  126552697.860 5  98612513.45741
     -2135.831       -1664.272
  23499156.520    23499155.8924   23499159.2364  123488925.297 6  96225152.63643
      3399.996        2649.374
  22697524.717    22697523.8474   22697526.0314  119276307.510 6  92942600.98443
      2617.433        2039.560
  20957165.837    20957165.2594   20957167.8084  110130681.018 8  85816137.25146
      1905.596        1484.894
  21232449.858    21232449.2044   21232450.0994  111577311.474 8  86943369.51946
       174.948         136.322
  23764124.910    23764123.3594   23764127.8124  124881314.312 6  97310143.64142
      2229.286        1737.092
  24560547.086    24560547.4024   24560551.0774  129066550.178 5 100571358.81941
      3356.897        2615.762
  21841747.329    21841747.2644   21841749.9174  114779176.697 7  89438348.29646
     -1324.535       -1032.120
  24558141.816    24558141.0914   24558144.1674  129053894.311 5 100561491.59841
     -4039.226       -3147.421
  21742884.040    21742883.9914   21742885.8714  114259643.586 8  89033507.14046
     -2661.753       -2074.089
 08  5 10  0  1  0.0000000  0 10G 2G 6G13G16G23G24G25G29G30G31
  24094417.418    24094417.2104   24094418.2064  126617024.083 5  98662637.75642
     -2152.519       -1677.267
  23479767.113    23479766.9664   23479769.6444  123387032.030 6  96145755.27043
      3392.987        2643.875
  22682626.382    22682626.1614   22682627.7234  119198015.765 6  92881594.42343
      2602.006        2027.531
  20946331.157    20946330.5734   20946333.1024  110073745.251 8  85771771.83646
      1890.206        1472.899
  21231513.695    21231513.1894   21231513.7254  111572392.452 8  86939536.63646
       153.010         119.217
  23751439.187    23751438.6774   23751443.1194  124814650.949 5  97258198.28442
      2214.984        1725.952
  24541394.298    24541393.6034   24541398.2284  128965902.739 5 100492932.33841
      3352.883        2612.610
  21849363.100    21849363.0814   21849365.8104  114819200.451 8  89469536.28146
     -1343.565       -1046.973
  24581209.919    24581211.1424   24581213.4514  129175116.559 5 100655950.36241
     -4042.044       -3149.658
  21758114.279    21758114.5634   21758115.9594  114339678.434 7  89095871.72446
     -2673.881       -2083.544
 08  5 10  0  1 30.0000000  0 10G 2G 6G13G16G23G24G25G29G30G31
  24106754.467    24106754.2424   24106755.5474  126681855.613 5  98713155.79842
     -2169.462       -1690.503
  23460417.919    23460416.8784   23460421.2594  123285350.227 6  96066522.75143
      3385.810        2638.299
  22667816.627    22667816.1184   22667818.5484  119120190.532 6  92820951.41843
      2586.336        2015.323
  20935584.796    20935584.1744   20935586.7354  110017272.274 8  85727766.81746
      1874.711        1460.814
  21230702.893    21230702.3384   21230703.0724  111568132.982 8  86936217.64046
       131.014         102.094
  23738834.494    23738834.7114   23738839.0604  124748417.504 5  97206587.52142
      2200.634        1714.776
  24522265.410    24522264.9414   24522268.5984  128865379.534 5 100414602.67441
      3348.700        2609.398
  21857087.196    21857087.0814   21857089.5214  114859791.209 7  89501165.55746
     -1362.409       -1061.606
  24604294.516    24604294.9164   24604297.9404  129296424.248 5 100750476.14941
     -4045.032       -3151.985
  21773414.261    21773414.1104   21773415.7984  114420078.410 8  89158521.07346
     -2686.046       -2093.024
 08  5 10  0  2  0.0000000  0 10G 2G 6G13G16G23G24G25G29G30G31
  24119188.369    24119187.9264   24119187.1134  126747193.331 5  98764068.29442
     -2186.285       -1703.596
  23441108.940    23441108.6054   23441111.6124  123183885.175 6  95987459.11843
      3378.545        2632.646
  22653096.806    22653096.6074   22653098.9264  119042837.601 6  92760676.42343
      2570.554        2003.031
  20924927.274    20924926.4664   20924929.1454  109961267.439 8  85684126.93946
      1859.027        1448.573
  21230018.623    21230018.0874   21230018.8354  111564536.082 8  86933414.65846
       108.830          84.802
  23726314.009    23726312.7974   23726319.0704  124682621.205 6  97155317.70842
      2185.864        1703.283
  24503161.505    24503160.7494   24503164.6074  128764985.544 6 100336373.61842
      3344.352        2605.984
  21864919.697    21864919.7074   21864921.9044  114900951.792 7  89533238.88245
     -1381.418       -1076.421
  24627393.186    24627393.0294   24627397.4874  129417816.801 4 100845067.91641
     -4047.654       -3153.971
  21788783.059    21788783.0824   21788784.8204  114500845.433 7  89221456.91346
     -2698.291       -2102.579
 08  5 10  0  2 30.0000000  0 10G 2G 6G13G16G23G24G25G29G30G31
  24131717.876    24131716.8064   24131718.0184  126813035.658 6  98815373.98441
     -2203.130       -1716.717
  23421842.336    23421842.4014   23421846.5324  123082640.238 6  95908567.07843
      3371.147        2626.866
  22638466.698    22638466.9604   22638469.6404  118965960.736 6  92700772.38743
      2554.605        1990.601
  20914358.984    20914358.3774   20914360.7674  109905732.080 8  85640852.91246
      1843.354        1436.370
  21229460.427    21229460.0004   21229460.8034  111561604.141 8  86931130.16046
        86.706          67.561
  23713877.931    23713877.7414   23713880.6334  124617265.087 6  97104391.05242
      2171.179        1691.833
  24484082.499    24484081.8724   24484086.0864  128664723.299 5 100258247.22742
      3339.860        2602.504
  21872860.655    21872860.4814   21872862.7694  114942681.322 7  89565755.54346
     -1400.459       -1091.265
  24650509.788    24650510.8414   24650513.7164  129539291.926 5 100939723.05841
     -4050.533       -3156.221
  21804221.721    21804221.5854   21804223.3634  114581977.305 7  89284676.73946
     -2710.438       -2112.027
 08  5 10  0  3  0.0000000  0 10G 2G 6G13G16G23G24G25G29G30G31
  24144342.196    24144340.3494   24144342.2374  126879379.036 5  98867070.13341
     -2219.802       -1729.751
  23402619.114    23402618.5444   23402621.8624  122981616.002 6  95829846.95243
      3363.733        2621.096
  22623928.509    22623928.0324   22623930.9924  118889560.482 6  92641239.75543
      2538.682        1978.192
  20903879.997    20903879.4084   20903881.9124  109850665.994 8  85597944.52646
      1827.703        1424.181
  21229028.808    21229028.1734   21229028.9774  111559334.716 8  86929361.76946
        64.584          50.324
  23701524.765    23701523.4134   23701527.8724  124552349.855 6  97053808.01042
      2156.468        1680.369
  24465028.064    24465026.7574   24465030.9954  128564593.058 5 100180223.69441
      3335.450        2599.063
  21880909.054    21880908.8334   21880911.0824  114984977.701 8  89598714.20346
     -1419.299       -1105.958
  24673640.875    24673642.2054   24673646.3144  129660849.636 5 101034443.68841
     -4053.377       -3158.531
  21819729.508    21819729.2964   21819731.0954  114663471.036 8  89348178.34246
     -2722.505       -2121.433
 08  5 10  0  3 30.0000000  0 10G 2G 6G13G16G23G24G25G29G30G31
  24157061.773    24157061.3234   24157062.7654  126946222.195 5  98919155.75241
     -2236.266       -1742.495
  23383437.050    23383436.5914   23383440.1984  122880816.003 6  95751301.47943
      3356.379        2615.365
  22609481.195    22609481.2814   22609484.0264  118813641.059 7  92582081.77543
      2522.781        1965.801
  20893490.947    20893490.5234   20893492.7794  109796071.558 8  85555403.50246
      1812.062        1411.996
  21228723.564    21228722.8064   21228723.3554  111557730.178 8  86928111.63146
        42.490          33.083
  23689256.051    23689255.5014   23689259.1474  124487878.740 5  97003570.83142
      2141.710        1668.861
  24445997.827    24445997.4654   24446001.5324  128464597.994 5 100102305.53341
      3330.979        2595.577
  21889065.158    21889065.0364   21889067.2864  115027839.421 7  89632113.03145
     -1438.027       -1120.541
  24696788.018    24696786.4494   24696791.2104  129782487.626 5 101129226.78541
     -4055.755       -3160.347
  21835306.063    21835306.0754   21835307.5184  114745326.447 7  89411961.70046
     -2734.388       -2130.685
 08  5 10  0  4  0.0000000  0 10G 2G 6G13G16G23G24G25G29G30G31
  24169875.782    24169875.3204   24169876.6614  127013561.128 5  98971627.53541
     -2252.909       -1755.475
  23364299.144    23364297.9974   23364301.8364  122780240.949 6  95672931.22743
      3348.697        2609.361
  22595126.875    22595126.5014   22595128.5014  118738203.441 7  92523299.22643
      2506.490        1953.112
  20883191.680    20883191.0664   20883193.2274  109741948.447 8  85513229.72646
      1796.182        1399.618
  21228544.096    21228543.5084   21228544.2834  111556788.735 8  86927378.10446
        20.235          15.743
  23677072.750    23677072.0784   23677076.3794  124423851.818 6  96953679.31442
      2126.813        1657.299
  24426996.026    24426996.3344   24427000.5084  128364737.852 5 100024492.46641
      3326.336        2591.940
  21897328.437    21897328.2584   21897330.5554  115071263.654 7  89665950.13246
     -1456.891       -1135.239
  24719949.818    24719951.0364   24719952.1704  129904201.375 5 101224068.94041
     -4058.458       -3162.453
  21850950.690    21850950.6634   21850952.8324  114827540.620 8  89476024.64046
     -2746.500       -2140.135
 08  5 10  0  4 30.0000000  0 10G 2G 6G13G16G23G24G25G29G30G31
  24182784.459    24182784.4984   24182784.1234  127081395.688 5  99024485.67641
     -2269.388       -1768.356
  23345203.303    23345202.2564   23345206.4584  122679895.252 6  95594739.74243
      3341.085        2603.430
  22580864.029    22580863.9764   22580866.2214  118663251.792 7  92464895.34643
      2490.313        1940.506
  20872982.621    20872981.9544   20872984.0614  109688299.696 8  85471425.67946
      1780.423        1387.340
  21228491.387    21228490.6624   21228491.4524  111556513.028 8  86927163.57946
        -1.834          -1.421
  23664973.048    23664973.3344   23664978.8994  124360274.703 5  96904138.46942
      2111.765        1645.529
  24408020.381    24408020.0414   24408022.5304  128265016.408 6  99946787.47242
      3321.795        2588.414
  21905698.955    21905698.7774   21905701.0004  115115250.721 7  89700225.77245
     -1475.567       -1149.792
  24743124.723    24743124.4994   24743129.4484  130025991.022 5 101318970.06041
     -4060.830       -3164.311
  21866663.799    21866663.9804   21866665.7404  114910113.742 7  89540367.44846
     -2758.358       -2149.380
 08  5 10  0  5  0.0000000  0 10G 2G 6G13G16G23G24G25G29G30G31
  24195786.136    24195786.8974   24195787.6444  127149723.048 5  99077727.78041
     -2285.826       -1781.142
  23326151.709    23326151.6404   23326155.4624  122579780.727 6  95516728.18543
      3333.234        2597.317
  22566693.886    22566693.7044   22566696.1394  118588788.601 7  92406872.06443
      2473.920        1927.720
  20862863.810    20862863.2424   20862865.4574  109635126.273 8  85429991.93646
      1764.497        1374.929
  21228565.455    21228565.0484   21228565.6944  111556901.389 8  86927465.80546
       -24.114         -18.796
  23652961.288    23652961.1474   23652966.2614  124297150.427 5  96854951.16842
      2096.586        1633.672
  24389069.936    24389069.4874   24389073.8934  128165435.516 5  99869192.05842
      3317.010        2584.669
  21914176.349    21914176.2184   21914178.4624  115159799.143 7  89734938.83246
     -1494.309       -1164.403
  24766315.868    24766315.2404   24766317.6404  130147854.977 5 101413929.10041
     -4063.346       -3166.270
  21882445.027    21882444.9664   21882446.8334  114993043.813 7  89604988.49846
     -2770.305       -2158.695
 08  5 10  0  5 30.0000000  0 10G 2G 6G13G16G23G24G25G29G30G31
  24208882.235    24208882.4284   24208883.1784  127218541.715 5  99131352.70141
     -2302.167       -1793.900
  23307145.845    23307145.2034   23307149.0864  122479901.225 6  95438899.87843
      3325.327        2591.172
  22552617.419    22552617.2574   22552620.2694  118514817.661 6  92349232.40343
      2457.404        1914.858
  20852836.266    20852835.6194   20852837.6834  109582430.466 8  85388930.32246
      1748.456        1362.430
  21228766.086    21228765.7464   21228766.3404  111557957.950 8  86928289.43746
       -46.388         -36.138
  23641035.669    23641034.6244   23641039.4494  124234478.814 5  96806115.38742
      2081.358        1621.868
  24370147.103    24370146.8594   24370151.0624  128065997.634 5  99791708.12742
      3312.060        2580.813
  21922760.481    21922760.1364   21922762.3404  115204908.306 7  89770088.85145
     -1513.026       -1178.984
  24789520.822    24789519.4014   24789522.7694  130269791.921 5 101508945.11741
     -4065.918       -3168.221
  21898293.809    21898293.8714   21898295.3284  115076330.283 8  89669887.16346
     -2782.244       -2167.986
 08  5 10  0  6  0.0000000  0 10G 2G 6G13G16G23G24G25G29G30G31
  24222071.193    24222070.8754   24222071.9494  127287848.352 5  99185357.81642
     -2318.371       -1806.554
  23288184.694    23288184.0714   23288187.1334  122380257.737 6  95361255.49143
      3317.487        2585.049
  22538635.256    22538635.2204   22538637.9774  118441340.221 7  92291977.29344
      2440.949        1902.042
  20842899.454    20842898.7454   20842900.8664  109530212.081 8  85348240.74446
      1732.628        1350.095
  21229093.834    21229093.3744   21229093.9024  111559680.255 8  86929631.89246
       -68.521         -53.412
  23629197.793    23629196.6734   23629202.4414  124172264.781 5  96757636.67942
      2066.186        1609.966
  24351252.014    24351252.4134   24351255.8484  127966703.328 5  99714336.03741
      3307.414        2577.190
  21931450.129    21931450.0554   21931452.4984  115250575.238 7  89805673.50145
     -1531.496       -1193.380
  24812734.071    24812738.8584   24812740.0104  130391797.098 3 101604013.39141
     -4068.087       -3169.922
  21914210.120    21914210.1814   21914211.5404  115159970.309 8  89735061.22446
     -2793.905       -2177.072
 08  5 10  0  6 30.0000000  0 10G 2G 6G13G16G23G24G25G29G30G31
  24235351.631    24235351.1964   24235353.2224  127357640.212 5  99239741.07242
     -2334.380       -1819.008
  23269267.915    23269267.6774   23269271.4394  122280852.476 6  95283796.75943
      3309.544        2578.879
  22524747.375    22524747.2394   22524749.4324  118368358.735 6  92235108.64143
      2424.465        1889.186
  20833053.494    20833052.8554   20833055.0064  109478471.978 8  85307923.79847
      1716.726        1337.708
  21229547.964    21229547.3744   21229548.0194  111562067.780 8  86931492.61146
       -90.595         -70.594
  23617444.450    23617444.6924   23617449.8784  124110510.851 5  96709517.47842
      2050.857        1598.038
  24332385.695    24332384.7934   24332387.9814  127867554.317 5  99637077.09241
      3302.583        2573.456
  21940245.802    21940245.8444   21940248.3454  115296798.150 7  89841691.35845
     -1549.960       -1207.762
  24835966.286    24835966.5414   24835970.1864  130513871.342 5 101699136.17341
     -4070.171       -3171.587
  21930193.238    21930192.9614   21930194.7054  115243961.808 7  89800509.18146
     -2805.492       -2186.098
 08  5 10  0  7  0.0000000  0 10G 2G 6G13G16G23G24G25G29G30G31
  24248725.747    24248725.0374   24248726.5764  127427915.776 5  99294501.21342
     -2350.698       -1831.725
  23250398.683    23250398.0684   23250401.5384  122181688.850 6  95206526.45243
      3301.372        2572.504
  22510954.219    22510954.5384   22510956.1574  118295876.712 6  92178629.13543
      2407.733        1876.156
  20823299.173    20823298.6204   20823300.6224  109427212.748 8  85267981.62346
      1700.579        1325.125
  21230128.782    21230128.2964   21230129.0284  111565121.244 8  86933872.03046
      -112.948         -88.012
  23605782.584    23605781.6694   23605785.6394  124049217.448 6  96661756.65742
      2035.358        1585.996
  24313546.204    24313545.6684   24313548.4204  127768553.387 5  99559933.54941
      3297.457        2569.438
  21949147.801    21949147.7204   21949150.1154  115343576.643 7  89878142.13545
     -1568.588       -1222.278
  24859207.802    24859208.6714   24859212.5794  130636012.874 5 101794311.34141
     -4072.550       -3173.417
  21946242.764    21946242.7774   21946244.3144  115328304.190 7  89866230.52346
     -2817.305       -2195.305
 08  5 10  0  7 30.0000000  0 10G 2G 6G13G16G23G24G25G29G30G31
  24262189.571    24262189.3974   24262191.9864  127498672.977 5  99349636.72042
     -2366.473       -1844.007
  23231574.382    23231573.9434   23231578.0204  122082768.983 6  95129446.11743
      3293.383        2566.263
  22497256.761    22497256.9844   22497258.8454  118223896.574 6  92122540.73343
      2391.005        1863.126
  20813636.347    20813635.8494   20813637.8994  109376435.032 8  85228414.61947
      1684.630        1312.695
  21230836.647    21230836.0594   21230836.7724  111568841.339 8  86936770.82546
      -135.016        -105.214
  23594206.862    23594206.3424   23594210.4384  123988388.021 6  96614357.21143
      2019.958        1573.989
  24294735.215    24294735.5194   24294736.6924  127669702.375 5  99482906.91741
      3292.571        2565.615
  21958154.854    21958154.7734   21958157.0614  115390908.809 7  89915024.34945
     -1586.866       -1236.519
  24882464.297    24882463.5074   24882468.3584  130758219.510 5 101889537.14541
     -4074.529       -3174.958
  21962359.189    21962359.0194   21962360.8844  115412995.823 7  89932223.96646
     -2828.752       -2204.222
 08  5 10  0  8  0.0000000  0 10G 2G 6G13G16G23G24G25G29G30G31
  24275745.829    24275745.2194   24275746.4774  127569907.585 5  99405144.14342
     -2382.402       -1856.453
  23212796.325    23212796.0364   23212799.8434  121984093.502 6  95052556.17343
      3285.073        2559.809
  22483655.115    22483654.7294   22483657.7494  118152419.069 6  92066844.04543
      2374.158        1849.997
  20804065.347    20804064.7014   20804066.8344  109326138.585 8  85189222.57447
      1668.507        1300.138
  21231671.304    21231670.7254   21231671.4074  111573226.687 8  86940187.98046
      -157.278        -122.557
  23582719.528    23582718.9484   23582722.8114  123928023.699 6  96567320.30443
      2004.332        1561.810
  24275952.925    24275952.0094   24275956.6774  127571001.309 5  99405997.09441
      3287.566        2561.726
  21967266.632    21967266.3764   21967268.9424  115438791.250 7  89952335.32945
     -1605.278       -1250.865
  24905731.520    24905731.6684   24905734.8154  130880487.945 5 101984811.15641
     -4076.585       -3176.575
  21978541.204    21978541.2144   21978542.9264  115498033.575 7  89998487.14046
     -2840.377       -2213.284
 08  5 10  0  8 30.0000000  0 10G 2G 6G13G16G23G24G25G29G30G31
  24289391.799    24289391.1594   24289392.8824  127641618.204 5  99461022.52841
     -2398.278       -1868.793
  23194066.091    23194066.0664   23194069.6914  121885666.120 6  94975859.48843
      3276.779        2553.330
  22470150.209    22470149.5284   22470152.0484  118081448.360 6  92011542.20643
      2357.243        1836.814
  20794586.554    20794585.6254   20794587.8764  109276325.850 8  85150407.40046
      1652.365        1287.556
  21232632.379    21232631.8834   21232633.0074  111578278.495 8  86944124.46046
      -179.459        -139.840
  23571321.520    23571321.0964   23571324.3874  123868127.689 6  96520648.29043
      1988.713        1549.642
  24257200.260    24257199.2104   24257203.1104  127472453.011 5  99329206.24642
      3282.367        2557.680
  21976482.655    21976482.7044   21976485.1374  115487223.954 7  89990075.09945
     -1623.575       -1265.127
  24929008.820    24929010.6924   24929013.4404  131002817.163 5 102080132.84541
     -4078.457       -3178.017
  21994789.185    21994788.9784   21994790.7534  115583417.218 7  90065019.87145
     -2851.856       -2222.224
 08  5 10  0  9  0.0000000  0 10G 2G 6G13G16G23G24G25G29G30G31
  24303127.978    24303126.5994   24303129.2994  127713803.243 5  99517270.61441
     -2414.024       -1881.054
  23175384.202    23175383.9784   23175387.5704  121787489.805 6  94899358.42743
      3268.408        2546.820
  22456741.684    22456741.5824   22456743.6864  118010987.349 6  91956637.52143
      2340.227        1823.562
  20785199.631    20785199.0574   20785201.3624  109226998.600 8  85111970.53247
      1636.173        1274.941
  21233720.916    21233720.3694   21233721.0684  111583997.683 8  86948580.97946
      -201.726        -157.185
  23560013.471    23560012.4974   23560015.2744  123808702.577 6  96474343.09342
      1972.986        1537.405
  24238475.495    24238474.9714   24238479.7984  127374060.220 5  99252536.56342
      3277.200        2553.662
  21985804.216    21985803.9394   21985806.0764  115536205.968 7  90028242.91345
     -1641.842       -1279.360
  24952299.439    24952299.3904   24952303.5094  131125206.083 5 102175500.71841
     -4080.519       -3179.615
  22011102.597    22011102.5254   22011104.1754  115669145.242 7  90131820.93545
     -2863.288       -2231.133
 08  5 10  0  9 30.0000000  0 10G 2G 6G13G16G23G24G25G29G30G31
  24316954.434    24316953.4374   24316953.9684  127786460.522 5  99573886.70441
     -2429.786       -1893.337
  23156750.863    23156749.9434   23156753.9014  121689567.020 6  94823054.96443
      3259.827        2540.129
  22443430.656    22443430.5204   22443432.9424  117941038.882 6  91902132.24143
      2323.092        1810.214
  20775905.535    20775904.9834   20775907.1594  109178158.089 8  85073912.98946
      1619.877        1262.242
  21234936.343    21234935.6714   21234936.1344  111590383.870 8  86953557.20646
      -223.997        -174.545
  23548794.773    23548794.1794   23548798.0214  123749751.162 6  96428407.04042
      1957.076        1524.984
  24219782.591    24219782.2414   24219786.2704  127275824.904 5  99175989.64541
      3271.820        2549.475
  21995229.075    21995228.9694   21995231.2224  115585735.286 7  90066837.19845
     -1660.123       -1293.603
  24975600.339    24975600.6164   24975603.3744  131247653.020 4 102270913.84641
     -4082.435       -3181.107
  22027481.742    22027481.5664   22027483.0184  115755216.655 7  90198889.54145
     -2874.771       -2240.080
 08  5 10  0 10  0.0000000  0 10G 2G 6G13G16G23G24G25G29G30G31
  24330870.035    24330868.1114   24330869.8514  127859588.458 4  99630869.47941
     -2445.496       -1905.600
  23138165.037    23138164.8884   23138168.2284  121591901.373 6  94746951.93543
      3251.112        2533.332
  22430218.173    22430218.1234   22430220.2584  117871606.445 6  91848029.06743
      2305.723        1796.660
  20766704.549    20766704.0664   20766706.1624  109129806.563 8  85036236.53047
      1603.481        1249.468
  21236278.676    21236278.1384   21236278.6694  111597438.468 8  86959054.30246
      -246.355        -191.964
  23537666.205    23537665.9254   23537670.4264  123691277.023 5  96382842.96342
      1941.074        1512.520
  24201119.960    24201120.2654   24201122.6634  127177750.061 6  99099567.72142
      3266.343        2545.209
  22004758.338    22004757.9884   22004760.2654  115635811.356 7  90105857.52345
     -1678.373       -1307.826
  24998911.355    24998910.1194   24998916.3264  131370157.393 4 102366371.90441
     -4084.439       -3182.620
  22043925.901    22043925.7134   22043927.4724  115841630.531 7  90266224.99046
     -2886.223       -2249.004
 08  5 10  0 10 30.0000000  0 10G 2G 6G13G16G23G24G25G29G30G31
  24344875.114    24344874.7274   24344875.6744  127933184.914 5  99688217.34041
     -2460.925       -1917.574
  23119629.256    23119629.0194   23119632.4624  121494495.522 6  94671051.35243
      3242.604        2526.698
  22417104.416    22417104.5014   22417106.3924  117802692.951 6  91794330.26743
      2288.489        1783.233
  20757596.981    20757596.3174   20757598.6964  109081945.185 8  84998941.84847
      1587.255        1236.825
  21237748.309    21237747.8004   21237748.3934  111605161.901 8  86965072.54746
      -268.529        -209.242
  23526630.148    23526629.9004   23526634.8634  123633282.718 5  96337652.76742
      1925.142        1500.109
  24182487.851    24182487.3364   24182490.5034  127079837.837 5  99023272.43442
      3261.086        2541.137
  22014391.207    22014390.8644   22014393.3194  115686433.148 7  90145303.07545
     -1696.405       -1321.874
  25022235.954    25022234.2134   25022237.9344  131492717.165 5 102461872.99841
     -4086.154       -3184.017
  22060434.797    22060434.6874   22060436.1104  115928384.953 7  90333825.54845
     -2897.405       -2257.700
 08  5 10  0 11  0.0000000  0  9G 2G 6G13G16G23G24G25G29G31
  24358968.583    24358967.4064   24358968.8534  128007247.340 5  99745928.27541
     -2476.473       -1929.738
  23101143.440    23101142.8744   23101146.6854  121397351.796 6  94595355.10543
      3233.792        2519.834
  22404089.591    22404089.4234   22404091.8674  117734300.706 6  91741037.60743
      2271.034        1769.630
  20748582.773    20748582.2544   20748584.3254  109034575.145 8  84962030.07847
      1570.800        1224.000
  21239345.197    21239344.6384   21239345.3924  111613553.902 8  86971611.80046
      -290.854        -226.641
  23515685.887    23515685.5054   23515690.5174  123575770.331 5  96292838.09242
      1909.062        1487.579
  24163885.297    24163886.0664   24163889.1404  126982089.764 5  98947105.14142
      3255.570        2536.812
  22024127.600    22024127.4374   22024129.7694  115737598.573 7  90185172.25345
     -1714.533       -1335.998
  22077008.457    22077008.3604   22077010.2404  116015478.827 7  90401690.62545
     -2908.789       -2266.595
 08  5 10  0 11 30.0000000  0  9G 2G 6G13G16G23G24G25G29G31
  24373149.745    24373149.0504   24373151.0564  128081772.258 5  99803999.60941
     -2491.828       -1941.689
  23082707.727    23082707.0804   23082710.4514  121300471.256 6  94519863.86643
      3224.932        2512.930
  22391173.876    22391174.1714   22391177.0134  117666431.222 6  91688152.30743
      2253.542        1756.016
  20739662.107    20739661.4364   20739663.6214  108987696.277 8  84925501.05847
      1554.425        1211.236
  21241069.408    21241068.8254   21241069.2384  111622613.223 8  86978671.02146
      -313.095        -243.973
  23504833.770    23504833.7414   23504837.3834  123518740.720 6  96248399.50742
      1892.903        1474.996
  24145316.950    24145316.4744   24145320.1054  126884506.926 5  98871066.65242
      3250.009        2532.470
  22033966.893    22033966.8314   22033969.1644  115789304.683 7  90225462.72945
     -1732.534       -1350.027
  22093645.975    22093645.8744   22093647.5144  116102910.222 7  90469819.05045
     -2919.988       -2275.322
 08  5 10  0 12  0.0000000  0  9G 2G 6G13G16G23G24G25G29G31
  24387419.619    24387419.0534   24387420.2134  128156757.675 5  99862429.78041
     -2507.227       -1953.690
  23064322.777    23064322.3164   23064325.7674  121203856.917 6  94444580.09243
      3215.951        2505.921
  22378359.097    22378359.1684   22378361.9584  117599087.390 6  91635676.61243
      2235.909        1742.268
  20730834.986    20730834.4494   20730836.7094  108941310.497 8  84889356.34647
      1537.905        1198.371
  21242920.286    21242919.7974   21242920.3094  111632340.504 8  86986250.71146
      -335.467        -261.402
  23494074.415    23494074.0354   23494078.2714  123462197.084 6  96204339.68743
      1876.582        1462.274
  24126779.236    24126778.2564   24126783.0624  126787091.629 5  98795158.68242
      3244.376        2528.092
  22043908.790    22043908.9744   22043911.1954  115841550.754 7  90266173.96245
     -1750.600       -1364.106
  22110347.817    22110347.5524   22110349.1614  116190677.300 7  90538208.97945
     -2931.213       -2284.061
 08  5 10  0 12 30.0000000  0  9G 2G 6G13G16G23G24G25G29G31
  24401775.692    24401775.4824   24401777.1944  128232202.247 5  99921217.71942
     -2522.373       -1965.456
  23045988.703    23045988.1084   23045992.0384  121107512.355 6  94369506.51043
      3207.047        2498.991
  22365644.384    22365644.7934   22365647.5734  117532272.994 6  91583613.48543
      2218.404        1728.635
  20722102.309    20722101.8214   20722103.9324  108895420.057 8  84853597.58247
      1521.501        1185.584
  21244898.618    21244898.2214   21244898.5764  111642736.863 8  86994351.76846
      -357.564        -278.619
  23483408.448    23483407.2354   23483411.4634  123406142.837 6  96160661.11043
      1860.391        1449.650
  24108274.681    24108274.0184   24108277.5164  126689846.958 5  98719383.67642
      3238.713        2523.664
  22053953.781    22053953.6384   22053955.9464  115894336.000 7  90307305.32845
     -1768.361       -1377.950
  22127112.524    22127112.7324   22127114.5144  116278779.659 7  90606860.11345
     -2942.226       -2292.641
 08  5 10  0 13  0.0000000  0  9G 2G 6G13G16G23G24G25G29G31
  24416219.494    24416218.7614   24416219.5894  128308100.843 5  99980359.44641
     -2537.469       -1977.248
  23027706.301    23027705.5924   23027709.2334  121011437.084 6  94294642.79843
      3198.012        2491.948
  22353031.515    22353031.2604   22353033.8204  117465987.919 7  91531962.79043
      2200.656        1714.804
  20713463.669    20713463.1774   20713465.3274  108850022.795 8  84818222.89547
      1505.020        1172.745
  21247004.003    21247003.3114   21247003.6694  111653799.258 8  87002971.80046
      -379.814        -295.958
  23472834.043    23472833.0254   23472837.7354  123350577.386 6  96117363.38643
      1844.060        1436.934
  24089802.334    24089801.6794   24089804.9934  126592772.089 6  98643740.92842
      3233.062        2519.263
  22064100.350    22064100.1924   22064102.3874  115947655.995 7  90348853.37845
     -1786.203       -1391.846
  22143940.949    22143940.8474   22143942.7614  116367212.720 7  90675768.99745
     -2953.237       -2301.225
 08  5 10  0 13 30.0000000  0  9G 2G 6G13G16G23G24G25G29G31
  24430748.740    24430748.8684   24430749.3284  128384451.484 5 100039853.46541
     -2552.621       -1989.054
  23009475.568    23009475.0464   23009478.2134  120915633.877 6  94219991.04044
      3188.796        2484.765
  22340519.366    22340519.3474   22340521.4244  117400234.969 6  91480726.73844
      2182.795        1700.881
  20704919.160    20704918.5584   20704920.7374  108805121.549 8  84783235.11047
      1488.386        1159.771
  21249236.244    21249235.3904   21249235.9234  111665528.123 8  87012111.16046
      -402.112        -313.333
  23462353.784    23462353.1644   23462357.5324  123295503.557 6  96074448.74443
      1827.520        1424.040
  24071361.636    24071361.4884   24071364.4574  126495869.458 6  98568232.38942
      3227.201        2514.704
  22074348.113    22074348.2334   22074350.2854  116001509.505 7  90390817.16345
     -1804.032       -1405.740
  22160831.995    22160831.9754   22160834.0634  116455975.492 7  90744934.65645
     -2964.311       -2309.850
 08  5 10  0 14  0.0000000  0  9G 2G 6G13G16G23G24G25G29G31
  24445362.557    24445362.5274   24445363.1744  128461251.507 5 100099697.64242
     -2567.474       -2000.631
  22991296.967    22991296.5144   22991299.6624  120820105.473 6  94145553.39343
      3179.704        2477.685
  22328109.182    22328108.5094   22328110.6814  117335016.535 7  91429907.15644
      2165.096        1687.089
  20696469.144    20696468.4954   20696470.6204  108760716.549 8  84748633.91347
      1471.966        1146.982
  21251594.475    21251594.0044   21251594.5784  111677923.279 8  87021769.69146
      -424.184        -330.533
  23451967.751    23451966.5224   23451971.2694  123240923.388 6  96031918.72343
      1811.179        1411.302
  24052954.729    24052954.5304   24052957.9084  126399140.811 5  98492859.44942
      3221.414        2510.183
  22084697.579    22084697.2784   22084699.3694  116055894.696 7  90433195.23345
     -1821.603       -1419.429
  22177785.540    22177785.4614   22177787.3034  116545066.463 7  90814356.17745
     -2975.046       -2318.217
 08  5 10  0 14 30.0000000  0  9G 2G 6G13G16G23G24G25G29G31
  24460062.093    24460061.9894   24460062.9474  128538496.885 6 100159888.86742
     -2582.356       -2012.236
  22973170.355    22973169.6984   22973174.1114  120724852.376 6  94071330.23843
      3170.402        2470.443
  22315799.772    22315799.7004   22315801.7944  117270333.689 6  91379504.94344
      2147.006        1672.996
  20688113.280    20688112.7444   20688114.9594  108716807.250 8  84714418.99447
      1455.309        1134.006
  21254079.884    21254079.1814   21254079.5354  111690983.143 8  87031946.22546
      -446.470        -347.892
  23441674.958    23441674.2334   23441678.5884  123186837.893 6  95989774.20243
      1794.545        1398.365
  24034580.081    24034580.7654   24034584.1374  126302586.438 5  98417622.31142
      3215.429        2505.550
  22095146.917    22095146.8474   22095149.1464  116110808.213 7  90475984.98645
     -1839.348       -1433.251
  22194800.837    22194800.7564   22194802.7984  116634482.164 7  90884030.73845
     -2986.018       -2326.758
 08  5 10  0 15  0.0000000  0  9G 2G 6G13G16G23G24G25G29G31
  24474845.307    24474845.4534   24474847.2594  128616186.999 5 100220426.56742
     -2597.066       -2023.678
  22955097.348    22955097.3094   22955100.5184  120629878.866 6  93997324.97343
      3161.082        2463.179
  22303594.035    22303593.9404   22303596.3704  117206190.697 7  91329523.41244
      2129.032        1658.985
  20679852.427    20679851.8234   20679854.0084  108673396.103 8  84680592.15447
      1438.682        1121.052
  21256691.872    21256691.1254   21256691.4284  111704708.944 8  87042641.54546
      -468.657        -365.180
  23431477.768    23431476.6474   23431480.9834  123133250.796 6  95948018.02642
      1777.856        1385.341
  24016242.094    24016241.2524   24016244.9304  126206210.415 6  98342524.12442
      3209.431        2500.861
  22105697.534    22105697.3454   22105699.5034  116166250.126 7  90519186.47745
     -1856.881       -1446.923
  22211878.324    22211878.2264   22211879.7244  116724222.512 7  90953958.00945
     -2996.792       -2335.162
 08  5 10  0 15 30.0000000  0  9G 2G 6G13G16G23G24G25G29G31
  24489713.784    24489713.5184   24489716.0734  128694319.029 5 100281308.63542
     -2611.613       -2035.043
  22937078.545    22937077.8864   22937081.5604  120535187.283 6  93923539.39144
      3151.714        2455.887
  22291490.997    22291490.8514   22291493.2564  117142589.749 7  91279964.27844
      2111.010        1644.945
  20671686.655    20671685.9664   20671688.1424  108630484.166 8  84647154.21847
      1422.106        1108.141
  21259430.429    21259429.8854   21259430.5224  111719100.570 8  87053855.72446
      -490.771        -382.415
  23421374.826    23421374.3704   23421379.2154  123080164.003 6  95906651.66342
      1761.200        1372.366
  23997936.389    23997935.7244   23997939.7854  126110014.355 6  98267566.19142
      3203.510        2496.229
  22116347.943    22116347.7694   22116349.7274  116222218.167 7  90562797.91745
     -1874.318       -1460.504
  22229016.437    22229016.6444   22229018.6204  116814285.992 7  91024137.16245
     -3007.441       -2343.458
 08  5 10  0 16  0.0000000  0  9G 2G 6G13G16G23G24G25G29G31
  24504665.823    24504666.3494   24504665.1944  128772888.710 5 100342531.80941
     -2626.282       -2046.453
  22919112.909    22919112.6714   22919116.0364  120440778.186 6  93849973.89744
      3142.143        2448.419
  22279491.501    22279491.4524   22279493.7044  117079531.443 7  91230827.97344
      2092.716        1630.682
  20663615.729    20663615.0634   20663617.2264  108588071.067 8  84614105.07247
      1405.311        1095.049
  21262295.332    21262294.8444   21262295.6784  111734155.932 8  87065587.23646
      -513.016        -399.758
  23411368.414    23411367.3954   23411371.4354  123027577.937 6  95865675.49642
      1744.297        1359.181
  23979664.954    23979664.4904   23979668.2644  126013998.003 6  98192748.33343
      3197.395        2491.467
  22127097.420    22127097.4834   22127099.7514  116278709.018 7  90606816.73945
     -1891.852       -1474.170
  22246215.899    22246216.1274   22246218.0734  116904669.537 7  91094565.80945
     -3018.239       -2351.876
 08  5 10  0 16 30.0000000  0  9G 2G 6G13G16G23G24G25G29G31
  24519699.275    24519698.7944   24519701.1984  128851895.369 5 100404095.32841
     -2640.775       -2057.722
  22901201.949    22901201.1174   22901204.7394  120346655.365 6  93776631.40044
      3132.584        2440.974
  22267595.557    22267595.5754   22267597.5534  117017019.947 7  91182117.75044
      2074.575        1616.555
  20655639.997    20655639.5074   20655641.6814  108546159.396 8  84581446.58447
      1388.643        1082.055
  21265286.574    21265286.0554   21265286.7404  111749876.900 8  87077837.57146
      -535.151        -416.999
  23401457.158    23401456.9764   23401461.0314  122975496.829 6  95825092.80542
      1727.551        1346.144
  23961428.302    23961427.7364   23961430.8954  125918165.629 6  98118073.82742
      3191.302        2486.724
  22137946.620    22137946.7534   22137948.9944  116335722.556 7  90651242.83945
     -1909.185       -1487.673
  22263475.990    22263476.1984   22263478.6014  116995373.514 7  91165244.43145
     -3028.804       -2360.115
 08  5 10  0 17  0.0000000  0 10G 2G 6G13G16G21G23G24G25G29G31
  24534816.107    24534814.8414   24534817.5074  128931333.875 5 100465995.45841
     -2655.102       -2068.928
  22883345.271    22883344.8844   22883348.7154  120252818.884 6  93703511.90544
      3123.120        2433.606
  22255804.276    22255804.3554   22255806.4114  116955055.443 7  91133833.72544
      2056.404        1602.394
  20647759.484    20647759.1034   20647761.3564  108504748.023 8  84549178.05747
      1372.091        1069.161
  25239003.246                                   132631859.562 4
      3169.721
  21268404.104    21268403.5764   21268404.0344  111766259.843 8  87090603.48046
      -557.085        -434.092
  23391643.618    23391642.3654   23391646.8544  122923920.339 6  95784903.30642
      1710.826        1333.109
  23943226.250    23943226.1614   23943228.9054  125822516.542 5  98043542.10442
      3185.331        2482.049
  22148895.241    22148894.7134   22148897.0584  116393254.716 7  90696073.07745
     -1926.315       -1501.024
  22280796.729    22280796.6594   22280798.5654  117086393.125 7  91236168.90745
     -3039.195       -2368.208
 08  5 10  0 17 30.0000000  0 10G 2G 6G13G16G21G23G24G25G29G31
  24550015.430    24550014.3894   24550016.3684  129011202.699 4 100528230.88441
     -2669.351       -2079.995
  22865544.294    22865543.9514   22865547.6024  120159272.568 6  93630618.53544
      3113.367        2426.005
  22244117.966    22244117.5144   22244119.8554  116893641.023 7  91085978.34744
      2037.952        1588.013
  20639974.896    20639974.2974   20639976.5554  108463838.586 8  84517300.59447
      1355.295        1056.073
  25220919.808                                   132536832.081 5
      3165.536
  21271648.091    21271647.5994   21271647.7984  111783305.988 8  87103886.22046
      -579.243        -451.359
  23381926.069    23381924.8764   23381928.3314  122872851.426 6  95745109.35043
      1693.808        1319.846
  23925060.819    23925060.7514   23925063.5924  125727053.637 6  97969155.50942
      3179.009        2477.152
  22159941.254    22159941.3674   22159943.6894  116451304.575 7  90741306.71245
     -1943.588       -1514.485
  22298176.941    22298176.8894   22298179.0464  117177728.025 7  91307339.08345
     -3049.715       -2376.403
 08  5 10  0 18  0.0000000  0 10G 2G 6G13G16G21G23G24G25G29G31
  24565295.066    24565293.0004   24565297.8554  129091497.808 3 100590798.45441
     -2683.604       -2091.127
  22847798.725    22847798.1714   22847801.5614  120066016.960 7  93557951.75244
      3103.567        2418.364
  22232535.986    22232535.5204   22232537.9364  116832777.721 7  91038552.42344
      2019.502        1573.642
  20632285.745    20632285.0114   20632287.2394  108423430.480 8  84485813.67847
      1338.511        1042.996
  25202859.777    25202859.8274   25202862.9874  132441926.377 5 103201518.24841
      3161.398        2463.417
  21275017.843    21275017.1104   21275017.8064  111801013.192 8  87117684.06746
      -601.303        -468.548
  23372303.478    23372304.0274   23372307.4124  122822290.681 6  95705711.33643
      1676.810        1306.609
  23906931.149    23906930.2324   23906932.6934  125631777.533 6  97894914.46642
      3172.641        2472.183
  22171086.178    22171085.9764   22171088.1794  116509868.816 7  90786941.14745
     -1960.733       -1527.843
  22315617.013    22315617.1024   22315618.6934  117269374.863 7  91378752.33645
     -3060.146       -2384.540
 08  5 10  0 18 30.0000000  0  9G 6G13G16G21G23G24G25G29G31
  22830108.159    22830107.6354   22830111.4134  119973054.823 6  93485513.74444
      3093.766        2410.722
  22221059.149    22221059.0364   22221061.1504  116772468.202 7  90991558.00244
      2001.080        1559.282
  20624691.903    20624691.3764   20624693.6244  108383525.452 8  84454718.85247
      1321.762        1029.945
  25184824.645    25184823.3614   25184826.4634  132347145.134 5 103127662.79042
      3157.186        2460.133
  21278512.879    21278512.4084   21278513.2244  111819381.358 8  87131996.85046
      -623.269        -485.675
  23362779.893    23362779.3084   23362783.8334  122772240.349 6  95666711.06243
      1659.828        1293.372
  23888836.023    23888835.4994   23888838.5954  125536689.915 6  97820820.27042
      3166.385        2467.294
  22182327.805    22182327.6374   22182330.0624  116568945.415 7  90832974.86945
     -1977.734       -1541.087
  22333115.923    22333115.8614   22333117.7564  117361331.972 7  91450407.31445
     -3070.421       -2392.537
 08  5 10  0 19  0.0000000  0  9G 6G13G16G21G23G24G25G29G31
  22812473.940    22812473.6694   22812477.4744  119880388.212 6  93413306.01644
      3083.882        2403.025
  22209688.380    22209688.2244   22209690.4124  116712714.589 7  90944996.74944
      1982.469        1544.785
  20617194.140    20617193.4554   20617195.8024  108344123.854 8  84424016.33047
      1304.931        1016.830
  25166811.241    25166810.1934   25166813.5754  132252491.033 5 103053906.33842
      3152.873        2456.830
  21282134.126    21282133.4664   21282133.7584  111838410.428 8  87146824.77246
      -645.354        -502.876
  23353353.170    23353352.9224   23353356.7954  122722702.662 6  95628110.20643
      1642.634        1279.974
  23870777.497    23870777.0634   23870780.1634  125441793.207 6  97746874.84142
      3159.955        2462.299
  22193666.756    22193666.8594   22193669.2044  116628532.660 7  90879406.47645
     -1994.764       -1554.360
  22350673.075    22350673.3044   22350675.3274  117453598.041 7  91522303.04045
     -3080.703       -2400.549
 08  5 10  0 19 30.0000000  0  9G 6G13G16G21G23G24G25G29G31
  22794898.202    22794897.1924   22794900.4604  119788021.019 6  93341331.57044
      3073.969        2395.297
  22198423.892    22198424.0214   22198425.8464  116653520.433 7  90898871.42744
      1963.866        1530.283
  20609792.463    20609791.8844   20609794.1314  108305228.058 8  84393707.90147
      1288.161        1003.760
  25148824.281    25148823.4754   25148827.2604  132157967.636 5 102980251.77541
      3148.559        2453.405
  21285881.152    21285880.8244   21285880.5414  111858100.841 8  87162168.02846
      -667.292        -519.967
  23344024.635    23344024.1444   23344028.7184  122673680.907 6  95589911.38643
      1625.530        1266.634
  23852755.192    23852755.5114   23852758.3034  125347090.443 5  97673080.55042
      3153.611        2457.366
  22205102.814    22205102.9984   22205105.2224  116688630.025 7  90926235.59945
     -2011.653       -1567.523
  22368289.756    22368289.8024   22368291.1384  117546172.499 7  91594439.07245
     -3090.856       -2408.463
 08  5 10  0 20  0.0000000  0  9G 6G13G16G21G23G24G25G29G31
  22777377.778    22777377.5144   22777380.8404  119695954.420 6  93269591.44144
      3063.674        2387.281
  22187266.227    22187265.9774   22187268.4904  116594886.808 7  90853182.89244
      1944.908        1515.509
  20602486.901    20602486.3674   20602488.6144  108266837.855 8  84363793.53847
      1271.064         990.438
  25130863.437    25130863.5434   25130861.1034  132063576.652 5 102906700.29441
      3143.989        2449.860
  21289753.413    21289752.9964   21289753.1574  111878450.866 8  87178025.21846
      -689.505        -537.272
  23334793.735    23334794.0164   23334798.1544  122625175.872 6  95552115.23743
      1608.070        1253.050
  23834771.686    23834771.0144   23834773.9824  125252582.329 6  97599437.92042
      3146.782        2452.016
  22216635.978    22216635.5874   22216637.9214  116749234.562 7  90973459.91545
     -2028.744       -1580.840
  22385964.378    22385963.9504   22385965.5674  117639052.491 7  91666813.16045
     -3101.240       -2416.547
 08  5 10  0 20 30.0000000  0  9G 6G13G16G21G23G24G25G29G31
  22759916.805    22759915.9024   22759919.4624  119604193.380 6  93198089.45544
      3053.738        2379.529
  22176216.451    22176216.3184   22176218.3724  116536818.710 7  90807935.01944
      1926.258        1500.981
  20595278.473    20595277.8314   20595280.0034  108228956.995 8  84334276.07847
      1254.320         977.392
  25112927.574    25112926.3664   25112928.8084  131969323.862 5 102833256.53141
      3139.530        2446.370
  21293751.527    21293750.9514   21293752.0294  111899462.630 8  87194398.01146
      -711.307        -554.261
  23325663.721    23325662.7104   23325667.4254  122577191.849 6  95514725.00543
      1590.884        1239.656
  23816825.178    23816824.8294   23816827.4664  125158273.540 6  97525950.54842
      3140.366        2447.045
  22228265.126    22228264.9224   22228267.1764  116810346.651 7  91021079.68245
     -2045.372       -1593.791
  22403696.415    22403696.1704   22403698.1944  117732238.945 7  91739426.01945
     -3111.174       -2424.292
 08  5 10  0 21  0.0000000  0  9G 6G13G16G21G23G24G25G29G31
  22742512.603    22742511.7634   22742515.3854  119512737.615 6  93126825.35944
      3043.347        2371.433
  22165274.164    22165273.5924   22165276.0154  116479316.213 7  90763127.86844
      1907.303        1486.208
  20588166.571    20588165.9724   20588168.1294  108191583.749 8  84305154.07147
      1237.310         964.136
  25095018.101    25095017.5634   25095020.2554  131875208.970 5 102759920.29841
      3134.885        2442.796
  21297875.548    21297875.1024   21297875.6354  111921133.392 8  87211284.35146
      -733.354        -571.446
  23316631.586    23316630.8854   23316635.6844  122529729.006 6  95477740.99043
      1573.371        1226.007
  23798916.002    23798916.0014   23798920.0634  125064163.627 5  97452618.20442
      3133.599        2441.748
  22239990.236    22239989.9434   22239992.1264  116871961.987 7  91069091.57645
     -2062.244       -1606.945
  22421486.838    22421486.8514   22421488.7574  117825727.631 7  91812274.36345
     -3121.295       -2432.188
 08  5 10  0 21 30.0000000  0  9G 6G13G16G21G23G24G25G29G31
  22725167.321    22725167.1654   22725170.2944  119421589.002 6  93055800.60344
      3033.118        2363.459
  22154439.827    22154439.5934   22154441.8994  116422380.950 6  90718762.73144
      1888.283        1471.384
  20581151.478    20581150.7604   20581152.9034  108154718.480 8  84276427.84247
      1220.350         950.928
  25077134.734    25077135.0224   25077137.6324  131781234.458 5 102686693.42241
      3130.071        2439.012
  21302124.494    21302124.1374   21302124.4004  111943462.051 8  87228683.35646
      -755.308        -588.557
  23307698.298    23307698.2184   23307702.6544  122482788.690 6  95441164.10243
      1555.880        1212.377
  23781046.120    23781046.0044   23781048.9944  124970254.051 6  97379441.98942
      3126.917        2436.554
  22251810.198    22251809.8814   22251812.7324  116934078.252 7  91117493.80745
     -2078.934       -1619.949
  22439334.205    22439334.3104   22439335.8104  117919516.446 7  91885356.56045
     -3131.338       -2440.007
 08  5 10  0 22  0.0000000  0 10G 3G 6G13G16G21G23G24G25G29G31
  24848386.439    24848385.4064   24848390.5494  130579148.113 5 101750005.87941
      4033.870        3143.277
  22707881.495    22707880.8984   22707884.2764  119330749.579 6  92985016.70644
      3022.916        2355.513
  22143713.715    22143713.6314   22143715.5864  116366014.840 7  90674841.07344
      1869.480        1456.735
  20574232.991    20574232.4164   20574234.5884  108118361.239 8  84248097.27047
      1203.517         937.806
  25059279.423    25059279.2294   25059278.7444  131687402.965 5 102613577.89141
      3125.406        2435.409
  21306498.608    21306498.0734   21306498.3414  111966447.832 8  87246594.34146
      -777.055        -605.498
  23298865.299    23298865.9614   23298869.8594  122436372.549 6  95404995.67443
      1538.531        1198.852
  23763214.140    23763213.8624   23763217.1374  124876546.376 6  97306423.05142
      3120.300        2431.402
  22263725.041    22263725.3484   22263728.0224  116996693.228 7  91166284.59745
     -2095.357       -1632.742
  22457238.337    22457238.5694   22457240.4354  118013603.752 7  91958671.36045
     -3141.096       -2447.609
 08  5 10  0 22 30.0000000  0 10G 3G 6G13G16G21G23G24G25G29G31
  24825361.430    24825359.9984   24825366.9424  130458153.252 5 101655724.13941
      4032.271        3142.023
  22690653.624    22690653.3084   22690656.6404  119240218.983 6  92914473.44744
      3012.454        2347.361
  22133095.771    22133095.5204   22133097.8694  116310217.487 7  90631362.62244
      1850.334        1441.821
  20567411.105    20567410.4764   20567412.6914  108082511.225 8  84220162.13347
      1186.427         924.482
  25041449.713    25041449.8744   25041452.1744  131593714.390 4 102540573.75841
      3120.421        2431.495
  21310996.795    21310996.4214   21310996.9844  111990087.514 8  87265014.95446
      -798.961        -622.569
  23290133.086    23290132.6334   23290137.5534  122390479.882 6  95369235.12343
      1520.949        1185.156
  23745420.533    23745419.4624   23745423.2724  124783040.094 6  97233561.04942
      3113.399        2426.029
  22275734.968    22275734.8624   22275737.3654  117059802.234 7  91215460.38345
     -2111.917       -1645.644
  22475198.879    22475198.8644   22475200.4864  118107984.665 7  92032214.93445
     -3150.982       -2455.314
 08  5 10  0 23  0.0000000  0 11G 3G 6G10G13G16G21G23G24G25G29G31
  24802346.153    24802344.8044   24802350.7844  130337202.027 5 101561476.43641
      4030.915        3140.975
  22673484.938    22673484.9484   22673488.8484  119149999.465 6  92844172.61644
      3002.083        2339.272
  24789014.896                                   130267154.063 5
      2606.233
  22122586.315    22122586.3324   22122588.7364  116254991.012 7  90588329.01944
      1831.308        1426.988
  20560685.415    20560684.7814   20560686.9334  108047169.563 8  84192623.54847
      1169.576         911.338
  25023650.451    25023649.0814   25023653.1264  131500170.656 4 102467682.72741
      3115.532        2427.661
  21315619.602    21315619.0514   21315619.4064  112014379.784 8  87283943.97346
      -820.606        -639.432
  23281500.551    23281500.4584   23281504.4304  122345112.178 6  95333883.47643
      1503.527        1171.580
  23727665.812    23727665.0984   23727668.0504  124689737.067 6  97160857.43042
      3106.711        2420.811
  22287838.124    22287838.0004   22287840.1014  117123403.195 7  91265019.60145
     -2128.215       -1658.351
  22493214.757    22493214.7514   22493216.1494  118202658.001 7  92105986.37045
     -3160.610       -2462.821
 08  5 10  0 23 30.0000000  0 11G 3G 6G10G13G16G21G23G24G25G29G31
  24779335.649    24779337.8134   24779340.7644  130216298.153 4 101467265.58041
      4029.274        3139.702
  22656377.682    22656376.9094   22656380.2424  119060094.500 7  92774116.86844
      2991.521        2331.053
  24774175.442    24774173.9114   24774179.1514  130189170.925 5 101446123.3944
      2592.628        2020.209
  22112186.376    22112186.5624   22112188.3654  116200338.814 7  90545742.89744
      1812.121        1412.051
  20554056.876    20554056.1834   20554058.2774  108012336.981 8  84165481.50247
      1152.583         898.127
  25005878.927    25005878.2684   25005879.7284  131406776.397 6 102394908.00941
      3110.572        2423.824
  21320366.771    21320366.2894   21320366.5234  112039325.474 8  87303382.15346
      -842.449        -656.451
  23272967.942    23272967.5164   23272971.7824  122300272.741 6  95298943.48243
      1485.806        1157.771
  23709949.007    23709948.8874   23709952.3354  124596640.108 5  97088314.34842
      3099.714        2415.376
  22300034.713    22300034.4904   22300036.5244  117187495.039 7  91314961.20645
     -2144.563       -1671.083
  22511285.465    22511285.5554   22511287.1554  118297622.391 7  92179984.60145
     -3170.335       -2470.384
 08  5 10  0 24  0.0000000  0 11G 3G 6G10G13G16G21G23G24G25G29G31
  24756340.185    24756340.2084   24756343.8474  130095444.157 3 101373093.85741
      4027.600        3138.372
  22639328.988    22639328.8424   22639331.7754  118970506.735 6  92704308.28344
      2980.887        2322.760
  24759411.256    24759412.0594   24759416.9584  130111595.094 4 101385674.70941
      2578.973        2009.590
  22101896.141    22101896.2004   22101898.2224  116146263.572 7  90503606.37144
      1792.788        1396.970
  20547525.299    20547524.8634   20547526.9584  107978014.934 8  84138737.07047
      1135.499         884.797
  24988134.329    24988133.8584   24988134.9304  131313534.611 5 102322251.77841
      3105.519        2419.906
  21325238.340    21325237.6884   21325237.7474  112064924.754 8  87323329.59346
      -864.229        -673.423
  23264535.818    23264536.1104   23264540.4374  122255963.980 6  95264417.01943
      1468.009        1143.896
  23692273.274    23692272.8054   23692277.0324  124503751.715 6  97015933.80042
      3092.827        2410.004
  22312323.342    22312323.6644   22312325.7834  117252076.519 7  91365284.49345
     -2160.886       -1683.809
  22529412.121    22529412.2244   22529413.7864  118392876.902 7  92254208.86645
     -3179.968       -2477.894
 08  5 10  0 24 30.0000000  0 11G 3G 6G10G13G16G21G23G24G25G29G31
  24733354.519    24733353.4714   24733357.3924  129974652.268 5 101278970.28541
      4025.548        3136.807
  22622343.734    22622343.6004   22622346.4824  118881247.771 6  92634755.89944
      2969.977        2314.257
  24744730.392    24744728.6014   24744734.6424  130034438.375 5 101325552.62341
      2565.006        1998.709
  22091717.990    22091717.6894   22091719.8474  116092776.304 7  90461927.98344
      1773.275        1381.780
  20541093.352    20541092.6614   20541094.7504  107944213.635 8  84112398.41847
      1118.203         871.330
  24970421.821    24970420.7064   24970424.8274  131220456.938 4 102249723.76541
      3100.050        2415.632
  21330235.054    21330234.8024   21330235.1504  112091185.861 8  87343792.81145
      -886.228        -690.570
  23256208.108    23256207.2374   23256211.6774  122212197.090 6  95230312.86543
      1450.029        1129.893
  23674639.326    23674639.0214   23674642.9494  124411083.522 6  96943724.87443
      3085.438        2404.231
  22324707.759    22324707.4284   22324709.8634  117317154.448 7  91415994.49345
     -2177.372       -1696.650
  22547595.282    22547594.9214   22547596.6014  118488429.131 7  92328665.11545
     -3189.888       -2485.625
 08  5 10  0 25  0.0000000  0 11G 3G 6G10G13G16G21G23G24G25G29G31
  24710380.509    24710380.3804   24710382.1424  129853914.384 5 101184888.82541
      4023.716        3135.401
  22605419.417    22605418.8974   22605422.3724  118792309.701 7  92565453.53944
      2959.259        2305.918
  24730125.567    24730124.3264   24730131.1654  129957693.663 5 101265751.56641
      2551.420        1988.119
  22081649.830    22081649.7034   22081652.3284  116039869.385 7  90420701.81644
      1753.926        1366.697
  20534758.364    20534757.8094   20534759.9264  107910923.739 8  84086458.21447
      1101.217         858.109
  24952740.257    24952739.2084   24952742.4504  131127536.025 5 102177317.90641
      3094.910        2411.636
  21335356.656    21335356.1064   21335356.4374  112118097.554 8  87364762.94646
      -907.849        -707.408
  23247980.286    23247979.8364   23247984.7674  122168963.676 6  95196624.51043
      1432.269        1116.051
  23657045.541    23657045.0784   23657048.1474  124318627.023 6  96871680.94542
      3078.420        2398.763
  22337183.777    22337183.5674   22337186.1524  117382716.963 7  91467082.12745
     -2193.450       -1709.177
  22565832.454    22565832.0914   22565833.9484  118584267.063 7  92403343.95245
     -3199.291       -2492.942
 08  5 10  0 25 30.0000000  0 11G 3G 6G10G13G16G21G23G24G25G29G31
  24687411.993    24687412.9094   24687417.6124  129733231.225 5 101090850.05941
      4021.768        3133.856
  22588556.137    22588555.7004   22588559.1604  118703693.493 6  92496402.01144
      2948.377        2297.436
  24715600.895    24715600.6544   24715604.8214  129881362.681 5 101206272.91841
      2537.352        1977.132
  22071692.963    22071692.7254   22071695.1754  115987543.268 7  90379928.21844
      1734.381        1351.462
  20528520.952    20528520.2234   20528522.4094  107878144.720 8  84060916.08647
      1084.004         844.683
  24935088.099    24935087.3004   24935091.8384  131034773.425 5 102105035.39041
      3089.260        2407.212
  21340601.265    21340600.7804   21340601.2944  112145658.106 8  87386238.69746
      -929.635        -724.392
  23239855.014    23239854.6114   23239858.8014  122126264.110 6  95163352.04543
      1414.250        1102.021
  23639492.590    23639491.4854   23639495.3244  124226382.614 6  96799802.18243
      3071.172        2393.117
  22349751.951    22349751.4254   22349753.5134  117448760.614 7  91518544.65445
     -2209.547       -1721.719
  22584123.517    22584123.8294   22584124.9514  118680387.680 7  92478243.05545
     -3208.836       -2500.396
 08  5 10  0 26  0.0000000  0 11G 3G 6G10G13G16G21G23G24G25G29G31
  24664458.376    24664458.0824   24664463.3474  129612607.091 5 100996857.26641
      4019.844        3132.327
  22571755.369    22571754.5494   22571757.9134  118615402.888 7  92427604.15344
      2937.556        2289.006
  24701155.222    24701154.0214   24701156.2834  129805449.716 5 101147119.94041
      2523.396        1966.282
  22061846.610    22061846.5864   22061848.6344  115935801.621 7  90339610.06144
      1714.933        1336.311
  20522380.699    20522380.1994   20522382.3454  107845878.976 8  84035773.96647
      1066.967         831.404
  24917466.298    24917465.8544   24917469.4644  130942173.079 5 102032879.33641
      3083.885        2403.006
  21345969.422    21345968.8924   21345969.2364  112173868.053 8  87408220.46846
      -951.155        -741.163
  23231831.238    23231830.9854   23231835.9114  122084101.954 6  95130498.39043
      1396.483        1088.174
  23621979.046    23621978.5244   23621982.4754  124134354.057 6  96728091.60643
      3064.035        2387.558
  22362410.893    22362410.6624   22362412.9734  117515284.325 7  91570381.02145
     -2225.487       -1734.142
  22602468.221    22602468.3914   22602470.4354  118776791.091 7  92553362.60745
     -3218.170       -2507.663
 08  5 10  0 26 30.0000000  0 11G 3G 6G10G13G16G21G23G24G25G29G31
  24641516.162    24641514.2804   24641520.0824  129492044.166 4 100902912.15041
      4017.683        3130.666
  22555016.076    22555015.5804   22555018.8384  118527439.763 7  92359061.48144
      2926.493        2280.371
  24686789.512    24686788.6074   24686792.9264  129729956.919 5 101088294.33341
      2509.214        1955.249
  22052111.743    22052111.7464   22052113.9674  115884646.265 7  90299748.75344
      1695.273        1320.990
  20516338.420    20516337.8714   20516340.0714  107814126.453 8  84011031.72347
      1049.731         817.970
  24899876.662    24899875.4424   24899879.0994  130849737.197 5 101960851.35741
      3078.310        2398.664
  21351460.792    21351460.0594   21351460.4804  112202726.002 8  87430707.15146
      -972.819        -758.039
  23223910.855    23223910.7644   23223915.7514  122042477.583 6  95098063.40843
      1378.376        1074.065
  23604507.698    23604507.3494   23604510.9604  124042542.916 6  96656550.51143
      3056.616        2381.771
  22375160.854    22375160.6564   22375163.0354  117582286.201 7  91622590.05745
     -2241.473       -1746.594
  22620866.836    22620866.5004   22620868.1984  118873474.873 7  92628700.67045
     -3227.526       -2514.953
 08  5 10  0 27  0.0000000  0 11G 3G 6G10G13G16G21G23G24G25G29G31
  24618588.040    24618584.6724   24618591.2084  129371544.482 5 100809016.41341
      4015.459        3128.903
  22538340.258    22538339.7444   22538343.0744  118439806.606 7  92290775.94044
      2915.536        2271.842
  24672502.851    24672502.2354   24672505.0994  129654887.532 4 101029798.75641
      2495.128        1944.266
  22042489.342    22042489.3614   22042491.6594  115834079.269 7  90260345.92244
      1675.666        1305.709
  20510394.249    20510393.5074   20510395.7704  107782888.623 8  83986690.52847
      1032.616         804.634
  24882319.322    24882318.0624   24882320.9814  130757468.804 5 101888953.92541
      3072.716        2394.346
  21357075.565    21357074.8844   21357075.3194  112232231.491 8  87453698.42045
      -994.362        -774.827
  23216094.688    23216093.5324   23216097.9914  122001393.856 6  95066049.83443
      1360.396        1060.075
  23587079.005    23587078.6424   23587081.4774  123950951.163 6  96585180.39943
      3049.218        2376.012
  22388001.779    22388001.3554   22388003.8734  117649764.271 7  91675170.44645
     -2257.238       -1758.891
  22639317.893    22639318.0944   22639320.0304  118970437.363 7  92704255.81945
     -3236.778       -2522.161
 08  5 10  0 27 30.0000000  0 11G 3G 6G10G13G16G21G23G24G25G29G31
  24595668.897    24595668.0514   24595673.0154  129251110.194 5 100715171.53841
      4013.385        3127.303
  22521727.263    22521726.9924   22521730.0574  118352504.925 7  92222748.65844
      2904.479        2263.231
  24658299.369    24658298.6744   24658300.9274  129580243.348 4 100971634.43341
      2481.155        1933.343
  22032979.171    22032979.0604   22032981.3254  115784102.230 7  90221402.78544
      1656.018        1290.403
  20504547.832    20504547.0984   20504549.3074  107752165.220 8  83962750.20747
      1015.533         791.332
  24864792.414    24864791.4004   24864793.0304  130665369.979 5 101817188.60541
      3067.099        2389.950
  21362813.208    21362812.8224   21362812.9054  112262383.109 8  87477193.18146
     -1015.821        -791.556
  23208379.277    23208379.0084   23208383.4704  121960852.223 6  95034458.93443
      1342.335        1045.958
  23569691.958    23569691.4594   23569694.6584  123859580.417 6  96513982.45443
      3042.025        2370.411
  22400932.464    22400932.6304   22400934.6154  117717714.821 7  91728118.34845
     -2272.923       -1771.083
  22657822.168    22657822.1564   22657823.7184  119067676.378 7  92780026.48845
     -3245.931       -2529.308
 08  5 10  0 28  0.0000000  0 11G 3G 6G10G13G16G21G23G24G25G29G31
  24572764.411    24572763.9544   24572769.3254  129130745.596 5 100621380.94341
      4010.940        3125.396
  22505178.080    22505177.3804   22505180.9834  118265538.882 7  92154982.93144
      2893.126        2254.379
  24644176.565    24644174.3434   24644179.0684  129506029.434 5 100913805.44841
      2466.558        1921.986
  22023582.081    22023581.9124   22023584.0354  115734719.226 7  90182922.54444
      1636.094        1274.873
  20498799.519    20498798.9664   20498801.1964  107721959.085 8  83939212.99947
       998.120         777.747
  24847299.518    24847298.8044   24847302.2534  130573445.248 5 101745558.98641
      3061.041        2385.235
  21368674.101    21368673.5374   21368673.9004  112293181.864 8  87501192.25046
     -1037.520        -808.459
  23200768.249    23200767.0024   23200772.4724  121920855.838 6  95003292.95943
      1323.952        1031.659
  23552347.073    23552346.7094   23552349.7224  123768434.350 6  96442959.61943
      3034.367        2364.433
  22413953.934    22413953.5054   22413956.3804  117786139.969 7  91781436.65245
     -2288.828       -1783.520
  22676378.041    22676378.4494   22676380.7754  119165191.888 7  92856012.63545
     -3255.184       -2536.510
 08  5 10  0 28 30.0000000  0 11G 3G 6G10G13G16G21G23G24G25G29G31
  24549873.105    24549872.4164   24549877.4644  129010452.725 5 100527646.30441
      4008.499        3123.509
  22488692.739    22488692.7734   22488696.3774  118178910.854 6  92087480.55844
      2881.926        2245.658
  24630136.924    24630135.6944   24630138.9254  129432248.373 5 100856313.72841
      2452.113        1910.725
  22014297.839    22014297.8664   22014299.9404  115685932.078 7  90144906.59944
      1616.251        1259.415
  20493150.104    20493149.4884   20493151.6154  107692270.785 8  83916079.33647
       980.952         764.376
  24829839.238    24829839.7464   24829843.3724  130481697.219 4 101674067.05741
      3055.285        2380.729
  21374657.750    21374657.3904   21374657.8664  112324626.584 8  87525694.64746
     -1058.918        -825.132
  23193261.108    23193260.3584   23193265.1744  121881406.427 6  94972553.01443
      1305.778        1017.471
  23535045.362    23535044.8284   23535048.8314  123677514.920 6  96372113.35943
      3026.779        2358.521
  22427063.640    22427063.7804   22427066.9834  117855035.226 7  91835120.72145
     -2304.473       -1795.728
  22694987.258    22694987.0524   22694989.1674  119262982.581 7  92932213.19244
     -3264.229       -2543.561
 08  5 10  0 29  0.0000000  0 11G 3G 6G10G13G16G21G23G24G25G29G31
  24526997.052    24526994.9204   24527000.3834  128890235.423 5 100433970.57041
      4005.938        3121.525
  22472273.543    22472272.7484   22472276.2994  118092624.056 6  92020244.09844
      2870.465        2236.731
  24616180.022    24616179.6004   24616182.3234  129358903.988 5 100799162.25641
      2437.418        1899.275
  22005128.329    22005127.9654   22005130.1504  115637744.036 7  90107357.48644
      1596.179        1243.775
  20487599.366    20487598.7294   20487600.9964  107663101.899 8  83893350.32547
       963.596         750.854
  24812415.612    24812415.6214   24812417.1254  130390129.928 5 101602715.96041
      3049.167        2375.954
  21380764.568    21380763.8814   21380764.2794  112356717.563 8  87550700.65245
     -1080.498        -841.946
  23185858.158    23185857.9474   23185862.8984  121842507.523 6  94942242.38943
      1287.396        1003.156
  23517788.291    23517787.7434   23517791.0314  123586825.296 6  96301446.12843
      3019.141        2352.582
  22440263.893    22440263.6384   22440266.3254  117924402.713 7  91889173.96445
     -2319.985       -1807.772
  22713648.214    22713648.2784   22713650.3324  119361047.115 7  93008627.14945
     -3273.437       -2550.730
 08  5 10  0 29 30.0000000  0 11G 3G 6G10G13G16G21G23G24G25G29G31
  24504134.522    24504132.5144   24504137.4804  128770096.771 5 100340356.00441
      4003.318        3119.454
  22455919.535    22455918.5474   22455921.7084  118006681.360 7  91953275.74844
      2858.932        2227.741
  24602306.095    24602305.9704   24602309.8194  129285999.467 5 100742353.55941
      2422.781        1887.867
  21996072.568    21996072.4094   21996074.7884  115590157.247 7  90070276.86944
      1576.189        1228.203
  20482147.793    20482147.2234   20482149.5104  107634453.850 8  83871027.18147
       946.214         737.312
  24795025.922    24795025.7724   24795028.4604  130298746.401 5 101531508.02041
      3042.965        2371.140
  21386993.851    21386993.4614   21386993.6624  112389454.146 8  87576209.66746
     -1101.967        -858.666
  23178561.635    23178561.4894   23178565.7234  121804160.336 6  94912361.56843
      1268.983         988.831
  23500574.976    23500574.4034   23500577.1164  123496367.862 6  96230959.81343
      3011.304        2346.486
  22453553.238    22453552.9604   22453555.0194  117994234.618 7  91943587.07145
     -2335.614       -1819.927
  22732361.686    22732361.7724   22732363.2874  119459384.370 7  93085253.55845
     -3282.473       -2557.772
 08  5 10  0 30  0.0000000  0 11G 3G 6G10G13G16G21G23G24G25G29G31
  24481289.010    24481289.5554   24481293.7204  128650042.704 5 100246807.44841
      4000.367        3117.167
  22439631.455    22439631.0934   22439634.4814  117921088.165 7  91886579.65144
      2847.271        2218.652
  24588518.420    24588516.1994   24588522.8074  129213541.345 5 100685892.66041
      2407.890        1876.309
  21987132.421    21987132.1324   21987134.4864  115543176.922 7  90033668.83844
      1555.897        1212.385
  20476796.217    20476795.7074   20476797.8384  107606330.583 8  83849112.88047
       928.734         723.693
  24777671.897    24777670.5184   24777675.1474  130207552.849 5 101460448.13541
      3036.635        2366.215
  21393347.058    21393346.4074   21393346.8224  112422839.019 8  87602223.84846
     -1123.580        -875.523
  23171370.176    23171369.9084   23171374.0994  121766369.901 6  94882914.48043
      1250.349         974.282
  23483405.819    23483405.8094   23483409.4634  123406148.169 6  96160658.75743
      3003.396        2340.296
  22466931.319    22466931.1904   22466934.7614  118064539.845 7  91998370.79445
     -2351.292       -1832.199
  22751126.966    22751126.9534   22751128.8584  119557996.380 7  93162094.07045
     -3291.583       -2564.870
 08  5 10  0 30 30.0000000  0 11G 3G 6G10G13G16G21G23G24G25G29G31
  24458460.681    24458460.6514   24458463.3624  128530073.737 6 100153325.20042
      3997.596        3115.014
  22423410.825    22423409.9594   22423413.4234  117835845.261 7  91820156.59144
      2835.606        2209.562
  24574815.063    24574814.5874   24574817.4944  129141530.232 4 100629780.09741
      2393.021        1864.682
  21978307.353    21978307.3654   21978310.1944  115496803.717 7  89997533.89444
      1535.698        1196.645
  20471544.355    20471543.7214   20471545.7644  107578731.069 8  83827606.80147
       911.309         710.113
  24760355.784    24760354.7124   24760357.9574  130116550.346 5 101389537.17341
      3030.216        2361.210
  21399822.456    21399821.9754   21399822.5914  112456869.197 8  87628740.85346
     -1145.020        -892.219
  23164284.868    23164284.5664   23164288.8534  121729136.556 6  94853901.63243
      1231.885         959.908
  23466283.151    23466282.2084   23466286.6804  123316166.512 6  96090543.27543
      2995.458        2334.114
  22480398.310    22480398.4314   22480402.1454  118135311.235 6  92053517.93745
     -2366.789       -1844.304
  22769943.671    22769943.6444   22769945.0704  119656879.498 7  93239145.87345
     -3300.558       -2571.869
 08  5 10  0 31  0.0000000  0 11G 3G 6G10G13G16G21G23G24G25G29G31
  24435645.843    24435643.7824   24435650.8124  128410188.150 5 100059907.95042
      3994.680        3112.718
  22407255.453    22407254.8274   22407258.7004  117750950.816 7  91754004.98844
      2823.848        2200.398
  24561196.753    24561194.8454   24561198.9574  129069964.798 5 100574014.89541
      2377.993        1853.015
  21969598.765    21969598.4364   21969600.6274  115451035.498 7  89961870.35544
      1515.445        1180.872
  20466391.318    20466390.7154   20466392.9094  107551652.048 8  83806506.24147
       893.866         696.521
  24743074.906    24743074.9924   24743074.6214  130025737.371 5 101318773.79941
      3023.754        2356.177
  21406420.587    21406419.8564   21406420.2684  112491539.939 8  87655757.01346
     -1166.431        -908.896
  23157305.065    23157304.0124   23157308.3534  121692458.892 6  94825322.23543
      1213.274         945.388
  23449205.629    23449205.1174   23449208.2684  123226420.791 6  96020611.58543
      2987.514        2327.914
  22493953.056    22493952.9474   22493955.7814  118206541.055 7  92109021.61445
     -2382.086       -1856.184
  22788811.623    22788810.9504   22788812.8484  119756027.938 7  93316404.41045
     -3309.411       -2578.765
 08  5 10  0 31 30.0000000  0 11G 3G 6G10G13G16G21G23G24G25G29G31
  24412850.270    24412848.9444   24412852.6914  128290391.999 5  99966560.32141
      3991.599        3110.331
  22391167.684    22391167.5584   22391170.9974  117666410.915 7  91688129.92644
      2812.010        2191.173
  24547663.900    24547663.3684   24547667.8294  128998851.797 5 100518602.17441
      2362.912        1841.261
  21961005.335    21961005.3174   21961007.3484  115405877.497 7  89926682.30144
      1495.009        1164.945
  20461338.406    20461337.5894   20461339.7104  107525097.618 8  83785814.50347
       876.369         682.897
  24725830.401    24725830.5574   24725832.8064  129935119.585 5 101248162.50541
      3017.267        2351.132
  21413140.085    21413139.6794   21413140.2924  112526853.467 8  87683274.04045
     -1187.884        -925.617
  23150431.771    23150431.0924   23150435.3764  121656339.856 6  94797177.62943
      1194.563         930.835
  23432172.968    23432172.6334   23432175.6614  123136916.527 6  95950868.03543
      2979.380        2321.591
  22507595.600    22507595.1594   22507598.6674  118278232.233 7  92164884.99245
     -2397.429       -1868.132
  22807729.099    22807729.1744   22807731.1394  119855443.225 7  93393870.85044
     -3318.294       -2585.684
 08  5 10  0 32  0.0000000  0 11G 3G 6G10G13G16G21G23G24G25G29G31
  24390067.551    24390068.2904   24390074.2984  128170685.240 5  99873282.42141
      3988.867        3108.195
  22375147.356    22375146.9404   22375150.5334  117582224.616 7  91622530.25244
      2800.340        2182.083
  24534218.347    24534217.6254   24534220.1184  128928191.121 5 100463541.79141
      2347.843        1829.465
  21952527.486    21952527.4694   21952529.7694  115361328.966 7  89891969.16844
      1474.808        1149.201
  20456384.622    20456383.9284   20456385.9324  107499065.323 8  83765529.50747
       859.058         669.391
  24708623.264    24708623.1194   24708626.4004  129844697.853 5 101177704.07941
      3010.829        2346.088
  21419981.764    21419981.2684   21419981.9134  112562806.156 8  87711289.12045
     -1209.011        -942.089
  23143664.427    23143663.5604   23143668.5594  121620779.363 6  94769468.16743
      1176.084         916.423
  23415186.817    23415186.5164   23415189.1034  123047653.194 6  95881312.20643
      2971.443        2315.410
  22521324.763    22521324.5814   22521326.8144  118350380.200 7  92221104.56445
     -2412.439       -1879.830
  22826696.819    22826696.9074   22826698.8814  119955121.371 7  93471542.14544
     -3326.945       -2592.424
 08  5 10  0 32 30.0000000  0 11G 3G 6G10G13G16G21G23G24G25G29G31
  24367308.172    24367307.6674   24367311.9304  128051070.648 5  99780076.32541
      3985.664        3105.702
  22359194.986    22359194.6594   22359198.1334  117498394.738 6  91557208.34544
      2788.378        2172.754
  24520858.902    24520856.9974   24520862.4784  128857985.651 5 100408836.27941
      2332.600        1817.610
  21944166.867    21944166.7224   21944169.3824  115317392.591 7  89857733.04844
      1454.369        1133.273
  20451530.564    20451529.8334   20451531.8134  107473556.926 8  83745652.85147
       841.587         655.782
  24691455.842    24691454.3674   24691457.5364  129754475.398 5 101107400.88242
      3004.145        2340.914
  21426944.972    21426944.4864   21426944.9224  112599397.218 8  87739801.62846
     -1230.287        -958.665
  23137003.917    23137003.4784   23137008.1484  121585779.440 6  94742195.43043
      1157.350         901.820
  23398246.490    23398246.0364   23398249.2394  122958632.970 6  95811945.80043
      2963.309        2309.065
  22535140.156    22535140.0124   22535142.7194  118422982.348 7  92277677.80245
     -2427.604       -1891.645
  22845714.717    22845714.6694   22845716.8844  120055060.845 6  93549417.04244
     -3335.642       -2599.199
 08  5 10  0 33  0.0000000  0 11G 3G 6G10G13G16G21G23G24G25G29G31
  24344563.673    24344563.3434   24344568.4484  127931547.475 5  99686941.34241
      3982.535        3103.273
  22343310.718    22343310.5004   22343313.5574  117414919.911 7  91492163.03944
      2776.492        2163.494
  24507585.362    24507584.4954   24507588.7694  128788234.215 5 100354484.37241
      2317.315        1805.730
  21935922.670    21935922.2184   21935924.5984  115274066.304 7  89823972.31044
      1433.984        1117.388
  20446775.515    20446774.8054   20446776.9504  107448568.898 8  83726181.49247
       824.216         642.258
  24674324.189    24674323.4584   24674326.4594  129664451.129 5 101037252.09541
      2997.421        2335.647
  21434028.663    21434028.0694   21434028.7114  112636621.893 8  87768807.83946
     -1251.431        -975.142
  23130450.054    23130449.3074   23130454.5174  121551338.250 6  94715358.19943
      1138.674         887.278
  23381352.932    23381352.5784   23381356.1304  122869854.701 6  95742767.94543
      2955.168        2302.732
  22549040.763    22549040.8424   22549043.5024  118496033.373 7  92334600.82045
     -2442.548       -1903.293
  22864781.349    22864781.3844   22864783.8954  120155256.548 6  93627491.60744
     -3344.169       -2605.850
 08  5 10  0 33 30.0000000  0 11G 3G 6G10G13G16G21G23G24G25G29G31
  24321837.851    24321836.7504   24321841.1524  127812120.012 5  99593881.11541
      3979.287        3100.769
  22327494.692    22327494.2274   22327497.1924  117331804.162 7  91427397.35144
      2764.556        2154.197
  24494399.967    24494398.7874   24494403.3254  128718940.938 5 100300488.86441
      2302.122        1793.886
  21927794.408    21927794.5234   21927796.6934  115231354.358 7  89790690.25844
      1413.492        1101.423
  20442120.149    20442119.6104   20442121.7394  107424104.065 8  83707117.73347
       806.764         628.640
  24657231.831    24657231.7294   24657234.1494  129574630.012 5 100967261.59441
      2990.670        2330.378
  21441233.251    21441232.5914   21441232.8684  112674481.613 8  87798308.90345
     -1272.530        -991.583
  23124003.515    23124002.3144   23124006.9904  121517459.543 6  94688959.31143
      1119.900         872.642
  23364505.619    23364505.4054   23364508.6074  122781322.440 6  95673781.81343
      2946.999        2296.359
  22563027.372    22563027.6154   22563030.3734  118569533.150 6  92391873.47145
     -2457.429       -1914.880
  22883897.252    22883897.5204   22883898.9664  120255708.840 7  93705766.12144
     -3352.639       -2612.447
 08  5 10  0 34  0.0000000  0 11G 3G 6G10G13G16G21G23G24G25G29G31
  24299129.616    24299129.1894   24299132.7604  127692789.842 5  99500896.60941
      3976.008        3098.198
  22311747.059    22311746.3804   22311749.3704  117249049.322 7  91362912.98545
      2752.520        2144.829
  24481301.541    24481300.5004   24481304.7844  128650109.734 5 100246853.90941
      2286.703        1781.858
  21919783.613    21919783.2354   21919785.2564  115189257.439 7  89757887.44144
      1393.015        1085.465
  20437564.229    20437563.6524   20437565.7854  107400163.000 8  83688462.42747
       789.364         615.089
  24640178.345    24640178.2934   24640180.8534  129485013.599 6 100897430.55042
      2983.784        2325.037
  21448558.078    21448557.5504   21448557.4884  112712973.980 8  87828302.93745
     -1293.547       -1007.953
  23117662.872    23117662.5804   23117667.1324  121484144.342 6  94662999.83643
      1101.197         858.073
  23347705.645    23347705.0024   23347708.3024  122693037.307 6  95604988.22443
      2938.758        2289.952
  22577098.791    22577098.8274   22577101.5104  118643478.528 7  92449493.31445
     -2472.213       -1926.402
  22903060.675    22903060.7724   22903062.2924  120356414.983 7  93784238.44944
     -3360.995       -2618.957
 08  5 10  0 34 30.0000000  0 12G 3G 6G 7G10G13G16G21G23G24G25G29G31
  24276439.724    24276440.0394   24276444.9364  127573560.056 5  99407990.37241
      3972.677        3095.561
  22296067.837    22296067.5674   22296071.2694  117166657.838 7  91298711.82245
      2740.365        2135.343
  25025554.859                                   131510171.893 5
      3708.434
  24468292.191    24468291.8594   24468296.8484  128581740.050 6 100193577.32541
      2271.325        1769.928
  21911890.688    21911890.4494   21911892.8554  115147777.812 7  89725565.65744
      1372.394        1069.400
  20433108.110    20433107.5304   20433109.6864  107376745.852 8  83670215.33147
       771.866         601.456
  24623163.054    24623163.1714   24623165.5344  129395605.387 5 100827761.89041
      2976.753        2319.537
  21456002.921    21456002.6014   21456002.6484  112752098.372 8  87858789.49545
     -1314.600       -1024.363
  23111430.872    23111429.8804   23111434.2004  121451393.513 6  94637479.87343
      1082.342         843.379
  23330952.451    23330952.5244   23330955.5894  122605001.649 6  95536389.03843
      2930.414        2283.433
  22591254.355    22591254.2244   22591257.1944  118717867.858 7  92507459.08445
     -2486.979       -1937.913
  22922272.132    22922272.6514   22922274.5354  120457373.441 6  93862907.34244
     -3369.448       -2625.542
 08  5 10  0 35  0.0000000  0 12G 3G 6G 7G10G13G16G21G23G24G25G29G31
  24253772.163    24253771.8344   24253775.4054  127454435.830 5  99315166.42141
      3969.049        3092.767
  22280459.156    22280459.0074   22280462.6094  117084635.351 7  91234798.44845
      2727.938        2125.658
  25004392.472    25004391.7604   25004395.4134  131398958.862 5 102388830.13441
      3705.848        2887.670
  24455372.472    24455376.1524   24455376.3184  128513842.283 5 100140670.40541
      2255.533        1757.375
  21904115.932    21904115.6684   21904117.7884  115106920.493 7  89693728.80845
      1351.531        1053.140
  20428752.199    20428751.7544   20428753.8334  107353856.102 8  83652379.15547
       754.242         587.721
  24606191.759    24606191.1794   24606192.6734  129306410.578 5 100758259.40241
      2969.609        2313.976
  21463568.935    21463568.3664   21463568.4354  112791856.303 8  87889769.67445
     -1335.784       -1040.867
  23105307.569    23105307.1364   23105309.7974  121419211.044 6  94612402.41043
      1063.290         828.551
  23314248.889    23314248.4024   23314251.2044  122517220.451 6  95467988.11043
      2921.815        2276.743
  22605495.315    22605494.8934   22605497.6774  118792702.241 7  92565771.77645
     -2501.840       -1949.491
  22941533.003    22941532.9294   22941534.1494  120558585.610 7  93941773.93244
     -3377.922       -2632.146
 08  5 10  0 35 30.0000000  0 12G 3G 6G 7G10G13G16G21G23G24G25G29G31
  24231124.672    24231122.7364   24231125.7844  127335416.962 5  99222424.50341
      3965.673        3090.135
  22264921.348    22264920.8984   22264924.0874  117002978.373 7  91171169.03544
      2715.778        2116.225
  24983243.389    24983243.6404   24983248.0334  131287825.373 4 102302232.63541
      3703.207        2885.625
  24442539.741                                   128446416.516 5
      2239.747
  21896459.157    21896459.0464   21896460.8004  115066683.709 7  89662375.47845
      1330.886        1037.054
  20424496.601    20424495.8364   20424497.9694  107331490.807 8  83634951.58547
       736.780         574.105
  24589259.120    24589257.7074   24589260.0914  129217428.775 5 100688922.85441
      2962.535        2308.466
  21471254.143    21471253.7114   21471253.9224  112832243.066 8  87921239.87146
     -1356.662       -1057.139
  23099291.384    23099291.4204   23099293.6694  121387595.518 6  94587766.51943
      1044.406         813.817
  23297592.218    23297591.8424   23297595.0874  122429692.283 6  95399784.40343
      2913.405        2270.186
  22619818.743    22619819.0584   22619821.2564  118867975.527 7  92624426.40245
     -2516.378       -1960.821
  22960840.072    22960840.2754   22960841.5874  120660046.234 7  94020834.14644
     -3386.123       -2638.535
 08  5 10  0 36  0.0000000  0 12G 3G 6G 7G10G13G16G21G23G24G25G29G31
  24208495.133    24208494.3384   24208498.3244  127216502.765 5  99129764.18241
      3962.168        3087.435
  22249452.453    22249452.0394   22249455.4954  116921689.698 7  91107827.11245
      2703.551        2106.678
  24962109.344    24962110.0624   24962114.5674  131176771.484 5 102215697.16741
      3700.621        2883.581
  24429798.268                                   128379460.611 4
      2224.111
  21888919.850    21888919.6694   21888921.9344  115027066.967 7  89631505.29744
      1310.294        1021.005
  20420339.875    20420339.3904   20420341.5184  107309648.793 8  83617931.90347
       719.417         560.584
  24572366.737    24572364.8924   24572369.1394  129128660.208 5 100619752.48941
      2955.381        2302.906
  21479058.422    21479058.0094   21479058.4394  112873255.225 8  87953197.41646
     -1377.406       -1073.301
  23093383.511    23093382.8714   23093386.1514  121356547.398 6  94563573.18143
      1025.575         799.148
  23280985.053    23280984.7414   23280987.2644  122342417.133 6  95331777.77943
      2905.028        2263.659
  22634225.994    22634225.6654   22634228.1714  118943683.361 7  92683419.56845
     -2530.728       -1971.994
  22980193.859    22980193.8274   22980195.4624  120761751.223 7  94100084.73044
     -3394.103       -2644.751
 08  5 10  0 36 30.0000000  0 12G 3G 6G 7G10G13G16G21G23G24G25G29G31
  24185885.508    24185887.3734   24185890.4674  127097700.280 5  99037190.91341
      3958.221        3084.324
  22234054.668    22234054.5544   22234057.6754  116840775.146 7  91044777.10945
      2690.857        2096.764
  24940994.042    24940993.5754   24940997.2144  131065803.411 5 102129228.57641
      3697.460        2881.124
  24417144.768                                   128312979.622 4
      2207.931
  21881499.976    21881500.1144   21881502.0234  114988076.118 7  89601122.82345
      1289.208        1004.580
  20416283.950    20416283.3634   20416285.5494  107288334.157 8  83601323.01147
       701.662         546.749
  24555516.846    24555516.6564   24555518.2324  129040111.935 5 100550753.80041
      2947.805        2296.996
  21486982.349    21486981.8454   21486982.0504  112914895.701 8  87985644.54645
     -1398.510       -1089.748
  23087583.786    23087583.3184   23087586.2544  121326071.551 6  94539825.93943
      1006.257         784.084
  23264426.178    23264425.5704   23264429.2924  122255400.836 6  95263972.88243
      2896.169        2256.751
  22648715.781    22648715.2894   22648717.8784  119019827.747 7  92742752.93644
     -2545.409       -1983.433
  22999594.285    22999594.1954   22999597.0484  120863703.132 6  94179527.67544
     -3402.539       -2651.316
 08  5 10  0 37  0.0000000  0 12G 3G 6G 7G10G13G16G21G23G24G25G29G31
  24163300.750    24163300.6574   24163305.2774  126979011.357 5  98944706.11841
      3954.466        3081.417
  22218728.942    22218728.4674   22218731.3784  116760234.845 7  90982018.36845
      2678.491        2087.125
  24919893.466    24919893.7184   24919897.6484  130954922.678 5 102042828.04241
      3694.737        2879.044
  24404586.833    24404586.2494   24404590.9804  128246975.303 5  99932724.38741
      2192.278        1708.253
  21874200.238    21874199.8934   21874201.7884  114949711.856 7  89571228.59345
      1268.385         988.357
  20412328.412    20412327.7524   20412329.8314  107267547.494 8  83585125.72647
       684.169         533.121
  24538708.245    24538708.6544   24538710.3794  128951786.077 5 100481928.38641
      2940.584        2291.367
  21495025.405    21495024.8034   21495025.2134  112957162.768 8  88018579.92845
     -1419.270       -1105.923
  23081892.951    23081892.2424   23081896.3654  121296168.611 6  94516525.14743
       987.278         769.300
  23247916.924    23247916.5854   23247919.7554  122168645.088 6  95196371.00943
      2887.556        2250.045
  22663287.707    22663287.4594   22663290.1154  119096405.861 7  92802424.21845
     -2559.723       -1994.595
  23019041.856    23019041.8964   23019043.8184  120965899.255 6  94259160.80444
     -3410.518       -2657.542
 08  5 10  0 37 30.0000000  0 12G 3G 6G 7G10G13G16G21G23G24G25G29G31
  24140738.246    24140736.5924   24140741.4384  126860437.731 5  98852311.18142
      3950.484        3078.303
  22203473.941    22203473.6084   22203476.8534  116680071.611 7  90919553.80345
      2665.754        2077.214
  24898810.991    24898810.2504   24898814.7514  130844130.117 5 101956496.21041
      3691.582        2876.568
  24392117.953    24392115.9164   24392121.2344  128181451.061 5  99881666.60041
      2176.044        1695.618
  21867018.937    21867018.9584   21867020.8404  114911975.455 7  89541823.60645
      1247.367         971.976
  20408472.958    20408472.2464   20408474.4404  107247287.510 8  83569338.84147
       666.547         519.387
  24521943.756    24521943.1194   24521946.1494  128863683.837 5 100413277.14942
      2932.937        2285.410
  21503187.064    21503186.6784   21503187.3394  113000054.061 8  88052001.71745
     -1440.128       -1122.171
  23076311.136    23076311.2634   23076315.0034  121266838.716 6  94493670.79743
       968.060         754.332
  23231458.344    23231457.7484   23231460.6274  122082151.171 6  95128973.20043
      2878.726        2243.160
  22677942.004    22677941.5634   22677944.2544  119173414.389 7  92862430.86444
     -2574.153       -2005.830
  23038534.899    23038535.2904   23038537.8784  121068337.466 6  94338982.70444
     -3418.635       -2663.870
 08  5 10  0 38  0.0000000  0 12G 3G 6G 7G10G13G16G21G23G24G25G29G31
  24118196.652    24118195.4704   24118200.8344  126741983.410 5  98760009.26342
      3946.323        3075.033
  22188291.376    22188290.9554   22188294.5464  116600287.333 7  90857383.99945
      2653.004        2067.269
  24877745.687    24877745.1244   24877748.8384  130733429.362 5 101870235.95842
      3688.446        2874.142
  24379740.877    24379739.0194   24379744.3144  128116410.255 5  99830985.44841
      2159.938        1683.087
  21859957.902    21859957.5644   21859959.9024  114874869.607 7  89512909.97945
      1226.319         955.573
  20404718.037    20404717.5344   20404719.8214  107227556.213 8  83553963.70147
       648.851         505.603
  24505221.364    24505221.0724   24505223.9104  128775809.317 5 100344802.91542
      2925.354        2279.547
  21511468.072    21511467.6244   21511467.9914  113043569.632 8  88085909.95345
     -1460.926       -1138.381
  23070839.659    23070838.7384   23070843.5734  121238084.686 6  94471265.09143
       948.838         739.354
  23215048.933    23215048.7154   23215050.9214  121995922.378 6  95061781.97843
      2869.812        2236.211
  22692678.054    22692677.9864   22692680.3614  119250852.565 7  92922772.23444
     -2588.418       -2016.947
  23058074.907    23058074.7574   23058076.2284  121171017.422 6  94418992.92044
     -3426.724       -2670.177
 08  5 10  0 38 30.0000000  0 12G 3G 6G 7G10G13G16G21G23G24G25G29G31
  24095678.603    24095677.9334   24095682.1094  126623650.840 5  98667802.13941
      3942.388        3072.012
  22173181.662    22173181.0094   22173184.6304  116520886.022 7  90795513.07045
      2640.371        2057.434
  24856697.972    24856697.6474   24856700.7014  130622822.641 5 101784048.96942
      3685.303        2871.656
  24367458.045    24367455.7674   24367459.5734  128051855.885 5  99780683.32841
      2143.694        1670.411
  21853017.334    21853017.0764   21853019.1454  114838396.361 7  89484489.28345
      1205.183         939.104
  20401064.321    20401063.6834   20401065.9164  107208354.265 8  83539001.01847
       631.242         491.880
  24488543.997    24488543.4054   24488545.2674  128688166.011 5 100276508.82241
      2917.482        2273.362
  21519867.574    21519866.9244   21519867.1104  113087707.862 8  88120303.40045
     -1481.656       -1154.539
  23065477.846    23065477.1834   23065481.7534  121209908.116 6  94449309.33543
       929.533         724.317
  23198690.872    23198690.8234   23198693.4534  121909960.885 6  94994799.07343
      2860.890        2229.276
  22707495.403    22707495.3394   22707497.7254  119328718.471 7  92983446.93544
     -2602.657       -2028.045
  23077659.898    23077659.8884   23077661.8694  121273936.986 6  94499189.92444
     -3434.633       -2676.333
 08  5 10  0 39  0.0000000  0 12G 3G 6G 7G10G13G16G21G23G24G25G29G31
  24073182.577    24073182.5214   24073186.3394  126505440.618 5  98575690.33841
      3938.263        3068.773
  22158144.786    22158144.2524   22158147.7034  116441866.886 7  90733939.88545
      2627.579        2047.457
  24835667.501    24835667.8294   24835670.1154  130512309.998 5 101697935.25042
      3682.074        2869.147
  24355264.779    24355264.5804   24355269.0434  127987788.032 5  99730760.37341
      2127.429        1657.741
  21846197.037    21846197.0434   21846199.1104  114802555.209 7  89456561.13545
      1184.101         922.674
  20397510.641    20397510.1724   20397512.4254  107189680.729 8  83524450.29847
       613.615         478.136
  24471910.446    24471909.9684   24471912.7694  128600756.336 5 100208397.59941
      2909.664        2267.290
  21528384.381    21528383.9534   21528384.4774  113132465.678 8  88155179.62445
     -1502.271       -1170.599
  23060225.887    23060225.0454   23060229.1904  121182308.442 6  94427803.11443
       910.347         709.367
  23182383.456    23182383.1194   23182386.3374  121824266.623 6  94928024.37343
      2851.972        2222.321
  22722393.210    22722392.9584   22722395.6844  119407008.103 7  93044451.84744
     -2616.715       -2038.994
  23097289.748    23097289.8004   23097292.1064  121377092.356 6  94579570.66344
     -3442.419       -2682.398
 08  5 10  0 39 30.0000000  0 12G 3G 6G 7G10G13G16G21G23G24G25G29G31
  24050712.993    24050713.2224   24050715.9494  126387357.239 5  98483677.35641
      3934.078        3065.512
  22143181.230    22143180.7694   22143184.1704  116363233.253 7  90672666.86645
      2614.720        2037.441
  24814656.642    24814656.5524   24814659.6884  130401894.906 5 101611897.59342
      3678.983        2866.730
  24343167.053    24343166.2514   24343170.4274  127924211.560 5  99681220.33841
      2110.990        1644.932
  21839497.664    21839497.5554   21839499.3264  114767349.285 7  89429127.96445
      1163.025         906.249
  20394058.236    20394057.5594   20394059.7924  107171537.064 8  83510312.41647
       596.004         464.389
  24455321.749    24455321.0234   24455324.4974  128513582.293 5 100140469.91941
      2901.889        2261.195
  21537019.350    21537018.8754   21537019.6624  113177843.280 7  88190538.77745
     -1522.826       -1186.618
  23055083.911    23055083.1874   23055087.8984  121155288.548 6  94406748.75043
       891.057         694.330
  23166128.016    23166127.7674   23166131.0854  121738843.296 6  94861460.77943
      2843.015        2215.334
  22737371.657    22737371.7714   22737374.2154  119485720.371 7  93105786.05944
     -2630.686       -2049.893
  23116964.441    23116964.6174   23116966.1954  121480483.673 6  94660135.18444
     -3450.207       -2688.470
 08  5 10  0 40  0.0000000  0 12G 3G 6G 7G10G13G16G21G23G24G25G29G31
  24028268.712    24028266.4834   24028270.7524  126269401.048 5  98391763.52642
      3929.521        3061.967
  22128291.790    22128291.1824   22128294.0964  116284986.540 7  90611695.53545
      2601.658        2027.264
  24793664.818    24793663.5124   24793667.5464  130291577.790 5 101525936.30941
      3675.424        2863.942
  24331162.226    24331162.0794   24331165.3394  127861127.205 5  99632063.72441
      2094.425        1632.020
  21832919.076    21832918.9384   21832920.3244  114732778.900 7  89402190.01945
      1141.646         889.591
  20390706.214    20390705.5234   20390707.7524  107153922.439 8  83496586.77247
       578.230         450.559
  24438778.765    24438778.4034   24438779.0324  128426645.757 5 100072727.43542
      2893.824        2254.914
  21545772.196    21545771.6214   21545772.6154  113223835.522 8  88226375.84545
     -1543.419       -1202.649
  23050052.701    23050051.8294   23050056.2524  121128848.267 6  94386146.05743
       871.624         679.199
  23149923.623    23149923.4524   23149926.8024  121653691.308 6  94795108.62443
      2833.733        2208.110
  22752430.052    22752429.8974   22752432.3754  119564851.304 7  93167446.40644
     -2644.793       -2060.880
  23136683.846    23136683.7904   23136685.6354  121584107.733 6  94740881.10544
     -3458.112       -2694.636
 08  5 10  0 40 30.0000000  0 12G 3G 6G 7G10G13G16G21G23G24G25G29G31
  24005845.842    24005845.0804   24005849.5334  126151576.974 5  98299952.64142
      3925.108        3058.531
  22113475.939    22113475.5854   22113478.8864  116207130.792 7  90551028.77445
      2588.564        2017.058
  24772690.961    24772690.9844   24772694.1414  130181363.194 5 101440054.84641
      3671.992        2861.251
  24319251.718    24319251.0244   24319255.6484  127798539.771 5  99583294.30741
      2077.771        1619.041
  21826462.015    21826461.8944   21826463.7964  114698847.850 7  89375750.25545
      1120.260         872.929
  20387455.297    20387454.7524   20387456.8904  107136839.453 8  83483275.39047
       560.496         436.749
  24422280.587    24422279.2984   24422282.2064  128339952.071 5 100005174.40542
      2885.697        2248.604
  21554641.951    21554641.2684   21554641.8414  113270448.408 8  88262698.20645
     -1564.149       -1218.833
  23045132.360    23045131.6484   23045135.9714  121102990.952 6  94365997.57143
       852.072         663.942
  23133772.935    23133772.3394   23133775.4914  121568815.132 6  94728971.37043
      2824.469        2200.879
  22767568.256    22767567.8104   22767570.6624  119644401.636 7  93229433.77344
     -2658.729       -2071.746
  23156447.727    23156447.5404   23156448.7534  121687965.540 7  94821809.51044
     -3465.908       -2700.725
 08  5 10  0 41  0.0000000  0 12G 3G 6G 7G10G13G16G21G23G24G25G29G31
  23983449.129    23983448.9914   23983453.2834  126033889.025 5  98208247.81642
      3920.785        3055.137
  22098735.192    22098734.8364   22098738.2014  116129669.007 7  90490669.04545
      2575.545        2006.916
  24751737.742    24751737.2284   24751740.6354  130071253.841 5 101354255.37641
      3668.630        2858.678
  24307436.833    24307436.1414   24307440.4124  127736451.818 5  99534914.11741
      2061.341        1606.226
  21820126.916    21820126.9664   21820129.3204  114665558.368 7  89349810.41545
      1099.037         856.394
  20384305.899    20384305.2774   20384307.5364  107120289.065 8  83470378.91747
       542.896         423.035
  24405829.534    24405829.2954   24405831.5914  128253503.722 5  99937812.26142
      2877.545        2242.225
  21563629.035    21563628.5794   21563629.0134  113317677.667 8  88299500.52945
     -1584.507       -1234.687
  23040323.551    23040322.8674   23040326.9584  121077718.624 6  94346304.89543
       832.737         648.877
  23117674.795    23117674.5154   23117677.5524  121484217.722 7  94663051.32344
      2815.357        2193.782
  22782785.479    22782785.2344   22782787.9384  119724369.333 7  93291746.29644
     -2672.439       -2082.422
  23176255.004    23176254.8904   23176256.5314  121792055.089 6  94902918.24344
     -3473.384       -2706.521
 08  5 10  0 41 30.0000000  0 12G 3G 6G 7G10G13G16G21G23G24G25G29G31
  23961079.621    23961080.0044   23961085.0274  125916336.890 5  98116648.79942
      3916.138        3051.561
  22084069.954    22084069.3984   22084072.5924  116052600.808 7  90430615.89445
      2562.242        1996.556
  24730803.926    24730803.6894   24730806.4984  129961250.073 5 101268538.25341
      3664.965        2855.833
  24295717.239    24295716.7254   24295720.5124  127674864.370 5  99486923.89341
      2044.458        1593.104
  21813914.193    21813913.9054   21813916.5934  114632909.825 7  89324370.00645
      1077.496         839.610
  20381257.528    20381256.9574   20381259.1704  107104269.448 8  83457896.01447
       525.043         409.134
  24389426.373    24389425.4484   24389428.0524  128167301.826 5  99870642.07042
      2869.167        2235.676
  21572733.145    21572732.8154   21572733.2314  113365519.821 8  88336780.20645
     -1605.050       -1250.681
  23035624.996    23035624.6704   23035628.3904  121053030.319 6  94327067.28943
       813.103         633.596
  23101628.803    23101628.2504   23101631.6614  121399898.781 7  94597348.28744
      2805.829        2186.359
  22798081.140    22798080.7954   22798083.6524  119804750.407 6  93354381.09244
     -2686.316       -2093.242
  23196106.160    23196105.8564   23196107.5104  121896372.516 7  94984204.43344
     -3481.112       -2712.551
 08  5 10  0 42  0.0000000  0 12G 3G 6G 7G10G13G16G21G23G24G25G29G31
  23938738.069    23938737.6084   23938740.8234  125798924.284 5  98025158.51641
      3911.422        3047.895
  22069479.827    22069479.4554   22069482.4624  115975929.490 7  90370871.94645
      2549.078        1986.305
  24709891.695    24709891.2614   24709894.7524  129851354.869 5 101182905.63041
      3661.255        2852.959
  24284094.062    24284091.9054   24284095.1634  127613781.361 5  99439326.76841
      2027.733        1580.036
  21807823.825    21807823.6584   21807825.7294  114600904.705 7  89299430.96645
      1056.078         822.929
  20378310.531    20378309.9164   20378312.1124  107088782.514 8  83445828.29047
       507.336         395.332
  24373070.050    24373069.5414   24373072.1574  128081349.891 5  99803666.60241
      2860.904        2229.279
  21581953.791    21581953.4574   21581954.1444  113413973.603 7  88374535.91245
     -1624.947       -1266.103
  23031038.128    23031037.8324   23031040.9364  121028928.302 6  94308286.56543
       793.584         618.387
  23085637.598    23085636.7294   23085640.0994  121315861.536 6  94531864.75544
      2796.517        2179.115
  22813455.506    22813455.3304   22813457.4404  119885542.698 7  93417335.94144
     -2699.912       -2103.804
  23215999.808    23215999.8964   23216002.2074  122000917.724 6  95065668.30844
     -3488.625       -2718.411
 08  5 10  0 42 30.0000000  0 12G 3G 6G 7G10G13G16G21G23G24G25G29G31
  23916421.960    23916421.7324   23916425.0974  125681653.393 5  97933778.62842
      3906.752        3044.243
  22054965.606    22054965.2034   22054968.5584  115899656.625 7  90311438.44945
      2535.844        1975.985
  24688999.274    24688999.8074   24689003.5874  129741569.718 5 101097358.82041
      3657.765        2850.210
  24272567.551    24272565.7694   24272569.7224  127553204.475 5  99392124.02441
      2010.903        1566.921
  21801856.575    21801856.3254   21801857.7984  114569543.800 7  89274993.90145
      1034.708         806.266
  20375464.652    20375464.1094   20375466.2784  107073827.658 9  83434175.11247
       489.722         381.602
  24356761.565    24356761.2944   24356763.5284  127995650.175 5  99736887.63942
      2852.523        2222.731
  21591290.328    21591290.1064   21591290.9434  113463038.758 8  88412768.54545
     -1645.465       -1282.157
  23026563.542    23026563.0914   23026566.3124  121005412.992 6  94289962.91843
       774.111         603.198
  23069699.459    23069699.0794   23069701.5794  121232107.375 7  94466601.79144
      2787.212        2171.858
  22828908.248    22828907.7554   22828909.9324  119966743.092 7  93480608.35044
     -2713.293       -2114.210
  23235937.023    23235936.8154   23235938.7764  122105687.901 6  95147307.37844
     -3496.007       -2724.158
 08  5 10  0 43  0.0000000  0 12G 3G 6G 7G10G13G16G21G23G24G25G29G31
  23894132.417    23894131.9654   23894136.4464  125564524.732 5  97842509.64042
      3901.902        3040.432
  22040527.606    22040526.8824   22040530.2024  115823782.661 7  90252316.03545
      2522.417        1965.515
  24668128.792    24668129.7624   24668132.9264  129631894.554 5 101011897.70041
      3653.930        2847.214
  24261134.934    24261132.8884   24261138.2764  127493133.909 5  99345315.80141
      1993.833        1553.641
  21796011.175    21796011.0694   21796012.5794  114538826.527 7  89251058.36245
      1013.143         789.458
  20372719.744    20372719.1584   20372721.3664  107059403.614 8  83422935.74547
       471.909         367.716
  24340501.460    24340500.8914   24340503.8964  127910203.177 5  99670305.64042
      2843.961        2216.071
  21600742.801    21600742.3644   21600742.8134  113512711.639 7  88451475.11845
     -1665.887       -1298.103
  23022200.109    23022199.2064   23022203.5654  120982483.333 6  94272095.50743
       754.547         587.972
  23053815.342    23053815.2054   23053818.2544  121148636.405 6  94401559.51944
      2777.585        2164.340
  22844438.078    22844437.3724   22844439.5704  120048347.042 7  93544194.60044
     -2726.879       -2124.798
  23255916.696    23255916.9284   23255917.6834  122210679.310 6  95229118.79544
     -3503.390       -2729.919
 08  5 10  0 43 30.0000000  0 12G 3G 6G 7G10G13G16G21G23G24G25G29G31
  23871871.367    23871871.0754   23871874.9324  125447541.259 5  97751353.75142
      3897.017        3036.646
  22026165.180    22026164.8234   22026168.0864  115748309.942 7  90193506.15545
      2509.046        1955.100
  24647279.897    24647280.6164   24647283.8974  129522332.423 5 100926524.66641
      3650.199        2844.293
  24249800.066    24249800.2284   24249803.3614  127433572.300 5  99298904.19741
      1977.021        1540.517
  21790288.439    21790288.2384   21790290.5774  114508755.377 7  89227626.30545
       991.576         772.654
  20370076.198    20370075.5334   20370077.6474  107045511.119 8  83412110.50847
       454.244         353.961
  24324291.474    24324290.4634   24324291.9384  127825012.943 6  99603923.72442
      2835.341        2209.345
  21610310.723    21610310.1804   21610310.2154  113562990.188 8  88490653.36145
     -1686.019       -1313.785
  23017948.954    23017948.6164   23017952.9734  120960139.841 6  94254683.97243
       734.977         572.738
  23037986.091    23037985.7834   23037988.4014  121065451.285 6  94336739.96844
      2768.064        2156.935
  22860043.058    22860043.1724   22860046.2094  120130359.020 6  93608101.26344
     -2740.352       -2135.353
  23275937.573    23275937.3754   23275939.3894  122315891.073 6  95311101.92444
     -3510.677       -2735.594
 08  5 10  0 44  0.0000000  0 12G 3G 6G 7G10G13G16G21G23G24G25G29G31
  23849639.875    23849639.0814   23849642.5374  125330705.332 5  97660312.81642
      3891.991        3032.733
  22011879.853    22011879.3284   22011882.6774  115673239.796 7  90135009.83345
      2495.617        1944.638
  24626453.217    24626453.0594   24626455.7184  129412884.807 5 100841240.85541
      3646.297        2841.279
  24238563.896    24238562.6794   24238567.9264  127374522.428 5  99252891.31941
      1959.743        1527.049
  21784689.206    21784688.8624   21784691.4554  114479330.857 7  89204698.13045
       970.016         755.858
  20367533.459    20367532.8434   20367535.0594  107032149.950 8  83401699.24147
       436.521         340.150
  24308128.893    24308127.6604   24308129.6184  127740081.287 5  99537743.26042
      2826.692        2202.631
  21619993.384    21619992.7154   21619992.6594  113613872.264 8  88530301.76345
     -1706.138       -1329.459
  23013809.394    23013809.0314   23013813.6054  120938388.005 6  94237735.02043
       715.228         557.297
  23022211.180    23022210.6884   23022213.3404  120982553.662 6  94272144.43244
      2758.440        2149.428
  22875725.322    22875725.1634   22875727.5404  120212768.843 6  93672316.72444
     -2753.616       -2145.658
  23296000.330    23296000.5444   23296001.9444  122421321.100 6  95393255.24744
     -3517.943       -2741.257
 08  5 10  0 44 30.0000000  0 12G 3G 6G 7G10G13G16G21G23G24G25G29G31
  23827433.857    23827434.1234   23827437.0534  125214019.962 6  97569389.01342
      3887.010        3028.836
  21997671.710    21997671.2094   21997674.7644  115598575.489 7  90076829.84545
      2482.004        1934.024
  24605648.069    24605647.8714   24605651.2274  129303554.352 4 100756048.33541
      3642.337        2838.185
  24227426.202    24227424.7574   24227428.5984  127315986.755 5  99207279.07141
      1942.470        1513.653
  21779213.254    21779213.3034   21779215.3454  114450555.163 7  89182275.48845
       948.293         738.936
  20365092.512    20365091.8234   20365093.9984  107019319.669 8  83391700.95847
       418.875         326.494
  24292017.265    24292015.6104   24292018.6694  127655411.097 5  99471766.45342
      2817.906        2195.779
  21629790.367    21629789.8144   21629789.8214  113665356.997 8  88570419.66845
     -1726.219       -1345.105
  23009782.525    23009781.9504   23009786.2194  120917224.575 6  94221243.82643
       695.634         542.105
  23006491.404    23006490.8244   23006494.0874  120899946.197 6  94207774.95044
      2748.670        2141.812
  22891483.177    22891482.9234   22891486.6784  120295576.893 7  93736842.11244
     -2766.946       -2156.050
  23316104.740    23316104.3884   23316106.1754  122526967.628 6  95475577.06744
     -3525.195       -2746.912
 08  5 10  0 45  0.0000000  0 12G 3G 6G 7G10G13G16G21G23G24G25G29G31
  23805259.567    23805258.8064   23805261.6614  125097487.510 5  97478584.51642
      3881.842        3024.869
  21983540.734    21983540.3694   21983543.7254  115524318.783 7  90018967.67145
      2468.445        1923.493
  24584866.245    24584865.7284   24584868.6604  129194343.319 4 100670949.07241
      3638.361        2835.119
  24216384.072    24216383.8434   24216387.7174  127257967.627 5  99162069.43441
      1925.384        1500.343
  21773861.578    21773861.2214   21773862.6184  114422429.555 7  89160359.46645
       926.690         722.137
  20362752.430    20362751.7524   20362754.0164  107007023.746 7  83382120.07046
       401.112         312.573
  24275953.942    24275952.7854   24275955.5054  127571005.320 5  99405995.79342
      2809.140        2188.975
  21639701.912    21639701.4904   21639701.4804  113717442.943 8  88611006.09245
     -1746.196       -1360.636
  23005868.055    23005867.2414   23005871.5974  120896651.597 6  94205212.42543
       675.897         526.706
  22990826.982    22990826.5184   22990829.7134  120817630.671 6  94143633.05544
      2738.968        2134.294
  22907316.920    22907316.8054   22907318.9564  120378781.891 7  93801677.19044
     -2780.069       -2166.259
  23336248.805    23336248.8254   23336249.7734  122632829.122 6  95558066.58744
     -3532.294       -2752.408
 08  5 10  0 45 30.0000000  0 12G 3G 6G 7G10G13G16G21G23G24G25G29G31
  23783112.112    23783112.1144   23783116.8464  124981110.695 5  97387901.20242
      3876.702        3020.800
  21969487.828    21969487.4014   21969490.8474  115450471.561 7  89961424.48545
      2454.739        1912.783
  24564107.662    24564106.9094   24564109.6174  129085253.563 5 100585944.07942
      3634.295        2831.930
  24205443.322    24205441.1864   24205446.4974  127200467.559 5  99117264.19141
      1908.009        1486.763
  21768633.014    21768632.8644   21768634.6904  114394955.279 7  89138950.92845
       904.902         705.120
  20360513.559    20360512.9874   20360515.1944  106995260.608 8  83372954.39147
       383.215         298.622
  24259942.854    24259942.4014   24259944.5504  127486866.949 5  99340433.52642
      2800.094        2181.901
  21649727.613    21649727.2344   21649727.5304  113770128.572 7  88652059.79945
     -1766.204       -1376.259
  23002066.002    23002065.4064   23002069.5554  120876671.986 6  94189643.98643
       656.095         511.253
  22975219.137    22975218.5564   22975221.2944  120735609.342 7  94079720.34044
      2729.045        2126.528
  22923224.783    22923224.8834   22923228.0124  120462380.995 6  93866819.44544
     -2793.180       -2176.501
  23356434.855    23356434.2714   23356435.3114  122738903.754 6  95640722.19444
     -3539.373       -2757.952
 08  5 10  0 46  0.0000000  0 12G 3G 6G 7G10G13G16G21G23G24G25G29G31
  23760996.975    23760996.5404   23761001.5744  124864892.785 5  97297341.82542
      3871.202        3016.535
  21955514.044    21955513.3284   21955516.5114  115377036.172 7  89904202.19145
      2440.922        1902.015
  24543370.721    24543371.7684   24543374.8234  128976288.086 5 100501036.03842
      3630.040        2828.592
  24194599.003    24194598.0594   24194604.2324  127143489.226 5  99072865.51141
      1890.559        1473.171
  21763528.626    21763528.5494   21763531.2314  114368134.259 7  89118051.44645
       883.144         688.161
  20358376.346    20358375.8154   20358377.9874  106984030.377 8  83364203.67147
       365.438         284.752
  24243984.521    24243983.9924   24243985.1684  127402998.924 6  99275081.88142
      2791.119        2174.908
  21659867.342    21659866.8034   21659867.4384  113823412.386 8  88693579.63245
     -1786.094       -1391.764
  22998376.379    22998376.0984   22998380.5774  120857286.033 6  94174538.21143
       636.235         495.749
  22959667.298    22959666.6724   22959669.9344  120653884.709 6  94016038.81244
      2719.174        2118.832
  22939208.093    22939207.9624   22939210.1434  120546371.788 7  93932266.85444
     -2806.167       -2186.625
  23376659.175    23376659.4124   23376661.3224  122845190.345 6  95723542.95343
     -3546.430       -2763.455
 08  5 10  0 46 30.0000000  0 12G 3G 6G 7G10G13G16G21G23G24G25G29G31
  23738912.418    23738912.5964   23738916.9474  124748836.082 6  97206908.20942
      3865.919        3012.407
  21941618.520    21941618.0104   21941620.8474  115304014.951 7  89847302.62845
      2427.175        1891.303
  24522660.126    24522660.2664   24522662.4234  128867448.427 5 100416225.98942
      3625.894        2825.367
  24183856.852    24183855.9584   24183861.2764  127087034.914 5  99028875.18841
      1873.150        1459.600
  21758549.855    21758549.4554   21758552.0474  114341967.277 7  89097661.61445
       861.355         671.189
  20356340.801    20356340.3094   20356342.3514  106973333.697 8  83355868.71647
       347.717         270.946
  24228075.669    24228075.0184   24228077.5724  127319403.544 5  99209942.73342
      2781.986        2167.775
  21670120.458    21670120.0004   21670120.4204  113877292.521 7  88735564.10145
     -1805.879       -1407.177
  22994800.269    22994799.5704   22994804.2014  120838494.379 6  94159895.56743
       616.548         480.405
  22944172.070    22944171.6884   22944175.4554  120572458.519 6  93952589.84244
      2709.273        2111.130
  22955264.490    22955264.4884   22955267.9194  120630751.947 6  93998017.59544
     -2819.039       -2196.648
  23396925.029    23396924.9954   23396927.5114  122951686.783 6  95806527.25044
     -3553.281       -2768.796
 08  5 10  0 47  0.0000000  0 12G 3G 6G 7G10G13G16G21G23G24G25G29G31
  23716858.973    23716858.1424   23716861.7334  124632942.441 6  97116601.56342
      3860.339        3008.071
  21927802.064    21927801.7084   21927804.5324  115231408.756 7  89790726.38045
      2413.198        1880.419
  24501973.063    24501972.3164   24501975.5914  128758736.494 5 100331515.44742
      3621.506        2821.953
  24173213.221    24173211.8914   24173218.0824  127031106.318 4  98985294.51941
      1855.418        1445.744
  21753695.160    21753695.0734   21753697.1364  114316455.303 7  89077782.16645
       839.489         654.149
  20354406.680    20354406.1944   20354408.2824  106963170.134 8  83347949.06847
       329.883         257.052
  24212221.322    24212219.9694   24212221.9414  127236083.143 6  99145017.82842
      2772.686        2160.535
  21680486.706    21680486.1234   21680486.2364  113931766.624 8  88778011.37545
     -1825.727       -1422.640
  22991337.805    22991337.0034   22991341.3704  120820296.472 6  94145715.09443
       596.641         464.926
  22928734.787    22928733.9444   22928737.5134  120491332.444 6  93889374.75344
      2699.117        2103.207
  22971395.563    22971395.7684   22971397.8324  120715518.818 7  94064069.56844
     -2832.006       -2206.749
  23417230.785    23417230.9944   23417232.1874  123058390.701 6  95889673.17144
     -3560.241       -2774.214
 08  5 10  0 47 30.0000000  0 13G 3G 6G 7G10G13G16G21G23G24G25G27G29
                                G31
  23694836.596    23694836.8894   23694839.2294  124517215.596 6  97026424.85042
      3854.812        3003.757
  21914065.055    21914064.6554   21914067.6954  115159221.105 7  89734476.23245
      2399.258        1869.552
  24481311.148    24481309.9364   24481313.5104  128650155.755 5 100246907.10442
      3617.115        2818.526
  24162672.257    24162670.8604   24162674.1624  126975706.693 4  98942126.02241
      1837.792        1432.072
  21748965.279    21748965.3204   21748966.8084  114291600.841 7  89058415.05845
       817.548         637.048
  20352574.419    20352573.8564   20352575.9884  106953541.327 8  83340446.13847
       312.097         243.191
  24196417.775    24196416.7384   24196420.1924  127153041.635 5  99080310.25342
      2763.440        2153.341
  21690965.110    21690965.0454   21690965.3844  113986834.222 7  88820921.17945
     -1845.418       -1437.983
  22987988.351    22987987.9904   22987992.2654  120802696.247 6  94132000.62443
       576.753         449.408
  22913354.545    22913354.2754   22913356.8424  120410509.863 7  93826396.12344
      2689.042        2095.359
  25279670.995                                   132845573.271 4
      3264.806
  22987598.911    22987598.9604   22987602.4314  120800671.844 6  94130422.58144
     -2844.790       -2216.707
  23437574.957    23437574.7314   23437576.5774  123165301.604 6  95972980.30943
     -3567.092       -2779.555
 08  5 10  0 48  0.0000000  0 13G 3G 6G 7G10G13G16G21G23G24G25G27G29
                                G31
  23672844.702    23672845.2834   23672849.5314  124401656.856 5  96936379.05142
      3849.245        2999.427
  21900408.138    21900407.6124   21900410.5734  115087452.779 7  89678552.86245
      2385.315        1858.689
  24460673.364    24460673.0244   24460675.7894  128541706.745 5 100162401.44141
      3612.788        2815.184
  24152230.117    24152229.9194   24152233.1524  126920837.579 5  98899370.96341
      1820.247        1418.384
  21744360.636    21744360.1904   21744362.5174  114267403.814 7  89039560.23945
       795.661         620.000
  20350843.612    20350843.0184   20350845.0714  106944446.675 8  83333359.59347
       294.326         229.334
  24180671.101    24180670.1934   24180671.2074  127070280.789 6  99015821.33542
      2754.041        2145.992
  21701557.113    21701556.5554   21701556.9204  114042492.398 7  88864291.16445
     -1865.030       -1453.267
  22984752.375    22984752.2064   22984756.2774  120785692.491 6  94118750.91843
       556.851         433.919
  22898032.027    22898031.7304   22898034.6214  120329991.537 7  93763654.61644
      2678.905        2087.453
  25261041.630    25261040.5884   25261044.5944  132747668.691 4 103439760.08241
      3262.319        2542.073
  23003876.040    23003875.8164   23003878.1714  120886207.044 6  94197073.51144
     -2857.483       -2226.623
  23457958.772    23457958.1064   23457959.5914  123272417.099 6  96056447.09043
     -3573.887       -2784.845
 08  5 10  0 48 30.0000000  0 13G 3G 6G 7G10G13G16G21G23G24G25G27G29
                                G31
  23650889.089    23650888.2154   23650892.8834  124286267.627 6  96846465.41442
      3843.313        2994.788
  21886830.636    21886830.3514   21886833.4724  115016104.152 7  89622956.49245
      2371.206        1847.699
  24440061.206    24440060.7444   24440063.9574  128433390.258 5 100077999.06541
      3608.285        2811.639
  24141891.122    24141890.3474   24141893.6494  126866499.475 5  98857029.58741
      1802.316        1404.419
  21739880.799    21739880.8964   21739883.3594  114243863.773 7  89021217.37245
       773.616         602.828
  20349214.194    20349213.6154   20349215.6844  106935883.630 8  83326687.02947
       276.568         215.525
  24164974.434    24164973.9454   24164975.4704  126987801.229 6  98951551.52642
      2744.562        2138.623
  21712260.040    21712259.7554   21712259.8624  114098737.518 7  88908118.44145
     -1884.658       -1468.559
  22981630.787    22981630.1634   22981634.0264  120769285.170 6  94105966.33043
       536.934         418.386
  22882768.366    22882767.9974   22882770.7484  120249777.900 7  93701150.52344
      2668.598        2079.432
  25242423.195    25242422.1354   25242425.1804  132649833.800 4 103363525.11441
      3260.079        2540.338
  23020225.707    23020225.2454   23020228.1064  120972120.346 6  94264019.03544
     -2870.088       -2236.419
  23478379.960    23478380.0294   23478380.8474  123379733.019 6  96140069.95743
     -3580.603       -2790.073
 08  5 10  0 49  0.0000000  0 13G 3G 6G 7G10G13G16G21G23G24G25G27G29
                                G31
  23628964.580    23628963.4314   23628966.7934  124171051.761 6  96756686.86842
      3837.505        2990.246
  21873334.199    21873333.6064   21873336.8654  114945178.351 7  89567689.52945
      2357.051        1836.662
  24419475.328    24419475.0134   24419477.8974  128325210.148 5  99993702.94942
      3603.756        2808.110
  24131651.945    24131650.7334   24131654.8154  126812696.239 5  98815105.00442
      1784.480        1390.529
  21735527.091    21735527.0634   21735529.5194  114220983.560 7  89003388.65945
       751.650         585.704
  20347686.339    20347685.7174   20347687.8714  106927854.721 8  83320430.75447
       258.714         201.586
  24149333.612    24149332.0614   24149333.9654  126905607.007 6  98887504.12542
      2735.026        2131.202
  21723074.928    21723074.3964   21723074.6734  114155569.488 7  88952403.06845
     -1904.192       -1483.790
  22978621.998    22978621.2534   22978625.1204  120753476.055 6  94093647.82643
       517.003         402.836
  22867562.923    22867562.7314   22867565.1614  120169872.412 7  93638886.51544
      2658.359        2071.448
  25223820.157    25223819.7424   25223825.2004  132552072.080 4 103287347.16541
      3257.500        2538.308
  23036645.446    23036645.1454   23036648.0574  121058410.772 6  94331258.33744
     -2882.641       -2246.213
  23498839.771    23498839.8154   23498841.4694  123487249.141 6  96223848.76443
     -3587.227       -2795.252
 08  5 10  0 49 30.0000000  0 13G 3G 6G 7G10G13G16G21G23G24G25G27G29
                                G31
  23607072.728    23607072.0294   23607076.4614  124056012.324 5  96667045.70542
      3831.734        2985.763
  21859918.639    21859918.0384   21859921.0794  114874678.423 7  89512754.38145
      2342.867        1825.609
  24398916.477    24398916.4464   24398918.8094  128217169.221 6  99909515.26242
      3599.049        2804.457
  24121516.642    24121515.5774   24121518.6084  126759430.266 6  98773599.04041
      1766.594        1376.584
  21731299.103    21731299.0224   21731301.1684  114198764.826 7  88986075.37245
       729.607         568.526
  20346260.245    20346259.6744   20346261.7764  106920360.631 8  83314591.18247
       240.952         187.760
  24133747.119    24133746.2754   24133747.8514  126823701.477 6  98823681.58942
      2725.405        2123.664
  21734000.996    21734000.5074   21734000.8584  114212987.004 7  88997143.98245
     -1923.607       -1498.911
  22975727.510    22975726.8264   22975730.3364  120738266.718 6  94081796.76443
       497.009         387.279
  22852416.226    22852415.6954   22852418.7364  120090277.826 7  93576864.79344
      2647.966        2063.341
  25205231.779    25205230.3984   25205236.0904  132454385.834 5 103211228.00241
      3254.912        2536.257
  23053138.433    23053138.2774   23053140.2374  121145076.735 7  94398790.21044
     -2895.123       -2255.961
  23519336.481    23519336.4964   23519338.9204  123594964.143 6  96307782.49444
     -3593.808       -2800.384
 08  5 10  0 50  0.0000000  0 13G 3G 6G 7G10G13G16G21G23G24G25G27G29
                                G31
  23585215.295    23585213.6664   23585217.8004  123941149.921 6  96577542.60542
      3825.792        2981.137
  21846583.940    21846583.4854   21846586.3774  114804604.612 7  89458151.65745
      2328.772        1814.617
  24378381.906    24378382.6104   24378385.5124  128109266.947 5  99825435.58143
      3594.376        2800.813
  24111481.707    24111481.3204   24111484.3614  126706702.110 5  98732512.13541
      1748.564        1362.501
  21727196.465    21727196.2944   21727198.5374  114177206.261 7  88969276.50045
       707.642         551.409
  20344935.473    20344934.9464   20344937.0224  106913399.091 8  83309166.59447
       223.202         173.924
  24118216.201    24118216.0234   24118217.3594  126742085.363 6  98760084.64942
      2715.686        2116.124
  21745038.300    21745037.5774   21745037.7054  114270986.055 8  89042338.06745
     -1942.938       -1513.983
  22972946.859    22972946.6754   22972949.7914  120723653.449 6  94070409.12543
       477.241         371.931
  22837328.772    22837328.7734   22837331.6174  120010993.846 6  93515085.09744
      2637.622        2055.288
  25186657.071    25186656.5404   25186659.5974  132356774.443 5 103135167.26141
      3252.512        2534.406
  23069699.321    23069699.3114   23069702.7464  121232114.082 6  94466611.61644
     -2907.348       -2265.477
  23539870.934    23539871.3504   23539873.5394  123702874.133 6  96391868.12443
     -3600.216       -2805.350
 08  5 10  0 50 30.0000000  0 13G 3G 6G 7G10G13G16G21G23G24G25G27G29
                                G31
  23563391.699    23563390.5164   23563394.0884  123826466.744 5  96488179.21842
      3819.559        2976.287
  21833330.350    21833329.9324   21833332.8924  114734958.093 7  89403881.78445
      2314.375        1803.416
  24357875.434    24357876.1624   24357879.8924  128001506.143 5  99741466.19942
      3589.538        2797.044
  24101551.284    24101549.2434   24101553.9344  126654514.117 5  98691846.15741
      1730.453        1348.419
  21723219.982    21723219.9094   21723221.8404  114156309.056 7  88952992.96445
       685.432         534.114
  20343712.294    20343711.6444   20343713.6744  106906970.290 8  83304157.07847
       205.402         160.070
  24102740.292    24102739.7474   24102742.2564  126660761.251 5  98696715.26742
      2705.827        2108.446
  21756185.041    21756184.6224   21756184.7924  114329564.703 8  89087983.78645
     -1962.308       -1529.062
  22970280.636    22970280.0804   22970284.0374  120709641.274 6  94059490.62543
       456.975         356.070
  22822301.817    22822301.3774   22822303.4854  119932022.808 7  93453549.22944
      2627.066        2047.080
  25168096.110    25168095.6774   25168099.7114  132259239.919 5 103059166.43141
      3249.774        2532.294
  23086332.950    23086333.1574   23086335.3224  121319519.774 6  94534719.91444
     -2919.708       -2275.082
  23560443.039    23560442.6844   23560444.4124  123810977.396 6  96476104.40143
     -3606.719       -2810.418
 08  5 10  0 51  0.0000000  0 13G 3G 6G 7G10G13G16G21G23G24G25G27G29
                                G31
  23541602.167    23541601.9844   23541604.8894  123711964.936 5  96398957.09042
      3813.635        2971.670
  21820158.500    21820157.8114   21820161.1284  114665739.933 7  89349945.59545
      2300.159        1792.334
  24337397.224    24337398.1624   24337400.4014  127893887.909 5  99657607.88242
      3584.920        2793.416
  24091723.035    24091722.5354   24091726.9524  126602866.574 5  98651601.27841
      1712.564        1334.489
  21719369.428    21719369.3704   21719371.3234  114136073.502 7  88937225.00245
       663.484         517.000
  20342590.088    20342589.5304   20342591.6464  106901073.640 8  83299562.24647
       187.670         146.234
  24087321.844    24087320.9014   24087322.0894  126579730.810 6  98633574.71442
      2696.067        2100.831
  21767442.056    21767441.6364   21767441.7874  114388719.973 7  89134078.76345
     -1981.405       -1543.954
  22967728.506    22967727.8274   22967731.0394  120696228.418 6  94049039.41443
       437.122         340.608
  22807333.134    22807332.8804   22807335.6554  119853365.505 7  93392257.81044
      2616.696        2038.986
  25149551.201    25149550.8254   25149555.4634  132161782.838 5 102983225.96241
      3247.214        2530.281
  23103036.226    23103035.5484   23103038.2244  121407290.607 7  94603112.40244
     -2931.761       -2284.472
  23581051.569    23581050.8684   23581052.4534  123919271.481 6  96560489.40443
     -3612.972       -2815.304
 08  5 10  0 51 30.0000000  0 13G 3G 6G 7G10G13G16G21G23G24G25G27G29
                                G31
  23519848.329    23519847.9854   23519851.8694  123597647.750 6  96309878.81842
      3807.421        2966.812
  21807068.620    21807068.1764   21807071.5564  114596953.238 7  89296345.55545
      2285.645        1781.018
  24316945.954    24316944.9894   24316947.8674  127786415.503 5  99573863.21841
      3580.024        2789.612
  24081996.292    24081995.7284   24082001.3114  126551763.453 4  98611780.71341
      1694.432        1320.314
  21715645.335    21715645.1174   21715647.2054  114116501.631 8  88921974.21045
       641.314         499.721
  20341569.563    20341568.9734   20341571.0624  106895710.018 8  83295382.65247
       169.906         132.394
  24071957.839    24071956.8124   24071958.4524  126498998.056 6  98570666.11142
      2686.125        2093.062
  21778808.364    21778808.0174   21778808.5534  114448451.196 7  89180622.56445
     -2000.621       -1558.919
  22965290.073    22965289.2384   22965292.0014  120683415.364 6  94039055.14143
       417.116         325.044
  22792426.146    22792425.4854   22792428.3944  119775025.438 7  93331213.59044
      2606.028        2030.671
  25131021.065    25131020.0584   25131024.8944  132064406.188 5 102907348.16241
      3244.562        2528.234
  23119806.730    23119806.6294   23119809.7154  121495426.662 6  94671789.95744
     -2943.910       -2293.961
  23601694.181    23601694.3104   23601696.4824  124027755.944 6  96645022.76143
     -3619.252       -2820.188
 08  5 10  0 52  0.0000000  0 13G 3G 6G 7G10G13G16G21G23G24G25G27G29
                                G31
  23498130.377    23498129.5904   23498133.3904  123483519.442 6  96220947.65842
      3801.037        2961.857
  21794061.387    21794061.2944   21794064.6624  114528601.316 7  89243084.33045
      2271.001        1769.614
  24296523.223    24296523.2334   24296525.8024  127679092.748 5  99490235.18841
      3574.810        2785.554
  24072377.677    24072376.3004   24072380.5024  126501208.238 5  98572387.15041
      1675.923        1305.893
  21712047.136    21712047.0564   21712049.4074  114097595.739 7  88907242.36045
       618.946         482.295
  20340650.887    20340650.2064   20340652.3144  106890881.181 8  83291619.81647
       151.914         118.373
  24056652.358    24056651.5284   24056653.5974  126418566.870 6  98507992.48042
      2675.837        2085.075
  21790284.311    21790283.8264   21790284.3864  114508757.672 7  89227614.57245
     -2019.907       -1573.950
  22962966.136    22962965.3234   22962969.6174  120671204.924 6  94029540.17743
       396.850         309.242
  22777578.951    22777578.7824   22777581.8044  119697006.030 7  93270419.25844
      2595.165        2022.210
  25112506.523    25112506.8204   25112509.7044  131967112.919 5 102831535.30141
      3241.580        2525.875
  23136648.519    23136648.4184   23136650.8714  121583926.014 6  94740750.65844
     -2956.122       -2303.482
  23622374.016    23622374.3534   23622376.2834  124136429.495 6  96729703.48043
     -3625.707       -2825.223
 08  5 10  0 52 30.0000000  0 13G 3G 6G 7G10G13G16G21G23G24G25G27G29
                                G31
  23476450.308    23476449.4324   23476452.5764  123369582.862 6  96132165.82042
      3794.544        2956.787
  21781137.970    21781137.6224   21781140.6944  114460686.541 7  89190163.73845
      2256.377        1758.217
  24276129.119    24276129.1074   24276130.4884  127571922.251 6  99406725.74342
      3569.742        2781.598
  24062861.504    24062861.5074   24062865.4064  126451203.367 5  98533422.32741
      1657.475        1291.550
  21708576.302    21708576.1184   21708578.4484  114079357.499 7  88893030.76145
       596.696         464.964
  20339833.794    20339833.2654   20339835.4034  106886588.035 8  83288274.50147
       134.081         104.480
  24041403.929    24041403.1184   24041405.1664  126338440.086 6  98445556.08142
      2665.720        2077.181
  21801869.713    21801869.2164   21801869.6284  114569638.118 8  89275053.85045
     -2038.982       -1588.819
  22960757.703    22960757.1634   22960761.5404  120659599.305 6  94020496.76743
       376.724         293.571
  22762794.336    22762793.8494   22762796.1924  119619309.670 7  93209876.63944
      2584.407        2013.825
  25094008.522    25094008.6944   25094011.8674  131869905.422 5 102755789.28441
      3238.807        2523.791
  23153557.037    23153556.9824   23153559.7134  121672786.400 6  94809992.49944
     -2968.088       -2312.798
  23643090.560    23643089.7874   23643091.6434  124245291.542 6  96814531.03143
     -3631.982       -2830.114
 08  5 10  0 53  0.0000000  0 13G 3G 6G 7G10G13G16G21G23G24G25G27G29
                                G31
  23454804.918    23454804.3094   23454807.0094  123255839.659 6  96043534.51942
      3788.217        2951.873
  21768298.376    21768297.5324   21768300.4884  114393210.108 7  89137584.69245
      2241.905        1746.939
  24255764.220    24255764.5594   24255767.0244  127464905.143 5  99323335.85342
      3564.713        2777.691
  24053451.802    24053451.1794   24053455.5594  126401749.915 5  98494887.24042
      1639.345        1277.411
  21705233.235    21705233.1614   21705234.9464  114061786.916 7  88879339.41045
       574.570         447.713
  20339118.637    20339118.0624   20339120.2484  106882829.559 8  83285345.78347
       116.398          90.704
  24026215.029    24026214.1414   24026216.2904  126258619.936 6  98383358.63242
      2655.569        2069.269
  21813563.338    21813562.9794   21813563.5384  114631089.630 7  89322938.17345
     -2057.843       -1603.512
  22958663.610    22958663.7574   22958667.8204  120648598.157 6  94011924.57343
       356.654         277.908
  22748070.508    22748070.0834   22748073.2244  119541937.518 7  93149586.67244
      2573.684        2005.471
  25075525.769    25075525.1764   25075531.5284  131772784.386 4 102680110.71541
      3236.087        2521.595
  23170535.493    23170535.7044   23170537.8434  121762005.137 7  94879513.65844
     -2979.890       -2321.995
  23663840.935    23663841.2314   23663842.1434  124354339.617 6  96899503.59043
     -3637.990       -2834.797
 08  5 10  0 53 30.0000000  0 13G 3G 6G 7G10G13G16G21G23G24G25G27G29
                                G31
  23433198.177    23433197.0784   23433201.2914  123142294.028 6  95955057.41342
      3781.469        2946.593
  21755541.688    21755541.1794   21755544.0304  114326174.904 7  89085349.53845
      2227.144        1735.438
  24235428.781    24235428.8554   24235431.2224  127358044.765 5  99240068.08442
      3559.428        2773.577
  24044146.991    24044145.6314   24044149.3384  126352851.198 5  98456784.38642
      1620.685        1262.872
  21702017.287    21702017.0804   21702018.5554  114044886.030 7  88866169.88545
       552.198         430.278
  20338505.371    20338504.7784   20338506.9474  106879606.755 8  83282834.51647
        98.463          76.721
  24011084.639    24011084.5474   24011086.2554  126179110.006 6  98321402.91842
      2645.136        2061.137
  21825366.086    21825365.4664   21825365.7294  114693111.057 8  89371266.51645
     -2076.907       -1618.369
  22956685.944    22956685.5004   22956689.7264  120638203.486 6  94003825.43643
       336.388         262.115
  22733409.562    22733408.8844   22733411.5654  119464892.706 7  93089551.77444
      2562.661        1996.880
  25057061.645    25057060.9304   25057065.5134  131675752.296 4 102604501.40741
      3232.891        2519.130
  23187578.905    23187579.2974   23187583.1304  121851581.144 6  94949313.36544
     -2991.831       -2331.285
  23684627.048    23684627.1914   23684628.8874  124463572.226 6  96984619.93043
     -3644.198       -2839.652
 08  5 10  0 54  0.0000000  0 13G 3G 6G 7G10G13G16G21G23G24G25G27G29
                                G31
  23411628.178    23411627.2334   23411632.0704  123028946.640 6  95866734.90042
      3774.913        2941.501
  21742868.984    21742868.6014   21742871.4524  114259580.508 7  89033457.79645
      2212.461        1723.997
  24215124.659    24215124.2714   24215127.3024  127251341.357 5  99156922.63142
      3554.153        2769.462
  24034946.901    24034945.9044   24034950.7034  126304507.776 5  98419114.18642
      1602.188        1248.454
  21698927.892    21698928.0514   21698929.7294  114028653.927 7  88853521.48345
       529.948         412.950
  20337993.696    20337993.0084   20337995.1694  106876917.531 8  83280739.02447
        80.744          62.915
  23996013.323    23996012.9284   23996015.0234  126099910.771 6  98259689.27842
      2634.779        2053.077
  21837276.044    21837275.2474   21837275.6514  114755698.990 7  89420036.50145
     -2095.664       -1632.995
  22954823.156    22954822.3894   22954826.1104  120628412.154 6  93996195.89943
       316.350         246.520
  22718810.716    22718810.2574   22718813.2014  119388175.283 7  93029771.96544
      2551.783        1988.402
  25038614.813    25038613.0624   25038615.5064  131578809.172 4 102528961.40441
      3229.890        2516.770
  23204693.840    23204694.1664   23204695.6354  121941509.446 6  95019387.65544
     -3003.455       -2340.361
  23705448.238    23705448.2544   23705450.2894  124572985.608 6  97069877.09943
     -3650.130       -2844.262
 08  5 10  0 54 30.0000000  0 13G 3G 6G 7G10G13G16G21G23G24G25G27G29
                                G31
  23390096.559    23390096.1744   23390100.9654  122915801.475 5  95778569.93042
      3768.145        2936.212
  21730280.904    21730280.5234   21730283.7264  114193430.857 7  88981912.55145
      2197.576        1712.402
  24194850.458    24194849.8924   24194852.3794  127144799.202 5  99073902.81042
      3548.654        2765.174
  24025853.918    24025852.5894   24025856.7454  126256722.709 5  98381879.11442
      1583.498        1233.888
  21695966.505    21695966.4504   21695969.0704  114013092.915 7  88841396.01945
       507.481         395.435
  20337583.742    20337583.2224   20337585.2594  106874763.815 8  83279060.80947
        62.882          48.999
  23981002.428    23981002.1554   23981003.7194  126021026.840 6  98198221.31342
      2624.200        2044.836
  21849293.070    21849292.4734   21849293.7074  114818852.675 7  89469247.23845
     -2114.510       -1647.668
  22953075.454    22953074.7274   22953078.1304  120619228.159 6  93989039.79143
       296.033         230.670
  22704274.770    22704274.2984   22704277.2684  119311789.268 7  92970250.40344
      2540.686        1979.760
  25020183.991    25020183.6244   25020186.9564  131481958.495 5 102453493.40041
      3226.874        2514.435
  23221872.412    23221872.1744   23221875.3134  122031789.361 6  95089735.56544
     -3015.114       -2349.435
  23726303.079    23726302.9744   23726305.8774  124682580.184 6  97155275.45243
     -3656.191       -2848.979
 08  5 10  0 55  0.0000000  0 13G 3G 6G 7G10G13G16G21G23G24G25G27G29
                                G31
  23368605.858    23368605.8944   23368609.3054  122802863.403 6  95690566.30642
      3761.077        2930.715
  21717778.324    21717778.0674   21717781.3804  114127729.937 7  88930716.95545
      2182.508        1700.654
  24174607.156    24174607.2214   24174609.4484  127038422.316 5  98991011.80042
      3543.203        2760.928
  24016867.804    24016866.4224   24016871.6914  126209500.891 5  98345082.91142
      1564.680        1219.219
  21693133.704    21693133.5994   21693136.5204  113998206.416 7  88829796.16345
       484.892         377.830
  20337276.179    20337275.6424   20337277.7504  106873148.248 8  83277802.04747
        44.819          34.916
  23966052.345    23966051.3704   23966053.6754  125942462.873 6  98137002.66442
      2613.378        2036.402
  21861418.584    21861418.1444   21861418.7254  114882572.393 7  89518899.04045
     -2133.427       -1662.409
  22951442.757    22951442.2944   22951445.9564  120610653.219 6  93982358.10343
       275.639         214.780
  22689803.036    22689802.5134   22689805.7014  119235738.729 7  92910990.25444
      2529.364        1970.924
  25001772.726    25001771.3244   25001777.3994  131385204.530 5 102378100.77641
      3223.445        2511.783
  23239120.290    23239120.3414   23239121.8604  122122420.991 6  95160357.52244
     -3026.930       -2358.638
  23747192.534    23747193.4414   23747194.8214  124792356.341 6  97240815.29243
     -3662.285       -2853.729
 08  5 10  0 55 30.0000000  0 13G 3G 6G 7G10G13G16G21G23G24G25G27G29
                                G31
  23347154.660    23347154.6924   23347156.5854  122690134.823 6  95602725.88542
      3754.177        2925.328
  21705361.848    21705361.3374   21705364.5134  114062479.854 7  88879872.90045
      2167.545        1688.989
  24154396.862    24154395.8884   24154398.8064  126932213.246 5  98908251.54842
      3537.485        2756.483
  24007989.560    24007988.0814   24007991.6254  126162843.773 5  98308726.70041
      1545.836        1204.522
  21690429.556    21690429.5334   21690431.9054  113983994.788 7  88818722.19045
       462.528         360.404
  20337071.000    20337070.5014   20337072.5724  106872070.115 8  83276961.97947
        27.013          21.048
  23951164.601    23951163.8784   23951164.4784  125864221.422 6  98076035.31742
      2602.724        2028.089
  21873651.642    21873651.0014   21873651.5224  114946855.300 7  89568989.47445
     -2152.059       -1676.926
  22949926.945    22949926.3044   22949930.0844  120602687.816 6  93976151.20143
       255.393         198.990
  22675395.336    22675394.8504   22675397.1834  119160025.639 7  92851993.04044
      2518.161        1962.204
  24983379.700    24983379.4604   24983383.1984  131288548.651 5 102302784.59141
      3220.220        2509.301
  23256432.164    23256431.7664   23256435.4874  122213401.950 6  95231251.59143
     -3038.421       -2367.594
  23768117.203    23768116.3874   23768118.2784  124902311.988 6  97326495.00743
     -3668.089       -2858.251
 08  5 10  0 56  0.0000000  0 13G 3G 6G 7G10G13G16G21G23G24G25G27G29
                                G31
  23325742.814    23325742.0264   23325745.7074  122577615.644 6  95515048.66042
      3747.012        2919.755
  21693030.511    21693030.2324   21693033.3754  113997678.836 7  88829378.56645
      2152.439        1677.226
  24134217.323    24134217.4904   24134218.7034  126826171.358 6  98825621.54842
      3531.823        2752.075
  23999217.604    23999215.9614   23999222.7974  126116751.069 5  98272810.28241
      1526.930        1189.832
  21687853.723    21687853.6954   21687855.3544  113970456.133 7  88808172.59745
       439.987         342.849
  20336967.699    20336967.0354   20336969.1094  106871526.939 8  83276538.78647
         9.125           7.100
  23936335.661    23936334.9564   23936337.8664  125786302.145 6  98015319.00342
      2591.844        2019.620
  21885990.624    21885990.0504   21885990.5154  115011697.511 8  89619515.86845
     -2170.765       -1691.503
  22948527.505    22948526.6874   22948530.6664  120595329.891 6  93970417.49043
       235.076         183.203
  22661051.295    22661050.9124   22661053.8174  119084649.147 7  92793258.11844
      2506.837        1953.376
  24965005.041    24965004.5734   24965007.2394  131191989.775 5 102227543.96441
      3216.913        2506.670
  23273811.722    23273811.7144   23273813.8714  122304726.915 6  95302413.69944
     -3049.882       -2376.522
  23789075.189    23789074.3084   23789075.9044  125012442.859 6  97412311.26943
     -3673.939       -2862.811
 08  5 10  0 56 30.0000000  0 13G 3G 6G 7G10G13G16G21G23G24G25G27G29
                                G31
  23304371.610    23304370.8724   23304375.2894  122465309.251 6  95427537.27343
      3740.007        2914.290
  21680785.552    21680785.0024   21680788.2894  113933329.996 7  88779236.60445
      2137.385        1665.496
  24114070.848    24114070.5974   24114073.7114  126720299.616 5  98743124.10242
      3526.204        2747.684
  23990554.276    23990554.2344   23990558.0954  126071224.777 5  98237335.27241
      1508.118        1175.151
  21685405.624    21685405.3244   21685407.2984  113957592.174 7  88798148.72345
       417.536         325.350
  20336966.069    20336965.5414   20336967.6284  106871518.844 8  83276532.34847
        -8.592          -6.669
  23921570.089    23921569.4494   23921571.8874  125708708.495 6  97954856.41242
      2581.052        2011.224
  21898435.508    21898435.2704   21898435.1874  115077097.079 7  89670476.64045
     -2189.267       -1705.926
  22947242.912    22947242.6994   22947246.8404  120588581.173 6  93965158.51143
       214.790         167.363
  22646772.691    22646772.2584   22646775.1874  119009612.261 7  92734787.82644
      2495.547        1944.585
  24946649.115    24946648.6734   24946652.2424  131095530.617 5 102152381.07641
      3213.610        2504.118
  23291255.569    23291255.1054   23291258.1644  122396395.033 6  95373843.39243
     -3061.327       -2385.468
  23810065.171    23810064.9034   23810066.1144  125122747.659 6  97498263.04043
     -3679.685       -2867.281
 08  5 10  0 57  0.0000000  0 13G 3G 6G 7G10G13G16G21G23G24G25G27G29
                                G31
  23283041.400    23283040.5914   23283044.2914  122353217.634 6  95340193.24243
      3732.835        2908.706
  21668626.807    21668626.1334   21668629.2434  113869434.448 8  88729447.83646
      2122.360        1653.786
  24093956.536    24093956.1604   24093958.9754  126614599.851 5  98660760.74242
      3520.464        2743.212
  23981998.821    23981999.0854   23982000.4154  126026266.725 5  98202302.98641
      1489.039        1160.314
  21683085.643    21683085.5684   21683087.8704  113945403.031 7  88788650.70745
       395.102         307.873
  20337066.582    20337065.8524   20337067.8434  106872046.379 8  83276943.58647
       -26.453         -20.607
  23906866.966    23906866.0734   23906868.5654  125631442.526 6  97894649.19442
      2570.092        2002.659
  21910986.376    21910985.7994   21910985.7754  115143051.644 7  89721869.92545
     -2207.673       -1720.272
  22946075.168    22946074.3834   22946078.6994  120582441.764 6  93960374.49043
       194.548         151.601
  22632557.927    22632557.7234   22632560.7114  118934916.404 7  92676583.29144
      2484.201        1935.739
  24928311.948    24928312.3784   24928317.6204  130999172.362 4 102077296.88041
      3210.300        2501.537
  23308763.958    23308763.9524   23308767.1604  122488403.360 6  95445538.55244
     -3072.564       -2394.228
  23831088.201    23831087.9794   23831088.8134  125233223.773 6  97584348.31543
     -3685.303       -2871.664
 08  5 10  0 57 30.0000000  0 13G 3G 6G 7G10G13G16G21G23G24G25G27G29
                                G31
  23261751.927    23261751.4614   23261755.2844  122241341.940 6  95253017.43043
      3725.470        2902.983
  21656554.040    21656553.6654   21656556.6594  113805993.071 8  88680013.02246
      2107.108        1641.909
  24073873.391    24073874.1084   24073877.8854  126509073.225 5  98578532.32842
      3514.624        2738.669
  23973551.882    23973549.8254   23973554.9094  125981877.719 5  98167714.15241
      1470.080        1145.513
  21680894.567    21680894.5514   21680896.9884  113933888.212 7  88779678.12345
       372.552         290.309
  20337268.454    20337267.7364   20337269.7564  106873107.590 8  83277770.52747
       -44.225         -34.414
  23892226.301    23892226.4254   23892228.3714  125554506.015 6  97834698.66542
      2559.030        1994.074
  21923641.810    21923641.4814   21923641.5554  115209558.058 7  89773693.18945
     -2226.074       -1734.595
  22945022.417    22945021.6614   22945025.9714  120576911.426 6  93956065.38143
       174.156         135.702
  22618409.374    22618408.7144   22618411.4384  118860562.339 7  92618645.06744
      2472.743        1926.824
  24909995.351    24909995.1724   24909999.6414  130902915.545 5 102002291.69741
      3206.776        2498.793
  23326336.217    23326336.1574   23326337.6774  122580747.814 6  95517495.65243
     -3083.764       -2402.918
  23852142.143    23852142.6724   23852144.9494  125343868.687 6  97670565.09643
     -3691.000       -2876.086
 08  5 10  0 58  0.0000000  0 13G 3G 6G 7G10G13G16G21G23G24G25G27G29
                                G31
  23240504.121    23240503.2094   23240507.2764  122129686.198 6  95166013.07143
      3717.958        2897.106
  21644568.305    21644567.9534   21644571.1004  113743008.424 7  88630934.12245
      2091.714        1629.906
  24053827.281    24053827.0374   24053830.5894  126403722.642 5  98496441.07742
      3508.516        2733.917
  23965215.891    23965212.3814   23965217.1944  125938060.419 5  98133570.85141
      1450.921        1130.572
  21678832.259    21678832.1764   21678834.5154  113923049.420 8  88771232.33545
       349.869         272.628
  20337572.001    20337571.4284   20337573.4714  106874703.442 8  83279014.08547
       -62.245         -48.509
  23877649.681    23877648.8694   23877651.0104  125477902.206 6  97775007.40042
      2547.790        1985.300
  21936402.767    21936401.9534   21936402.2854  115276614.792 7  89825945.23145
     -2244.491       -1748.959
  22944085.242    22944084.5944   22944088.7244  120571991.064 6  93952231.81043
       153.728         119.779
  22604325.462    22604324.8094   22604328.0914  118786553.262 7  92560975.67744
      2461.094        1917.742
  24891698.908    24891698.0514   24891701.2524  130806762.720 5 101927367.48541
      3203.219        2496.040
  23343971.904    23343971.9364   23343974.8104  122673426.300 6  95589712.70144
     -3094.985       -2411.689
  23873229.658    23873229.7554   23873231.2374  125454681.436 6  97756912.66043
     -3696.617       -2880.486
 08  5 10  0 58 30.0000000  0 13G 3G 6G 7G10G13G16G21G23G24G25G27G29
                                G31
  23219299.413    23219298.7044   23219302.1964  122018255.479 6  95079184.01843
      3710.663        2891.434
  21632670.659    21632670.2394   21632673.1524  113680485.020 7  88582214.63946
      2076.434        1618.003
  24033814.806    24033814.7024   24033816.1894  126298553.607 6  98414491.23842
      3502.610        2729.299
  23956985.266    23956985.4074   23956988.5024  125894819.167 5  98099876.39541
      1431.697        1115.604
  21676899.420    21676899.0694   21676901.1424  113912890.126 7  88763316.02045
       327.344         255.076
  20337977.871    20337977.2694   20337979.2664  106876836.413 8  83280676.17847
       -80.019         -62.356
  23863136.384    23863136.2514   23863137.2504  125401636.530 6  97715579.60142
      2536.577        1976.554
  21949267.710    21949267.3354   21949267.3394  115344222.024 7  89878626.18645
     -2262.712       -1763.152
  22943265.826    22943265.5024   22943268.9014  120567682.733 6  93948874.78643
       133.454         103.999
  22590308.703    22590307.9464   22590311.2214  118712893.744 7  92503578.67844
      2449.518        1908.713
  24873422.109    24873420.9244   24873424.5944  130710718.453 5 101852527.85741
      3199.659        2493.223
  23361672.166    23361672.1574   23361673.8974  122766439.865 6  95662190.76543
     -3105.940       -2420.211
  23894348.884    23894349.0574   23894349.5424  125565662.902 6  97843391.72943
     -3702.122       -2884.777
 08  5 10  0 59  0.0000000  0 13G 3G 6G 7G10G13G16G21G23G24G25G27G29
                                G31
  23198137.857    23198137.5094   23198140.7404  121907050.236 6  94992530.66543
      3703.115        2885.545
  21620860.202    21620859.8074   21620862.8764  113618422.331 8  88533854.20145
      2061.052        1606.011
  24013835.917    24013835.5894   24013838.1814  126193565.777 5  98332682.57342
      3496.584        2724.590
  23948868.217    23948866.0374   23948869.8414  125852154.555 6  98066631.26842
      1412.460        1100.611
  21675094.792    21675094.7604   21675096.6694  113903408.564 7  88755927.79345
       304.743         237.462
  20338485.551    20338484.9414   20338486.9544  106879504.345 8  83282755.09347
       -97.820         -76.225
  23848688.299    23848687.6504   23848689.4524  125325709.235 6  97656415.50642
      2525.333        1967.784
  21962236.899    21962236.5814   21962236.3174  115412375.646 7  89931732.93145
     -2280.872       -1777.301
  22942562.773    22942561.7834   22942565.8564  120563985.278 6  93945993.72743
       113.120          88.150
  22576357.794    22576357.4954   22576360.9794  118639583.608 7  92446453.93244
      2437.830        1899.608
  24855165.409    24855164.4834   24855168.0084  130614782.449 5 101777772.55741
      3196.014        2490.389
  23379434.949    23379435.0764   23379436.9954  122859783.784 6  95734926.32443
     -3116.920       -2428.764
  23915499.072    23915498.9204   23915501.1004  125676808.932 6  97929998.96643
     -3707.556       -2889.006
 08  5 10  0 59 30.0000000  0 13G 3G 6G 7G10G13G16G21G23G24G25G27G29
                                G31
  23177019.373    23177018.5514   23177022.6094  121796071.194 6  94906053.55343
      3695.565        2879.672
  21609138.010    21609137.5144   21609140.5404  113556820.506 7  88485852.85346
      2045.734        1594.072
  23993891.416    23993891.0064   23993895.3124  126088759.996 5  98251015.88942
      3490.556        2719.919
  23940857.948    23940857.4224   23940861.6044  125810066.279 5  98033835.22942
      1393.342        1085.727
  21673419.370    21673419.0534   21673421.1794  113894603.696 7  88749066.86745
       282.233         219.920
  20339094.809    20339094.1784   20339096.1024  106882705.577 8  83285249.54747
      -115.573         -90.059
  23834303.718    23834303.1604   23834305.3004  125250121.394 6  97597515.90942
      2513.975        1958.937
  21975309.345    21975308.5194   21975308.9664  115481071.617 7  89985262.28345
     -2298.869       -1791.328
  22941975.071    22941974.2234   22941978.4534  120560897.302 6  93943587.46144
        92.817          72.323
  22562474.185    22562474.0174   22562477.0454  118566623.210 7  92389601.70244
      2426.190        1890.536
  24836929.780    24836928.9784   24836933.6554  130518954.601 5 101703101.53241
      3192.529        2487.700
  23397259.751    23397259.4684   23397262.7214  122953454.409 6  95807916.41743
     -3127.734       -2437.203
  23936680.865    23936680.4764   23936682.2564  125788116.209 6  98016731.85243
     -3712.894       -2893.157
 08  5 10  1  0  0.0000000  0 13G 3G 6G 7G10G13G16G21G23G24G25G27G29
                                G31
  23155945.016    23155943.9044   23155947.2754  121685322.296 6  94819755.75043
      3687.728        2873.565
  21597503.659    21597503.1474   21597506.1174  113495682.216 7  88438212.67946
      2030.171        1581.957
  23973983.411    23973983.3914   23973986.1124  125984139.352 5  98169493.42842
      3484.214        2714.963
  23932958.838    23932958.1084   23932961.9064  125768557.037 6  98001490.37842
      1373.992        1070.645
  21671872.637    21671872.6654   21671874.6164  113886477.283 7  88742734.60345
       259.514         202.220
  20339805.654    20339804.9294   20339806.9604  106886441.065 8  83288160.33847
      -133.447        -103.981
  23819984.991    23819984.3664   23819987.4784  125174875.929 6  97538883.07842
      2502.367        1949.894
  21988484.861    21988484.3054   21988484.4274  115550309.126 7  90039213.58545
     -2316.979       -1805.436
  22941502.769    22941502.2024   22941507.2774  120558420.620 6  93941657.64943
        72.345          56.368
  22548657.225    22548656.9864   22548659.6824  118494015.715 6  92333024.47344
      2414.317        1881.288
  24818715.314    24818714.7914   24818718.6534  130423237.794 5 101628517.01241
      3188.614        2484.679
  23415146.097    23415146.3544   23415148.5134  123047449.784 6  95881159.62443
     -3138.638       -2445.698
  23957891.712    23957891.7894   23957893.4074  125899584.138 5  98103589.99443
     -3718.300       -2897.372
 08  5 10  1  0 30.0000000  0 13G 3G 6G 7G10G13G16G21G23G24G25G27G29
                                G31
  23134913.663    23134913.1414   23134916.4604  121574805.775 6  94733639.03443
      3680.055        2867.580
  21585957.776    21585957.4344   21585960.4324  113435008.857 8  88390934.77146
      2014.709        1569.906
  23954110.535    23954110.1644   23954113.1234  125879706.122 5  98088116.97843
      3477.949        2710.096
  23925170.594    23925169.3244   23925173.6274  125727628.147 5  97969597.78442
      1354.619        1055.561
  21670455.493    21670455.2544   21670456.8984  113879029.481 7  88736931.12045
       236.989         184.668
  20340617.892    20340617.3514   20340619.3354  106890710.147 8  83291486.87447
      -151.143        -117.769
  23805732.806    23805731.6624   23805734.3924  125099975.720 6  97480519.23442
      2490.972        1941.010
  22001762.630    22001762.2854   22001762.2684  115620085.677 7  90093584.95245
     -2334.828       -1819.348
  22941147.678    22941147.2794   22941151.6824  120556554.721 6  93940203.65443
        52.030          40.542
  22534908.227    22534907.7604   22534910.9204  118421762.743 7  92276723.46645
      2402.529        1872.103
  24800522.763    24800521.7694   24800527.7374  130327633.598 5 101554020.23341
      3184.916        2481.791
  23433094.678    23433094.4974   23433097.7394  123141767.395 6  95954653.78343
     -3149.196       -2453.910
  23979133.546    23979133.6654   23979135.7484  126011210.304 6  98190571.41143
     -3723.425       -2901.365
 08  5 10  1  1  0.0000000  0 13G 3G 6G 7G10G13G16G21G23G24G25G27G29
                                G31
  23113927.780    23113927.4874   23113930.6624  121464525.490 6  94647706.35343
      3672.089        2861.372
  21574500.981    21574500.6224   21574503.6744  113374803.268 7  88344021.35745
      1999.102        1557.741
  23934273.485    23934273.7824   23934276.0944  125775463.419 6  98006888.97643
      3471.654        2705.190
  23917493.215    23917491.9864   23917496.1654  125687282.687 5  97938159.79442
      1335.165        1040.403
  21669167.518    21669167.3404   21669169.3294  113872262.232 7  88731657.94945
       214.255         166.950
  20341532.231    20341531.5084   20341533.4444  106895513.981 8  83295230.13547
      -169.005        -131.697
  23791545.941    23791545.6174   23791546.6244  125025424.431 6  97422427.27642
      2479.241        1931.885
  22015143.066    22015142.3874   22015142.8764  115690399.886 7  90148375.28445
     -2352.700       -1833.274
  22940909.337    22940908.5974   22940912.9264  120555301.227 6  93939226.85243
        31.646          24.666
  22521226.645    22521226.2454   22521229.6914  118349867.343 7  92220701.11945
      2390.561        1862.772
  24782352.259    24782351.2354   24782356.4684  130232144.948 5 101479613.48641
      3181.024        2478.714
  23451104.448    23451104.2764   23451106.5234  123236406.048 6  96028398.14243
     -3159.856       -2462.228
  24000405.648    24000405.4854   24000406.5894  126122993.921 6  98277675.53743
     -3728.700       -2905.481
 08  5 10  1  1 30.0000000  0 13G 3G 6G 7G10G13G16G21G23G24G25G27G29
                                G31
  23092987.798    23092987.3924   23092991.0074  121354482.927 6  94561958.92243
      3664.138        2855.186
  21563133.529    21563133.0514   21563136.1694  113315066.429 8  88297473.14746
      1983.465        1545.555
  23914472.911    23914472.7834   23914475.7924  125671413.014 5  97925810.80343
      3465.171        2700.118
  23909926.689    23909925.4554   23909929.6784  125647521.897 5  97907177.37842
      1315.604        1025.147
  21668009.073    21668009.0304   21668010.9054  113866174.613 7  88726914.35745
       191.652         149.333
  20342547.827    20342547.2324   20342549.1554  106900851.508 8  83299389.21747
      -186.738        -145.507
  23777425.872    23777424.5684   23777427.1464  124951223.841 6  97364608.69542
      2467.557        1922.769
  22028624.897    22028624.7974   22028624.9584  115761248.379 7  90203581.87045
     -2370.459       -1847.114
  22940787.574    22940787.0484   22940790.6984  120554659.704 6  93938727.00043
        11.276           8.790
  22507614.147    22507613.9414   22507615.7854  118278330.945 7  92164958.47445
      2378.621        1853.468
  24764203.519    24764202.6444   24764207.3514  130136773.176 5 101405297.96541
      3177.174        2475.711
  23469173.984    23469173.2984   23469175.5144  123331362.816 6  96102390.38343
     -3170.366       -2470.412
  24021706.415    24021706.3604   24021708.1904  126234932.723 6  98364900.58043
     -3733.862       -2909.521
 08  5 10  1  2  0.0000000  0 13G 3G 6G 7G10G13G16G21G23G24G25G27G29
                                G31
  23072091.941    23072091.7134   23072095.9134  121244678.219 6  94476396.88043
      3656.221        2849.005
  21551855.012    21551854.6124   21551857.6734  113255797.385 7  88251289.47346
      1967.864        1533.405
  23894709.229    23894709.3254   23894711.0384  125567554.803 5  97844882.34642
      3458.695        2695.083
  23902470.373    23902470.5344   23902474.8714  125608344.562 5  97876649.61942
      1296.176        1009.995
  21666980.338    21666979.9014   21666981.5724  113860765.101 7  88722699.15445
       169.018         131.700
  20343664.518    20343663.9314   20343665.9334  106906719.898 8  83303961.97147
      -204.451        -159.311
  23763372.600    23763371.9774   23763374.0434  124877373.654 6  97307063.14242
      2455.815        1913.610
  22042207.796    22042207.3694   22042207.9234  115832626.378 7  90259201.07245
     -2388.059       -1860.827
  22940780.808    22940780.8794   22940785.0464  120554627.776 6  93938702.02943
        -9.028          -7.028
  22494069.037    22494068.5274   22494072.0824  118207153.008 7  92109495.16645
      2366.647        1844.136
  24746077.028    24746075.9144   24746080.4974  130041516.932 5 101331072.42142
      3173.241        2472.674
  23487303.524    23487303.0534   23487305.0294  123426632.319 6  96176626.19343
     -3180.817       -2478.543
  24043037.186    24043036.8924   24043038.5174  126347022.471 6  98452243.22843
     -3738.823       -2913.368
 08  5 10  1  2 30.0000000  0 13G 3G 6G 7G10G13G16G21G23G24G25G27G29
                                G31
  23051243.154    23051242.8044   23051246.1504  121135116.181 6  94391023.93343
      3648.062        2842.644
  21540666.309    21540665.8294   21540668.7534  113197000.207 7  88205473.52646
      1952.093        1521.110
  23874983.123    23874982.6894   23874984.7884  125463892.638 5  97764106.68542
      3452.136        2689.974
  23895126.850    23895127.3244   23895131.0234  125569755.011 5  97846579.87641
      1276.613         994.756
  21666079.522    21666079.8394   21666081.8424  113856036.174 7  88719014.28445
       146.339         114.029
  20344882.750    20344882.1634   20344884.1064  106913121.414 8  83308950.17447
      -222.185        -173.132
  23749386.690    23749386.4804   23749388.1064  124803879.128 6  97249794.75243
      2443.937        1904.359
  22055891.255    22055891.2254   22055891.4204  115904534.170 7  90315233.10345
     -2405.678       -1874.553
  22940892.343    22940890.7954   22940896.1164  120555207.901 6  93939153.94943
       -29.418         -22.910
  22480593.742    22480593.4974   22480596.0514  118136337.583 7  92054314.34945
      2354.499        1834.676
  24727972.936    24727971.6894   24727976.9794  129946380.411 5 101256940.10742
      3169.252        2469.577
  23505490.332    23505490.8704   23505494.1064  123522215.419 6  96251106.57943
     -3191.299       -2486.739
  24064396.394    24064395.1894   24064397.8234  126459262.981 6  98539703.30843
     -3743.735       -2917.200
 08  5 10  1  3  0.0000000  0 13G 3G 6G 7G10G13G16G21G23G24G25G27G29
                                G31
  23030440.847    23030439.9874   23030443.8174  121025799.103 6  94305841.85143
      3639.818        2836.207
  21529567.419    21529566.9534   21529570.1024  113138675.543 7  88160025.75246
      1936.289        1508.793
  23855294.717    23855294.4264   23855297.1174  125360428.657 6  97683485.44643
      3445.467        2684.782
  23887896.709    23887895.7034   23887899.7034  125531754.233 5  97816968.90141
      1256.882         979.383
  21665309.257    21665309.0094   21665311.6664  113851987.724 7  88715859.65445
       123.618          96.329
  20346202.346    20346201.5644   20346203.5494  106920054.954 8  83314352.87647
      -239.957        -186.977
  23735470.306    23735468.8554   23735470.3254  124730741.837 6  97192804.69443
      2431.944        1895.021
  22069675.022    22069674.6724   22069675.0704  115976968.203 7  90371675.21045
     -2423.194       -1888.211
  22941118.745    22941118.1744   22941122.7674  120556399.740 6  93940082.66243
       -49.954         -38.931
  22467186.887    22467186.5304   22467189.2344  118065886.016 7  91999417.02445
      2342.311        1825.175
  24709891.882    24709890.6604   24709894.5914  129851364.678 5 101182901.93441
      3165.119        2466.324
  23523738.998    23523739.4104   23523741.1594  123618108.144 6  96325828.33943
     -3201.604       -2494.769
  24085782.612    24085782.4884   24085782.4524  126571652.050 6  98627279.19742
     -3748.681       -2921.063
 08  5 10  1  3 30.0000000  0 13G 3G 6G 7G10G13G16G21G23G24G25G27G29
                                G31
  23009685.740    23009685.0834   23009688.2674  120916729.685 6  94220852.72543
      3631.552        2829.780
  21518558.979    21518558.5674   21518561.8614  113080826.215 7  88114948.37246
      1920.403        1496.410
  23835645.129    23835644.5764   23835646.8104  125257166.117 6  97603021.18843
      3438.771        2679.558
  23880776.790    23880777.1774   23880780.5304  125494344.748 5  97787818.66642
      1237.122         963.983
  21664668.740    21664668.3734   21664670.6584  113848621.060 8  88713236.29645
       100.906          78.623
  20347622.851    20347622.3064   20347624.3884  106927521.599 8  83320171.17447
      -257.726        -200.832
  23721620.684    23721619.6454   23721621.6214  124657965.053 6  97136095.54643
      2419.861        1885.608
  22083558.830    22083558.2554   22083558.7084  116049927.758 7  90428526.83645
     -2440.658       -1901.813
  22941462.201    22941461.5874   22941465.2534  120558204.415 6  93941488.97743
       -70.330         -54.828
  22453850.350    22453849.9434   22453853.1934  117995801.171 7  91944805.49445
      2330.081        1815.643
  24691834.398    24691833.7684   24691837.4014  129756472.475 5 101108960.01741
      3161.057        2463.160
  23542044.979    23542045.0204   23542047.3804  123714308.514 6  96400789.66943
     -3211.754       -2502.671
  24107197.633    24107197.4484   24107199.1334  126684188.986 6  98714970.31043
     -3753.577       -2924.871
 08  5 10  1  4  0.0000000  0 13G 3G 6G 7G10G13G16G21G23G24G25G27G29
                                G31
  22988977.998    22988977.6314   22988980.7684  120807909.560 6  94136057.84243
      3623.124        2823.206
  21507641.213    21507640.7834   21507643.9464  113023452.577 8  88070241.62946
      1904.457        1483.993
  23816033.322    23816032.8274   23816035.4844  125154106.404 6  97522714.97343
      3431.848        2674.157
  23873771.013    23873770.3554   23873773.7694  125457526.685 5  97759129.29342
      1217.354         948.577
  21664157.565    21664157.5794   21664159.3344  113845935.148 8  88711143.38045
        78.150          60.893
  20349144.923    20349144.3024   20349146.3604  106935519.575 8  83326403.38447
      -275.519        -214.692
  23707839.998    23707839.6144   23707841.7544  124585550.089 6  97079668.29643
      2407.712        1876.158
  22097541.996    22097541.4014   22097541.9244  116123408.897 7  90485784.84245
     -2458.101       -1915.406
  22941922.121    22941921.6124   22941924.7354  120560620.892 6  93943372.03443
       -90.824         -70.779
  22440584.049    22440583.4844   22440586.1584  117926083.975 7  91890480.42445
      2317.723        1806.021
  24673800.584    24673800.5044   24673802.9974  129661704.608 5 101035114.95441
      3156.792        2459.842
  23560410.398    23560409.9414   23560412.6024  123810814.113 6  96475988.89143
     -3221.957       -2510.611
  24128639.956    24128640.1804   24128641.7914  126796870.812 5  98802774.30943
     -3758.519       -2928.703
 08  5 10  1  4 30.0000000  0 13G 3G 6G 7G10G13G16G21G23G24G25G27G29
                                G31
  22968319.083    22968318.3544   22968321.2144  120699343.909 6  94051461.24443
      3614.541        2816.532
  21496814.744    21496814.2434   21496817.3054  112966558.394 7  88025908.51046
      1888.438        1471.512
  23796460.704    23796460.0364   23796462.6104  125051253.304 6  97442569.75943
      3424.982        2668.824
  23866878.459    23866877.3654   23866881.7364  125421304.297 5  97730904.07641
      1197.456         933.068
  21663776.673    21663776.6044   21663778.4024  113843932.486 7  88709582.86045
        55.323          43.109
  20350768.341    20350767.7154   20350769.7704  106944050.669 8  83333050.95647
      -293.307        -228.550
  23694129.942    23694129.2334   23694131.0624  124513501.556 6  97023526.64343
      2395.410        1866.551
  22111624.079    22111623.9144   22111624.1654  116197411.306 7  90543449.06145
     -2475.426       -1928.901
  22942497.880    22942497.5354   22942501.8994  120563651.231 6  93945733.46043
      -111.292         -86.723
  22427387.750    22427387.1794   22427389.3484  117856738.543 7  91836445.02545
      2305.260        1796.307
  24655791.008    24655790.4264   24655794.2184  129567064.958 5 100961369.84441
      3152.398        2456.435
  23578832.690    23578832.5574   23578834.4134  123907624.015 6  96551425.20343
     -3232.070       -2518.492
  24150110.656    24150110.5944   24150111.9444  126909697.794 6  98890691.50543
     -3763.319       -2932.463
 08  5 10  1  5  0.0000000  0 13G 3G 6G 7G10G13G16G21G23G24G25G27G29
                                G31
  22947708.499    22947708.1134   22947710.8364  120591036.287 6  93967065.72943
      3605.954        2809.827
  21486079.662    21486079.2164   21486082.3734  112910146.309 8  87981951.06046
      1872.366        1458.984
  23776928.240    23776928.2244   23776929.7864  124948610.578 6  97362588.43142
      3417.929        2663.308
  23860098.841    23860097.6304   23860102.7904  125385679.369 5  97703144.38441
      1177.515         917.558
  21663525.975    21663525.9144   21663527.8884  113842614.443 7  88708555.82045
        32.549          25.366
  20352493.454    20352492.7674   20352494.7974  106953115.946 8  83340114.83747
      -311.026        -242.354
  23680490.079    23680489.6754   23680490.8404  124441823.012 6  96967673.16543
      2383.124        1856.999
  22125804.910    22125804.6854   22125805.1744  116271933.804 7  90601518.55245
     -2492.701       -1942.365
  22943191.835    22943191.1454   22943196.1134  120567296.395 6  93948573.82443
      -131.742        -102.654
  22414263.071    22414262.7144   22414265.9034  117787767.880 7  91782701.67545
      2292.781        1786.586
  24637806.901    24637806.0224   24637810.0514  129472556.478 5 100887726.91641
      3148.067        2453.080
  23597312.404    23597312.4324   23597314.8104  124004737.115 6  96627097.74343
     -3242.149       -2526.352
  24171607.072    24171606.9564   24171609.3964  127022668.769 5  98978720.81342
     -3768.079       -2936.163
 08  5 10  1  5 30.0000000  0 13G 3G 6G 7G10G13G16G21G23G24G25G27G29
                                G31
  22927147.241    22927146.7194   22927150.8484  120482986.516 6  93882871.13343
      3597.302        2803.094
  21475436.550    21475436.1104   21475438.9534  112854215.403 8  87938368.48746
      1856.304        1446.473
  23757436.293    23757436.2704   23757437.8274  124846178.159 6  97282770.94943
      3410.847        2657.798
  23853433.451    23853432.8684   23853436.8744  125350652.017 5  97675850.39541
      1157.575         902.008
  21663404.689    21663404.4784   21663407.1204  113841979.042 7  88708060.70145
         9.744           7.595
  20354319.646    20354318.9254   20354320.9764  106962712.727 8  83347592.92547
      -328.804        -256.211
  23666920.291    23666919.6674   23666921.2654  124370514.901 6  96912108.32943
      2370.686        1847.299
  22140084.523    22140084.0034   22140083.9844  116346971.418 7  90659989.42245
     -2509.862       -1955.739
  22944002.955    22944002.4964   22944006.4674  120571554.742 6  93951892.00444
      -152.253        -118.640
  22401209.277    22401208.7074   22401211.1764  117719171.534 7  91729249.99945
      2280.205        1776.778
  24619846.985    24619846.3824   24619849.3424  129378178.631 5 100814185.82942
      3143.688        2449.633
  23615849.547    23615849.4004   23615851.5124  124102148.555 6  96703002.73643
     -3252.020       -2534.041
  24193131.810    24193132.0544   24193134.2174  127135780.124 5  99066859.52343
     -3772.791       -2939.831
 08  5 10  1  6  0.0000000  0 13G 3G 6G 7G10G13G16G21G23G24G25G27G29
                                G31
  22906636.471    22906635.3244   22906638.6694  120375200.093 6  93798881.74943
      3588.561        2796.271
  21464885.647    21464885.0814   21464888.1494  112798770.104 8  87895164.33946
      1840.131        1433.872
  23737985.900    23737985.2194   23737987.0514  124743961.073 6  97203121.26243
      3403.637        2652.189
  23846882.193    23846881.9534   23846883.7304  125316226.374 5  97649025.19241
      1137.488         886.361
  21663414.172    21663414.1644   21663416.4144  113842029.103 8  88708099.71645
       -13.031         -10.149
  20356247.292    20356246.7034   20356248.6914  106972843.152 8  83355486.78447
      -346.501        -270.002
  23653422.790    23653421.6174   23653423.7214  124299582.027 6  96856835.92643
      2358.200        1837.574
  22154461.622    22154461.1674   22154461.5114  116422524.338 7  90718861.83245
     -2526.964       -1969.070
  22944930.264    22944929.5284   22944933.8084  120576428.386 6  93955689.64143
      -172.653        -134.538
  22388228.700    22388228.0754   22388230.4794  117650954.373 7  91676093.75745
      2267.636        1766.988
  24601912.507    24601911.6294   24601915.7894  129283935.637 5 100740749.81341
      3139.221        2446.162
  23634442.839    23634442.7204   23634444.7714  124199858.484 6  96779140.27943
     -3261.854       -2541.708
  24214682.133    24214682.5214   24214684.4914  127249032.162 5  99155107.85843
     -3777.391       -2943.428
 08  5 10  1  6 30.0000000  0 13G 3G 6G 7G10G13G16G21G23G24G25G27G29
                                G31
  22886174.478    22886174.1154   22886177.7074  120267675.807 6  93715096.61143
      3579.738        2789.392
  21454426.588    21454426.0344   21454429.2714  112743808.256 7  87852336.96446
      1823.950        1421.259
  23718574.061    23718574.1164   23718576.8064  124641957.832 6  97123638.23743
      3396.549        2646.661
  23840445.488    23840444.5294   23840448.1944  125282399.968 5  97622666.97241
      1117.472         870.731
  21663553.784    21663553.5374   21663555.6764  113842761.116 7  88708670.11045
       -35.783         -27.880
  20358275.903    20358275.2204   20358277.2214  106983503.199 8  83363793.31247
      -364.192        -283.788
  23639995.660    23639994.9834   23639997.0754  124229023.708 6  96801855.49643
      2345.658        1827.777
  22168935.739    22168935.4494   22168935.8374  116498586.545 7  90778131.05545
     -2543.902       -1982.257
  22945973.585    22945972.8514   22945976.8644  120581913.467 6  93959963.73843
      -193.074        -150.453
  22375318.081    22375317.7234   22375321.5884  117583114.326 7  91623231.42845
      2255.012        1757.151
  24584003.458    24584004.0444   24584008.8564  129189825.513 5 100667417.33541
      3134.831        2442.729
  23653091.907    23653092.1894   23653094.1054  124297860.955 6  96855505.81243
     -3271.632       -2549.326
  24236260.151    24236260.5534   24236261.7464  127362419.753 6  99243461.85342
     -3781.952       -2946.961
 08  5 10  1  7  0.0000000  0 13G 3G 6G 7G10G13G16G21G23G24G25G27G29
                                G31
  22865764.791    22865763.5864   22865767.5894  120160418.599 6  93631519.52443
      3570.796        2782.445
  21444060.540    21444060.0604   21444063.0584  112689334.009 7  87809889.49046
      1807.739        1408.631
  23699205.074    23699204.2524   23699207.5634  124540173.946 5  97044326.18343
      3389.152        2640.885
  23834124.582    23834123.7824   23834126.9044  125249177.075 5  97596779.02241
      1097.399         855.111
  21663823.539    21663823.2154   21663825.3044  113844178.213 7  88709774.34845
       -58.585         -45.657
  20360405.764    20360405.0704   20360407.0514  106994695.725 8  83372514.79147
      -381.893        -297.580
  23626641.139    23626640.1804   23626642.1594  124158844.631 6  96747170.52843
      2333.009        1817.938
  22183507.166    22183506.5974   22183506.9464  116575158.293 7  90837797.32545
     -2560.769       -1995.401
  22947134.408    22947133.4904   22947137.2694  120588013.416 6  93964716.94243
      -213.495        -166.361
  22362482.378    22362481.6704   22362483.8164  117515656.332 7  91570666.76645
      2242.271        1747.224
  24566121.902    24566121.5374   24566125.0064  129095853.442 5 100594192.46241
      3130.228        2439.146
  23671796.688    23671796.8714   23671799.2034  124396156.424 6  96932099.65843
     -3281.310       -2556.857
  24257863.829    24257863.6794   24257865.7514  127475943.708 6  99331922.09343
     -3786.281       -2950.353
 08  5 10  1  7 30.0000000  0 13G 3G 6G 7G10G13G16G21G23G24G25G27G29
                                G31
  22845405.223    22845405.2694   22845408.3214  120053430.852 6  93548152.38443
      3561.734        2775.382
  21433787.424    21433787.0214   21433789.8564  112635348.325 8  87767822.67146
      1791.448        1395.932
  23679879.335    23679878.7014   23679880.4624  124438610.889 6  96965186.15842
      3381.803        2635.183
  23827917.037    23827916.4374   23827919.9114  125216558.605 5  97571362.05142
      1077.305         839.468
  21664223.220    21664223.2254   21664225.3564  113846279.780 7  88711411.93545
       -81.401         -63.429
  20362636.536    20362635.9874   20362638.0094  107006419.647 8  83381650.38747
      -399.591        -311.375
  23613359.000    23613358.1004   23613359.7394  124089046.683 6  96692782.57743
      2320.281        1808.012
  22198174.142    22198173.8174   22198174.0734  116652236.488 7  90897858.26445
     -2577.598       -2008.517
  22948412.749    22948412.1604   22948415.4164  120594727.240 7  93969948.52644
      -233.950        -182.307
  22349717.769    22349717.3414   22349720.3554  117448581.705 7  91518400.83045
      2229.473        1737.249
  24548266.833    24548265.8604   24548269.2544  129002020.156 5 100521075.66141
      3125.540        2435.492
  23690557.969    23690557.6034   23690559.3004  124494741.627 6  97008919.24843
     -3290.880       -2564.323
  24279491.416    24279491.1894   24279492.9604  127589601.515 5  99420486.59142
     -3790.696       -2953.783
 08  5 10  1  8  0.0000000  0 13G 3G 6G 7G10G13G16G21G23G24G25G27G29
                                G31
  22825098.590    22825097.4684   22825101.0414  119946714.202 6  93464996.54643
      3552.606        2768.262
  21423607.313    21423606.9264   21423609.8984  112581851.580 8  87726136.94746
      1775.059        1383.163
  23660594.064    23660593.8544   23660595.1044  124337269.908 6  96886219.11842
      3374.295        2629.311
  23821824.738    23821824.4734   23821827.6514  125184544.872 6  97546416.27342
      1056.998         823.617
  21664753.257    21664753.1804   21664755.3654  113849064.616 7  88713581.94245
      -104.251         -81.237
  20364968.426    20364967.7974   20364969.7604  107018673.082 8  83391198.52447
      -417.282        -325.157
  23600149.220    23600148.8774   23600150.9484  124019630.635 6  96638692.21143
      2307.422        1797.975
  22212937.368    22212937.3164   22212937.4884  116729817.259 7  90958310.78845
     -2594.409       -2021.618
  22949806.596    22949806.0504   22949809.7364  120602053.508 6  93975657.30344
      -254.453        -198.282
  22337026.993    22337026.5724   22337029.5514  117381891.061 7  91466434.12045
      2216.531        1727.166
  24530436.428    24530436.5444   24530440.0354  128908326.438 5 100448067.61041
      3120.867        2431.850
  23709372.542    23709371.9394   23709374.2444  124593613.030 6  97085961.88243
     -3300.490       -2571.807
  24301144.994    24301145.1214   24301146.3214  127703390.229 6  99509153.18542
     -3795.191       -2957.306
 08  5 10  1  8 30.0000000  0 13G 3G 6G 7G10G13G16G21G23G24G25G27G29
                                G31
  22804842.660    22804842.0294   22804844.8764  119840272.160 6  93382054.76343
      3543.583        2761.227
  21413520.731    21413520.1534   21413523.2714  112528846.399 8  87684834.34446
      1758.622        1370.349
  23641351.758    23641352.2854   23641353.7154  124236154.066 6  96807427.54242
      3366.772        2623.468
  23815848.231    23815847.2364   23815851.2864  125153138.090 5  97521943.44742
      1036.692         807.807
  21665413.596    21665413.3204   21665415.6264  113852534.427 8  88716285.69545
      -127.063         -99.012
  20367401.232    20367400.4734   20367402.4154  107031456.682 8  83401159.75547
      -434.960        -338.931
  23587013.251    23587012.7614   23587014.4884  123950600.011 6  96584902.18543
      2294.531        1787.952
  22227795.984    22227795.7904   22227796.0954  116807899.226 7  91019153.85945
     -2611.014       -2034.562
  22951317.064    22951316.4394   22951320.6644  120609993.229 6  93981844.06843
      -274.866        -214.178
  22324409.903    22324409.5604   22324411.9754  117315587.315 7  91414768.86345
      2203.668        1717.142
  24512634.333    24512633.7984   24512637.3044  128814774.948 5 100375170.40641
      3116.044        2428.094
  23728240.378    23728241.1764   23728243.3884  124692769.209 6  97163226.44243
     -3309.956       -2579.197
  24322822.869    24322822.4644   24322824.6744  127817309.203 5  99597921.15842
     -3799.380       -2960.550
 08  5 10  1  9  0.0000000  0 13G 3G 6G 7G10G13G16G21G23G24G25G27G29
                                G31
  22784640.391    22784639.4504   22784643.1874  119734107.787 6  93299329.30843
      3534.208        2753.924
  21403527.919    21403527.4174   21403530.5814  112476334.774 7  87643916.24346
      1742.168        1357.527
  23622153.618    23622153.7774   23622156.2784  124135266.491 6  96728813.87443
      3359.116        2617.499
  23809987.912    23809987.3584   23809991.0474  125122341.099 6  97497945.79242
      1016.429         792.034
  21666204.168    21666203.9684   21666206.1024  113856689.319 7  88719523.26645
      -149.884        -116.792
  20369934.831    20369934.1674   20369936.0484  107044770.934 8  83411534.49147
      -452.618        -352.687
  23573950.706    23573950.3764   23573953.0984  123881958.237 6  96531415.09943
      2281.527        1777.804
  22242749.141    22242749.0504   22242749.6944  116886480.725 7  91080386.16344
     -2627.641       -2047.514
  22952944.711    22952943.8234   22952947.8844  120618547.215 6  93988509.49843
      -295.298        -230.097
  22311866.778    22311866.4014   22311869.4574  117249673.384 7  91363407.36345
      2190.653        1706.999
  24494859.759    24494859.8514   24494863.4354  128721368.516 5 100302386.23741
      3111.116        2424.271
  23747163.176    23747163.4694   23747165.9064  124792208.732 6  97240711.77743
     -3319.280       -2586.444
  24344524.478    24344525.0234   24344526.9494  127931356.803 5  99686789.44142
     -3803.692       -2963.934
 08  5 10  1  9 30.0000000  0 13G 3G 6G 7G10G13G16G21G23G24G25G27G29
                                G31
  22764490.845    22764489.8924   22764494.0824  119628223.233 6  93216821.82143
      3524.880        2746.644
  21393629.311    21393628.8484   21393631.9694  112424317.856 7  87603383.60746
      1725.694        1344.695
  23602999.365    23602999.2414   23603002.1334  124034609.281 6  96650379.70043
      3351.485        2611.539
  23804243.414    23804242.1894   23804245.7874  125092154.143 6  97474423.49842
       996.136         776.198
  21667125.215    21667124.9244   21667126.8794  113861529.252 7  88723294.64145
      -172.678        -134.554
  20372569.119    20372568.6644   20372570.5334  107058615.206 8  83422322.24547
      -470.250        -366.431
  23560963.777    23560962.9634   23560965.3934  123813708.081 6  96478233.19643
      2268.506        1767.665
  22257797.732    22257797.4824   22257797.7234  116965558.445 7  91142005.15144
     -2644.080       -2060.323
  22954689.176    22954688.5054   22954692.1224  120627714.965 6  93995653.21043
      -315.720        -246.025
  22299398.479    22299397.9424   22299400.4844  117184150.898 7  91312350.89945
      2177.612        1696.845
  24477112.776    24477112.4964   24477116.5454  128628108.485 5 100229716.17041
      3106.336        2420.519
  23766138.776    23766138.9204   23766142.2164  124891928.698 5  97318415.62443
     -3328.619       -2593.728
  24366251.914    24366251.6784   24366254.0364  128045531.368 5  99775756.66342
     -3807.852       -2967.177
 08  5 10  1 10  0.0000000  0 13G 3G 6G 7G10G13G16G21G23G24G25G27G29
                                G31
  22744395.227    22744394.7454   22744398.3174  119522618.903 6  93134532.74043
      3515.480        2739.332
  21383824.925    21383824.4634   21383827.2854  112372794.568 8  87563235.62246
      1709.162        1331.811
  23583888.872    23583888.9354   23583891.5934  123934182.565 6  96572125.17143
      3343.693        2605.464
  23798614.334    23798613.4324   23798617.9574  125062576.344 5  97451375.86942
       975.693         760.289
  21668175.808    21668175.6854   21668177.8144  113867051.555 8  88727597.73145
      -195.481        -152.318
  20375303.939    20375303.4164   20375305.2344  107072986.311 8  83433520.51947
      -487.850        -380.143
  23548049.801    23548049.4164   23548051.3484  123745848.638 6  96425355.74143
      2255.422        1757.464
  22272939.308    22272938.7194   22272939.2434  117045127.786 7  91204007.22544
     -2660.512       -2073.128
  22956550.857    22956550.3054   22956553.6734  120637493.675 7  94003272.97343
      -336.167        -261.953
  22287003.907    22287003.4584   22287006.3104  117119019.049 7  91261598.81545
      2164.527        1686.647
  24459393.915    24459392.8774   24459397.3954  128534993.977 5 100157159.46742
      3101.412        2416.705
  23785168.220    23785168.1724   23785170.6414  124991924.291 6  97396334.26943
     -3337.739       -2600.832
  24388001.967    24388001.9404   24388003.7454  128159828.261 5  99864819.15543
     -3811.912       -2970.324
 08  5 10  1 10 30.0000000  0 13G 3G 6G 7G10G13G16G21G23G24G25G27G29
                                G31
  22724353.779    22724353.1644   22724356.3664  119417297.917 6  93052464.48443
      3506.047        2731.992
  21374114.357    21374114.1134   21374117.3514  112321767.155 8  87523474.01546
      1692.655        1318.955
  23564822.625    23564822.1734   23564824.0934  123833989.245 6  96494052.46043
      3335.884        2599.394
  23793102.041    23793101.3664   23793105.5694  125033609.598 5  97428804.37842
       955.368         744.445
  21669356.778    21669356.8464   21669358.9644  113873257.555 7  88732433.58245
      -218.217        -170.037
  20378139.119    20378138.5674   20378140.4114  107087885.109 8  83445129.95047
      -505.397        -393.814
  23535211.670    23535211.0314   23535212.9894  123678383.059 6  96372785.19543
      2242.297        1747.239
  22288173.758    22288173.2534   22288174.0934  117125186.842 7  91266390.90344
     -2676.738       -2085.766
  22958527.503    22958527.0874   22958531.5594  120647884.143 6  94011369.46744
      -356.517        -277.797
  22274684.569    22274684.3924   22274687.4844  117054280.576 7  91211153.25945
      2151.392        1676.411
  24441703.470    24441702.0484   24441705.5084  128442027.929 5 100084718.43742
      3096.304        2412.711
  23804248.516    23804247.9794   23804251.1734  125092194.038 6  97474466.51743
     -3346.805       -2607.894
  24409775.175    24409775.0364   24409776.6664  128274246.858 5  99953976.45542
     -3815.849       -2973.358
 08  5 10  1 11  0.0000000  0 13G 3G 6G 7G10G13G16G21G23G24G25G27G29
                                G31
  22704365.546    22704365.2124   22704368.9914  119312263.517 6  92970619.55243
      3496.278        2724.358
  21364499.024    21364498.6274   21364501.7704  112271237.465 8  87484100.26646
      1675.990        1305.965
  23545801.366    23545801.3714   23545802.8264  123734031.907 5  96416163.62842
      3327.878        2593.143
  23787707.075    23787705.8544   23787709.9424  125005255.729 5  97406710.45442
       934.776         728.401
  21670667.914    21670667.6074   21670669.8744  113880146.889 8  88737801.90145
      -241.063        -187.836
  20381074.733    20381074.0984   20381075.9214  107103311.271 8  83457150.32047
      -523.029        -407.553
  23522448.380    23522448.2234   23522449.9154  123611314.430 6  96320523.95143
      2228.958        1736.857
  22303501.599    22303500.9664   22303501.9054  117205733.404 7  91329154.44944
     -2693.018       -2098.455
  22960620.580    22960620.5664   22960625.0484  120658886.091 6  94019942.37043
      -376.951        -293.724
  22262440.932    22262440.3844   22262443.1054  116989937.852 7  91161016.08845
      2138.093        1666.052
  24424040.093    24424039.3174   24424044.5084  128349212.239 5 100012394.49541
      3091.174        2408.710
  23823381.634    23823381.1124   23823383.2554  125192735.285 6  97552810.30943
     -3355.871       -2614.956
  24431570.620    24431570.8754   24431573.0824  128388785.183 5 100043227.07942
     -3819.954       -2976.576
 08  5 10  1 11 30.0000000  0 13G 3G 6G 7G10G13G16G21G23G24G25G27G29
                                G31
  22684433.104    22684433.0564   22684435.9394  119207517.153 6  92888999.08543
      3486.674        2716.888
  21354978.237    21354978.0004   21354981.1684  112221206.149 8  87445114.84146
      1659.371        1293.016
  23526825.494    23526825.7104   23526827.7504  123634312.405 6  96338460.15643
      3319.943        2586.968
  23782427.251    23782426.6174   23782431.1034  124977515.608 5  97385094.78742
       914.430         712.537
  21672108.948    21672108.8374   21672110.8914  113887719.194 7  88743702.41345
      -263.817        -205.571
  20384110.281    20384109.6384   20384111.5404  107119263.647 8  83469580.77247
      -540.517        -421.186
  23509761.251    23509761.2124   23509763.3404  123544644.243 6  96268573.24943
      2215.662        1726.488
  22318921.048    22318920.6364   22318921.3814  117286764.008 7  91392295.17844
     -2709.078       -2110.967
  22962830.840    22962830.1494   22962834.1304  120670498.781 6  94028991.22143
      -397.289        -309.570
  22250272.269    22250271.9034   22250274.4724  116925991.948 7  91111188.11445
      2124.880        1655.752
  24406406.563    24406406.3014   24406409.3044  128256548.468 5  99940188.97941
      3086.213        2404.814
  23842564.357    23842564.7044   23842566.8554  125293545.578 6  97631363.78243
     -3364.803       -2621.923
  24453389.272    24453389.0014   24453389.9934  128503440.810 5 100132569.12342
     -3823.837       -2979.624
 08  5 10  1 12  0.0000000  0 13G 3G 6G 7G10G13G16G21G23G24G25G27G29
                                G31
  22664555.609    22664555.1634   22664559.3734  119103062.031 6  92807605.55443
      3476.927        2709.290
  21345553.094    21345552.5724   21345555.7494  112171675.197 8  87406519.28046
      1642.640        1279.979
  23507895.686    23507895.0474   23507897.4834  123534833.600 6  96260944.22443
      3311.841        2580.668
  23777265.824    23777265.2014   23777270.0684  124950390.757 5  97363958.55442
       893.868         696.519
  21673679.765    21673679.7094   21673681.5934  113895974.923 8  88750135.45745
      -286.622        -223.343
  20387246.061    20387245.4234   20387247.2974  107135742.176 8  83482421.17347
      -558.105        -434.888
  23497151.787    23497150.4374   23497152.5604  123478375.451 6  96216935.24843
      2202.206        1716.008
  22334431.924    22334431.6404   22334432.3514  117368276.764 7  91455811.58044
     -2725.141       -2123.488
  22965157.224    22965157.0284   22965160.3724  120682722.844 6  94038516.46843
      -417.732        -325.507
  22238179.978    22238179.4824   22238182.2324  116862445.572 7  91061671.46045
      2111.508        1645.329
  24388803.658    24388802.6984   24388806.7174  128164039.106 5  99868103.82641
      3081.113        2400.855
  23861798.805    23861799.2824   23861801.5324  125394622.919 6  97710125.34243
     -3373.651       -2628.811
  24475229.340    24475228.8804   24475231.4504  128618212.646 5 100222001.73442
     -3827.763       -2982.650
 08  5 10  1 12 30.0000000  0 13G 3G 6G 7G10G13G16G21G23G24G25G27G29
                                G31
  22644735.005    22644734.5724   22644738.1494  118998901.074 6  92726441.26943
      3467.114        2701.646
  21336223.407    21336222.7794   21336225.7834  112122646.451 8  87368315.12246
      1625.958        1266.978
  23489011.409    23489011.2674   23489013.9234  123435598.196 6  96183617.99243
      3303.766        2574.352
  23772221.679    23772221.3124   23772225.9294  124923882.921 5  97343303.08042
       873.351         680.534
  21675381.163    21675380.8644   21675382.4864  113904914.216 7  88757101.13745
      -309.319        -241.026
  20390482.023    20390481.3124   20390483.1704  107152746.757 8  83495671.49047
      -575.534        -448.469
  23484618.055    23484617.0044   23484619.3924  123412510.651 6  96165612.10243
      2188.819        1705.574
  22350034.874    22350034.7484   22350035.1054  117450269.345 7  91519701.91844
     -2740.998       -2135.843
  22967599.716    22967599.1334   22967602.9374  120695557.946 6  94048517.83643
      -437.935        -341.251
  22226163.312    22226162.8274   22226166.1564  116799300.788 7  91012467.75345
      2098.167        1634.932
  24371229.163    24371228.8954   24371231.8874  128071686.087 5  99796140.53942
      3075.840        2396.751
  23881084.542    23881083.7634   23881086.5704  125495965.138 6  97789093.27943
     -3382.404       -2635.639
  24497090.807    24497091.1634   24497093.9974  128733099.168 5 100311523.67442
     -3831.401       -2985.497
 08  5 10  1 13  0.0000000  0 13G 3G 6G 7G10G13G16G21G23G24G25G27G29
                                G31
  22624969.992    22624969.3424   22624972.4724  118895035.616 6  92645507.19043
      3457.178        2693.900
  21326988.784    21326988.3984   21326991.5034  112074120.084 8  87330502.37846
      1609.131        1253.867
  23470173.964    23470173.7074   23470176.2834  123336607.704 6  96106482.54743
      3295.490        2567.924
  23767295.073    23767294.2914   23767299.2464  124897992.606 5  97323128.85442
       852.630         664.394
  21677211.667    21677211.7894   21677213.3914  113914535.974 7  88764598.62045
      -332.145        -258.816
  20393817.529    20393816.9774   20393818.9004  107170276.141 8  83509330.75147
      -593.107        -462.167
  23472162.084    23472160.4414   23472162.7154  123347051.455 6  96114604.95543
      2175.147        1694.924
  22365728.564    22365728.1474   22365728.4584  117532738.166 7  91583963.33944
     -2756.928       -2148.255
  22970157.875    22970157.5214   22970161.9804  120709003.279 6  94058994.71443
      -458.338        -357.149
  22214224.685    22214224.2144   22214226.4974  116736558.677 7  90963577.80345
      2084.630        1624.383
  24353684.853    24353683.6414   24353688.0484  127979490.309 5  99724299.73642
      3070.619        2392.691
  23900418.116    23900418.1034   23900420.6594  125597569.071 5  97868265.14343
     -3391.157       -2642.457
  24518976.010    24518975.4454   24518977.1604  128848097.899 5 100401133.02642
     -3835.189       -2988.469
 08  5 10  1 13 30.0000000  0 13G 3G 6G 7G10G13G16G21G23G24G25G27G29
                                G31
  22605261.878    22605261.2944   22605265.1734  118791471.241 6  92564807.69444
      3447.207        2686.135
  21317850.861    21317850.5424   21317853.7504  112026100.554 8  87293084.55646
      1592.255        1240.718
  23451384.695    23451384.5294   23451386.9264  123237867.473 6  96029542.13143
      3287.236        2561.481
  23762485.550    23762485.7204   23762489.9994  124872723.485 5  97303438.62642
       832.012         648.339
  21679173.098    21679173.1364   21679175.3004  113924843.163 8  88772630.20245
      -354.928        -276.564
  20397253.497    20397253.0204   20397254.9474  107188332.712 8  83523400.81047
      -610.600        -475.791
  23459782.485    23459782.1914   23459783.8404  123282002.844 6  96063917.66843
      2161.461        1684.258
  22381513.439    22381512.1314   22381512.2854  117615683.645 7  91648596.18444
     -2772.663       -2160.508
  22972833.514    22972832.8804   22972836.9194  120723061.195 6  94069948.92843
      -478.702        -373.015
  22202362.511    22202362.0844   22202364.8334  116674223.961 7  90915005.30645
      2071.088        1613.836
  24336171.287    24336170.8914   24336174.1714  127887456.366 5  99652584.86942
      3065.112        2388.410
  23919802.914    23919802.5044   23919805.8414  125699435.266 6  97947641.33543
     -3399.771       -2649.170
  24540880.599    24540880.8304   24540882.9464  128963209.561 5 100490830.43742
     -3838.872       -2991.329
 08  5 10  1 14  0.0000000  0 13G 3G 6G 7G10G13G16G21G23G24G25G27G29
                                G31
  22585612.074    22585611.3954   22585615.3664  118688209.693 6  92484344.21344
      3436.987        2678.165
  21308809.673    21308809.2694   21308812.3914  111978588.232 8  87256061.97646
      1575.264        1227.476
  23432642.782    23432642.6804   23432644.9414  123139378.843 6  95952797.76743
      3278.772        2554.890
  23757795.407    23757794.1544   23757800.3004  124848075.846 5  97284232.69341
       811.200         632.079
  21681264.924    21681264.9584   21681267.0354  113935834.388 7  88781194.80245
      -377.763        -294.362
  20400789.723    20400789.0724   20400790.9714  107206914.947 8  83537880.48947
      -628.152        -489.473
  23447483.132    23447482.5254   23447484.7534  123217366.355 6  96013551.58043
      2147.631        1673.474
  22397386.910    22397386.2234   22397386.4334  117699101.893 7  91713597.41444
     -2788.463       -2172.826
  22975625.294    22975624.3784   22975628.3714  120737730.164 6  94081379.29143
      -499.138        -388.947
  22190578.322    22190578.0484   22190580.4634  116612297.611 7  90866751.01345
      2057.380        1603.154
  24318688.037    24318687.4694   24318692.7064  127795585.494 5  99580997.19542
      3059.650        2384.142
  23939236.470    23939236.4024   23939239.3114  125801560.104 5  98027219.07243
     -3408.396       -2655.888
  24562806.894    24562806.4194   24562808.8364  129078431.692 5 100580613.89542
     -3842.625       -2994.264
 08  5 10  1 14 30.0000000  0 13G 3G 6G 7G10G13G16G21G23G24G25G27G29
                                G31
  22566020.158    22566019.6284   22566023.3334  118585253.285 6  92404118.48344
      3426.763        2670.198
  21299865.218    21299864.7084   21299867.7794  111931584.145 8  87219435.45346
      1558.314        1214.272
  23413948.667    23413948.9134   23413951.0334  123041143.806 6  95876251.01043
      3270.234        2548.230
  23753224.456    23753222.8134   23753228.0214  124824050.709 5  97265511.81642
       790.466         615.937
  21683486.463    21683486.4774   21683488.7874  113947509.060 8  88790291.96145
      -400.559        -312.120
  20404425.623    20404425.0244   20404426.9034  107226022.002 8  83552769.10847
      -645.652        -503.104
  23435261.781    23435261.1594   23435263.4274  123153144.476 6  95963508.70143
      2133.792        1662.695
  22413349.848    22413349.5844   22413349.8014  117782990.265 7  91778964.97444
     -2804.108       -2185.028
  22978531.906    22978531.8904   22978535.7934  120753009.781 6  94093285.49943
      -519.535        -404.829
  22178871.688    22178871.4074   22178874.1654  116550781.217 7  90818816.17045
      2043.696        1592.488
  24301237.629    24301236.9854   24301241.4744  127703879.560 5  99509538.09542
      3054.043        2379.774
  23958719.987    23958719.9954   23958722.1554  125903941.261 6  98106996.58443
     -3416.929       -2662.543
  24584753.178    24584753.3904   24584754.4704  129193762.044 5 100670481.67842
     -3846.206       -2997.028
 08  5 10  1 15  0.0000000  0 13G 3G 6G 7G10G13G16G21G23G24G25G27G29
                                G31
  22546487.411    22546486.5084   22546490.0044  118482605.440 6  92324133.16944
      3416.401        2662.126
  21291017.880    21291017.3354   21291020.3324  111885090.497 8  87183206.65446
      1541.248        1200.973
  23395304.327    23395304.5664   23395306.8324  122943165.698 6  95799904.35843
      3261.539        2541.489
  23748771.579    23748771.4274   23748775.6374  124800649.895 5  97247277.42242
       769.602         599.703
  21685838.824    21685838.5304   21685840.5054  113959868.096 8  88799922.38045
      -423.408        -329.931
  20408161.622    20408160.9504   20408162.8394  107245654.483 8  83568067.15547
      -663.203        -516.786
  23423120.334    23423120.0684   23423121.6414  123089339.718 6  95913790.77343
      2119.806        1651.791
  22429402.073    22429401.8054   22429402.4334  117867347.074 7  91844697.54644
     -2819.698       -2197.171
  22981556.515    22981555.6944   22981559.5864  120768900.585 6  94105667.95943
      -539.884        -420.693
  22167244.573    22167244.1894   22167246.7874  116489677.697 7  90771203.04645
      2029.839        1581.690
  24283818.595    24283817.6714   24283821.1684  127612341.011 6  99438209.47342
      3048.491        2375.445
  23978250.478    23978250.8714   23978252.3984  126006577.186 6  98186972.60043
     -3425.409       -2669.147
  24606720.578    24606720.3094   24606720.8604  129309199.642 5 100760433.02742
     -3849.751       -2999.810
 08  5 10  1 15 30.0000000  0 13G 3G 6G 7G10G13G16G21G23G24G25G27G29
                                G31
  22527012.474    22527012.3174   22527015.5904  118380268.621 6  92244390.23444
      3406.110        2654.111
  21282267.665    21282267.2534   21282270.1264  111839108.395 8  87147376.46246
      1524.301        1187.762
  23376709.527    23376709.4214   23376711.6604  122845447.067 6  95723759.94943
      3253.036        2534.823
  23744437.192    23744436.2874   23744441.9854  124777874.103 5  97229530.06042
       748.850         583.519
  21688320.306    21688320.1174   21688322.3304  113972910.678 8  88810085.44145
      -446.047        -347.571
  20411997.305    20411996.6594   20411998.4974  107265811.195 8  83583773.67747
      -680.539        -530.290
  23411058.294    23411057.9104   23411060.1604  123025953.897 6  95864399.25543
      2105.861        1640.920
  22445543.447    22445542.8734   22445543.7064  117952168.567 7  91910792.20944
     -2835.033       -2209.122
  22984696.139    22984695.9874   22984700.0154  120785401.699 6  94118525.96243
      -560.107        -436.449
  22155695.119    22155694.8354   22155697.8104  116428988.486 7  90723912.77445
      2016.117        1571.004
  24266431.807    24266430.8674   24266435.1094  127520971.108 5  99367012.15942
      3042.892        2371.088
  23997829.327    23997830.0984   23997830.7074  126109465.025 6  98267144.97042
     -3433.582       -2675.523
  24628706.836    24628706.8864   24628709.2234  129424742.323 5 100850466.34342
     -3853.011       -3002.354
 08  5 10  1 16  0.0000000  0 13G 3G 6G 7G10G13G16G21G23G24G25G27G29
                                G31
  22507597.533    22507597.0104   22507600.5204  118278242.536 6  92164889.47244
      3395.663        2645.979
  21273614.763    21273614.1864   21273617.1164  111793636.485 8  87111943.81546
      1507.214        1174.452
  23358163.757    23358163.5364   23358165.8554  122747987.555 6  95647817.47444
      3244.304        2528.033
  23740222.742    23740221.8404   23740225.7934  124755722.649 5  97212269.21942
       727.981         567.245
  21690931.369    21690931.3574   21690933.5144  113986634.118 7  88820779.04645
      -468.810        -365.308
  20415932.215    20415931.5974   20415933.4544  107286489.500 8  83599886.64647
      -697.970        -543.872
  23399075.366    23399075.5884   23399077.1504  122962987.624 6  95815334.66443
      2091.904        1630.041
  22461772.288    22461771.5454   22461772.1254  118037450.325 7  91977245.50744
     -2850.384       -2221.081
  22987952.324    22987951.6574   22987955.5994  120802510.592 7  94131857.55643
      -580.426        -452.270
  22144225.968    22144225.3294   22144227.4894  116368712.994 7  90676944.85745
      2002.278        1560.215
  24249076.769    24249076.4534   24249079.6864  127429769.772 5  99295946.16742
      3037.316        2366.735
  24017453.701    24017454.7124   24017456.9154  126212600.045 5  98347509.89242
     -3441.850       -2681.953
  24650714.270    24650713.1744   24650716.6724  129540385.482 5 100940577.82442
     -3856.331       -3004.940
 08  5 10  1 16 30.0000000  0 13G 3G 6G 7G10G13G16G21G23G24G25G27G29
                                G31
  22488242.158    22488241.8544   22488245.5814  118176530.742 6  92085633.62244
      3385.143        2637.770
  21265059.024    21265058.7014   21265061.6684  111748676.679 8  87076910.22546
      1490.122        1161.134
  23339667.579    23339666.9344   23339670.3384  122650789.967 6  95572079.13343
      3235.577        2521.219
  23736126.852    23736125.3564   23736130.3504  124734196.658 6  97195495.70642
       707.096         550.986
  21693672.466    21693672.2744   21693674.5634  114001038.583 7  88832003.31545
      -491.480        -382.970
  20419966.298    20419965.7254   20419967.5654  107307689.067 8  83616405.77047
      -715.335        -557.404
  23387174.034    23387173.3654   23387175.8154  122900443.274 6  95766598.86343
      2077.751        1619.027
  22478087.116    22478086.7324   22478087.4334  118123189.967 7  92044055.61444
     -2865.573       -2232.916
  22991322.808    22991322.4674   22991326.7414  120820226.946 6  94145662.49643
      -600.679        -468.059
  22132834.482    22132834.1004   22132837.0214  116308853.633 7  90630301.20245
      1988.349        1549.364
  24231754.419    24231753.2514   24231756.5964  127338739.134 5  99225013.19642
      3031.478        2362.181
  24037127.265    24037127.5984   24037130.2604  126315980.510 5  98428066.08942
     -3450.071       -2688.372
  24672737.445    24672737.8294   24672740.9724  129656128.329 5 101030767.04242
     -3859.736       -3007.569
 08  5 10  1 17  0.0000000  0 13G 3G 6G 7G10G13G16G21G23G24G25G27G29
                                G31
  22468948.040    22468947.3384   22468950.7584  118075136.277 6  92006624.97344
      3374.445        2629.432
  21256601.304    21256600.9394   21256603.7854  111704231.144 8  87042277.38846
      1472.853        1147.677
  23321222.113    23321221.7984   23321224.1344  122553857.970 6  95496547.83244
      3226.531        2514.168
  23732148.722    23732148.3614   23732152.0304  124713297.782 6  97179210.87642
       686.057         534.595
  21696543.016    21696543.0454   21696545.3004  114016124.773 7  88843758.79845
      -514.292        -400.746
  20424099.703    20424099.1114   20424101.0004  107329410.076 8  83633331.18547
      -732.815        -571.026
  23375353.687    23375353.2264   23375355.0384  122838324.000 6  95718194.19643
      2063.473        1607.909
  22494490.249    22494489.6674   22494490.4604  118209385.820 7  92111221.21144
     -2880.830       -2244.807
  22994810.115    22994809.5654   22994814.2934  120838551.412 6  94159941.28243
      -621.090        -483.966
  22121523.546    22121523.1094   22121525.8684  116249413.163 7  90583983.94545
      1974.240        1538.372
  24214464.417    24214463.4374   24214467.0604  127247882.214 5  99154215.63442
      3025.487        2357.513
  24056846.948    24056846.7384   24056849.5314  126419604.825 5  98508812.28442
     -3458.281       -2694.783
  24694782.320    24694782.4774   24694784.1474  129771969.997 5 101121033.36141
     -3863.113       -3010.229
 08  5 10  1 17 30.0000000  0 13G 3G 6G 7G10G13G16G21G23G24G25G27G29
                                G31
  22449713.766    22449713.3644   22449716.2544  117974060.644 6  91927864.79644
      3363.775        2621.127
  21248241.531    21248240.9864   21248243.9114  111660300.285 8  87008045.56146
      1455.717        1134.326
  23302827.466    23302826.8344   23302828.4514  122457193.007 6  95421224.54143
      3217.630        2507.240
  23728292.284    23728290.9284   23728294.9464  124693026.350 6  97163414.93342
       665.196         518.331
  21699544.161    21699543.9184   21699545.6574  114031891.494 7  88856044.55145
      -536.918        -418.375
  20428332.121    20428331.5794   20428333.4684  107351651.594 8  83650662.23447
      -750.112        -584.502
  23363614.356    23363613.5054   23363615.3324  122776631.500 6  95670122.13543
      2049.211        1596.790
  22510979.158    22510978.4004   22510978.9954  118296034.121 7  92178739.39044
     -2895.824       -2256.480
  22998413.228    22998412.2874   22998416.4544  120857482.553 6  94174692.80943
      -641.181        -499.622
  22110291.987    22110291.6664   22110294.6114  116190392.761 7  90537994.02545
      1960.279        1527.489
  24197208.040    24197207.9704   24197211.5084  127157200.152 5  99083554.32342
      3019.754        2353.051
  24076611.918    24076612.0984   24076614.2584  126523469.993 6  98589746.12943
     -3466.228       -2700.958
  24716843.553    24716843.6704   24716846.7414  129887907.846 5 101211374.51542
     -3866.264       -3012.690
 08  5 10  1 18  0.0000000  0 13G 3G 6G 7G10G13G16G21G23G24G25G27G29
                                G31
  22430540.381    22430539.8124   22430543.0624  117873303.819 6  91849353.01944
      3353.149        2612.843
  21239979.324    21239978.8504   21239981.8194  111616882.395 8  86974213.44846
      1438.656        1121.029
  23284482.940    23284482.5744   23284485.4104  122360794.423 6  95346108.77443
      3208.758        2500.333
  23724554.227    23724552.8854   23724555.8714  124673380.675 6  97148106.63442
       644.353         502.100
  21702673.053    21702673.0344   21702674.7614  114048335.203 7  88868857.84345
      -559.435        -435.919
  20432662.889    20432662.3254   20432664.3094  107374409.964 8  83668396.00647
      -767.252        -597.859
  23351955.388    23351954.3474   23351956.3384  122715364.676 6  95622381.79543
      2035.088        1585.771
  22527552.755    22527552.2304   22527552.7924  118383129.350 7  92246605.79744
     -2910.640       -2268.033
  23002130.329    23002129.7534   23002133.4664  120877016.964 6  94189914.43143
      -661.214        -515.235
  22099141.172    22099140.7234   22099143.3164  116131791.197 7  90492330.45145
      1946.356        1516.642
  24179985.494    24179984.7864   24179987.9144  127066692.201 6  99013028.72942
      3013.966        2348.535
  24096421.910    24096421.8444   24096423.9854  126627570.854 6  98670863.66043
     -3473.992       -2707.001
  24738925.137    24738924.6564   24738926.3034  130003936.988 5 101301786.83642
     -3869.182       -3014.965
 08  5 10  1 18 30.0000000  0 13G 3G 6G 7G10G13G16G21G23G24G25G27G29
                                G31
  22411429.054    22411428.6594   22411431.8484  117772872.760 7  91771095.06044
      3342.232        2604.341
  21231816.050    21231815.4594   21231818.4994  111573983.418 8  86940785.64346
      1421.308        1107.511
  23266191.073    23266190.6764   23266193.4734  122264669.349 6  95271206.18144
      3199.548        2493.165
  23720935.126    23720933.8084   23720937.7104  124654366.006 6  97133290.00942
       623.251         485.657
  21705931.926    21705931.8744   21705933.6244  114065460.242 7  88882202.02145
      -582.215        -453.671
  20437092.852    20437092.2514   20437094.2174  107397689.326 8  83686535.79847
      -784.657        -611.416
  23340378.333    23340377.8594   23340380.0214  122654530.973 6  95574978.92243
      2020.574        1574.475
  22544211.061    22544210.8354   22544211.4694  118470673.290 6  92314821.84644
     -2925.567       -2279.658
  23005963.019    23005962.6494   23005966.3314  120897158.934 6  94205609.45243
      -681.543        -531.072
  22088070.243    22088069.7484   22088072.2814  116073615.172 7  90446998.49445
      1932.075        1505.513
  24162795.792    24162795.0914   24162798.8284  126976364.100 5  98942643.12442
      3007.895        2343.841
  24116277.186    24116276.4824   24116279.3834  126731909.548 6  98752166.53643
     -3481.890       -2713.144
  24761022.972    24761022.4264   24761023.5804  130120060.381 5 101392272.65742
     -3872.324       -3017.396
 08  5 10  1 19  0.0000000  0 13G 3G 6G 7G10G13G16G21G23G24G25G27G29
                                G31
  22392380.166    22392379.4344   22392382.3154  117672768.352 7  91693091.70344
      3331.282        2595.802
  21223751.081    21223750.7224   21223753.6924  111531602.571 8  86907761.59346
      1404.003        1094.029
  23247951.558    23247951.4324   23247953.6864  122168818.353 6  95196517.04844
      3190.408        2486.035
  23717437.365    23717436.2054   23717438.4254  124635982.131 6  97118964.89342
       602.253         469.290
  21709320.038    21709319.7254   21709321.6244  114083264.400 8  88896075.39345
      -604.817        -471.283
  20441621.270    20441620.7034   20441622.7174  107421487.101 8  83705079.52647
      -801.937        -624.884
  23328885.155    23328884.8094   23328886.0734  122594130.777 6  95527913.89743
      2006.072        1563.171
  22560955.450    22560954.9254   22560955.2284  118558661.490 7  92383384.11844
     -2940.343       -2291.175
  23009910.794    23009910.2544   23009914.1324  120917906.012 6  94221775.99343
      -701.681        -546.760
  22077080.929    22077080.3604   22077082.9354  116015864.660 7  90401998.11645
      1917.884        1494.455
  24145641.012    24145640.5674   24145644.6554  126886216.094 5  98872397.83642
      3001.845        2339.103
  24136175.890    24136175.1314   24136179.1044  126836481.837 5  98833651.37442
     -3489.665       -2719.226
  24783137.285    24783136.4324   24783138.7144  130236274.667 5 101482829.18241
     -3875.309       -3019.728
 08  5 10  1 19 30.0000000  0 13G 3G 6G 7G10G13G16G21G23G24G25G27G29
                                G31
  22373393.116    22373392.4454   22373395.9834  117572993.660 6  91615345.23444
      3320.362        2587.287
  21215785.381    21215784.9894   21215787.9264  111489741.953 8  86875142.92146
      1386.693        1080.536
  23229763.745    23229763.1964   23229766.1914  122073244.837 6  95122044.25343
      3181.179        2478.836
  23714058.978    23714057.7244   23714060.6774  124618229.985 6  97105132.04942
       581.172         452.877
  21712837.004    21712836.8014   21712838.8744  114101747.642 8  88910477.90445
      -627.415        -488.889
  20446248.432    20446247.9064   20446249.8604  107445803.147 8  83724027.13047
      -819.151        -638.303
  23317474.010    23317473.5724   23317474.9934  122534166.573 6  95481188.53443
      1991.547        1551.848
  22577782.765    22577782.4634   22577782.7124  118647091.771 7  92452290.83344
     -2954.999       -2302.602
  23013974.431    23013974.2684   23013977.4564  120939257.927 6  94238413.84143
      -721.794        -562.438
  22066172.178    22066171.9814   22066174.7874  115958541.929 7  90357331.07745
      1903.618        1483.337
  24128522.336    24128521.5584   24128524.5964  126796251.400 6  98802295.55242
      2995.804        2334.393
  24156119.964    24156119.4304   24156122.1504  126941285.577 5  98915316.54642
     -3497.273       -2725.154
  24805269.246    24805268.8744   24805270.0914  130352577.926 5 101573455.19142
     -3878.140       -3021.966
 08  5 10  1 20  0.0000000  0 13G 3G 6G 7G10G13G16G21G23G24G25G27G29
                                G31
  22354469.285    22354468.7034   22354472.3984  117473549.955 6  91537856.69244
      3309.185        2578.585
  21207918.364    21207917.9614   21207920.8514  111448400.839 8  86842929.06446
      1369.376        1067.044
  23211630.204    23211629.8054   23211631.8244  121977949.002 6  95047787.80943
      3171.821        2471.553
  23710801.187    23710799.3894   23710802.5744  124601108.861 6  97091790.91742
       560.120         436.457
  21716483.135    21716482.8514   21716484.7764  114120907.657 7  88925407.77845
      -649.976        -506.470
  20450974.060    20450973.3714   20450975.2804  107470635.437 8  83743376.96447
      -836.380        -651.724
  23306146.281    23306145.6524   23306147.7794  122474639.005 6  95434803.44443
      1976.935        1540.472
  22594693.878    22594693.4254   22594694.0654  118735959.587 7  92521538.46844
     -2969.548       -2313.940
  23018152.440    23018151.4354   23018155.5384  120961212.785 6  94255521.50843
      -741.907        -578.117
  22055346.216    22055345.5634   22055348.1014  115901647.393 7  90312997.69245
      1889.305        1472.180
  24111436.921    24111436.4364   24111439.4114  126706469.792 6  98732335.84642
      2989.580        2329.532
  24176105.926    24176105.8744   24176108.8874  127046317.454 5  98997159.56442
     -3504.947       -2731.129
  24827415.211    24827416.0544   24827418.0934  130468967.104 5 101664148.05942
     -3881.118       -3024.222
 08  5 10  1 20 30.0000000  0 13G 3G 6G 7G10G13G16G21G23G24G25G27G29
                                G31
  22335609.729    22335609.5214   22335612.5694  117374442.335 7  91460629.98844
      3298.070        2569.924
  21200151.107    21200150.6754   21200153.5514  111407583.387 8  86811123.27846
      1351.905        1053.429
  23193549.533    23193549.7674   23193551.2884  121882936.550 6  94973752.13043
      3162.399        2464.198
  23707663.348    23707662.7104   23707665.4904  124584622.733 6  97078944.57442
       539.062         420.036
  21720258.104    21720258.0814   21720260.1684  114140746.814 7  88940866.83945
      -672.528        -524.044
  20455798.090    20455797.4364   20455799.2964  107495985.952 8  83763130.61147
      -853.549        -665.101
  23294902.553    23294902.1064   23294904.1724  122415552.688 6  95388762.17443
      1962.258        1529.030
  22611687.975    22611687.7124   22611688.5174  118825265.280 7  92591127.30844
     -2984.010       -2325.197
  23022444.674    23022444.2784   23022448.6214  120983772.591 6  94273100.58543
      -761.981        -593.752
  22044601.243    22044601.0174   22044603.8884  115845185.574 7  90269001.48645
      1874.919        1460.975
  24094387.852    24094387.0384   24094390.3704  126616876.540 6  98662523.05642
      2983.324        2324.676
  24196136.875    24196136.6644   24196139.0224  127151577.939 5  99079180.70342
     -3512.397       -2736.939
  24849581.546    24849581.6114   24849584.3034  130585443.614 5 101754908.91342
     -3883.895       -3026.410
 08  5 10  1 21  0.0000000  0 13G 3G 6G 7G10G13G16G21G23G24G25G27G29
                                G31
  22316814.431    22316813.9324   22316816.7464  117275671.751 6  91383665.92044
      3286.695        2561.069
  21192483.682    21192483.0994   21192485.8804  111367289.458 8  86779725.44646
      1334.369        1039.771
  23175523.243    23175523.4984   23175525.4204  121788208.705 6  94899938.26544
      3152.831        2456.759
  23704646.717    23704646.4204   23704648.4684  124568771.098 5  97066592.66042
       517.765         403.443
  21724162.602    21724162.4194   21724164.3774  114161263.573 7  88956853.94245
      -695.193        -541.708
  20460720.263    20460719.7304   20460721.6064  107521852.822 8  83783286.63347
      -870.834        -678.568
  23283742.927    23283742.8114   23283744.7964  122356909.250 6  95343065.99043
      1947.354        1517.433
  22628765.058    22628764.6834   22628765.2634  118915004.619 6  92661054.05944
     -2998.536       -2336.518
  23026852.558    23026852.4064   23026856.5274  121006935.527 6  94291149.62143
      -782.183        -609.503
  22033939.452    22033939.1844   22033941.7334  115789157.113 7  90225342.95045
      1860.348        1449.623
  24077374.154    24077373.5864   24077377.1564  126527471.446 5  98592856.78542
      2977.014        2319.738
  24216210.482    24216209.8334   24216213.3814  127257063.321 5  99161377.09442
     -3519.912       -2742.779
  24871761.498    24871762.2384   24871763.5204  130702003.792 5 101845734.98642
     -3886.674       -3028.545
 08  5 10  1 21 30.0000000  0 13G 3G 6G 7G10G13G16G21G23G24G25G27G29
                                G31
  22298083.945    22298083.4194   22298086.3874  117177240.512 7  91306966.21144
      3275.290        2552.171
  21184915.605    21184915.1624   21184918.0384  111327519.622 8  86748735.96846
      1316.870        1026.129
  23157551.027    23157550.6864   23157553.6734  121693767.032 6  94826347.40843
      3143.206        2449.237
  23701751.378    23701750.0594   23701753.2824  124553553.851 5  97054735.03941
       496.612         386.975
  21728195.236    21728195.2004   21728197.4554  114182456.550 8  88973367.91745
      -717.706        -559.252
  20465740.639    20465740.0934   20465741.9564  107548234.861 8  83803844.04847
      -888.020        -691.964
  23272667.849    23272667.4774   23272669.8814  122298710.400 6  95297716.26843
      1932.477        1505.830
  22645924.098    22645923.2684   22645923.8184  119005174.259 7  92731316.11344
     -3012.861       -2347.682
  23031375.064    23031374.7444   23031378.5824  121030700.553 6  94309667.83243
      -802.232        -625.116
  22023360.444    22023360.0564   22023362.9514  115733563.209 7  90182023.05745
      1845.812        1438.289
  24060397.195    24060396.4984   24060400.4034  126438256.344 5  98523338.56442
      2970.607        2314.779
  24236325.777    24236325.7344   24236328.2594  127362770.544 6  99243746.33543
     -3527.259       -2748.510
  24893959.422    24893958.6434   24893958.8844  130818645.496 5 101936624.68341
     -3889.492       -3030.789
 08  5 10  1 22  0.0000000  0 13G 3G 6G 7G10G13G16G21G23G24G25G27G29
                                G31
  22279418.277    22279417.7744   22279420.4084  117079151.521 7  91230533.22544
      3263.906        2543.294
  21177447.579    21177447.1094   21177449.9204  111288275.278 8  86718155.98846
      1299.329        1012.458
  23139635.225    23139634.9144   23139637.0074  121599614.525 6  94752981.84643
      3133.498        2441.703
  23698976.261    23698975.5894   23698978.2214  124538972.463 5  97043372.89641
       475.427         370.488
  21732356.687    21732356.7004   21732359.1244  114204325.626 7  88990408.74845
      -740.286        -576.844
  20470859.064    20470858.3694   20470860.2314  107575131.637 8  83824802.56547
      -905.179        -705.333
  23261678.520    23261677.7024   23261679.7074  122240958.275 6  95252714.64143
      1917.548        1494.199
  22663164.246    22663163.6764   22663163.5014  119095771.843 7  92801911.70544
     -3027.059       -2358.753
  23036011.960    23036011.3784   23036015.2684  121055067.139 6  94328654.81043
      -822.274        -640.734
  22012863.981    22012863.7044   22012866.7094  115678405.955 7  90139043.39845
      1831.233        1426.930
  24043457.079    24043456.3604   24043459.3884  126349233.577 6  98453970.21342
      2964.189        2309.739
  24256483.604    24256483.1614   24256485.6304  127468697.606 5  99326286.87443
     -3534.610       -2754.248
  24916168.997    24916168.6134   24916169.2014  130935367.267 5 102027576.80041
     -3892.026       -3032.758
 08  5 10  1 22 30.0000000  0 14G 3G 6G 7G10G13G16G19G21G23G24G25G27
                                G29G31
  22260817.992    22260817.3344   22260820.5294  116981407.536 7  91154369.08844
      3252.370        2534.318
  21170079.795    21170079.4774   21170082.2114  111249557.890 8  86687986.64846
      1281.814         998.817
  23121774.024    23121773.9654   23121776.0054  121505753.974 6  94679843.79843
      3123.831        2434.151
  23696321.939    23696321.5004   23696325.4704  124525027.845 5  97032506.95541
       454.273         353.960
  21736647.156    21736646.9934   21736649.5334  114226870.469 7  89007976.17145
      -762.709        -594.307
  20476075.187    20476074.4974   20476076.2884  107602542.775 8  83846161.93647
      -922.231        -718.622
  25076291.811                                   131776802.927 4
      3858.757
  23250774.356    23250773.4704   23250775.3074  122183654.905 6  95208062.69443
      1902.613        1482.551
  22680484.879    22680484.2684   22680484.7254  119186794.744 7  92872838.69944
     -3041.074       -2369.661
  23040763.866    23040762.5804   23040766.5734  121080034.686 6  94348110.05943
      -842.180        -656.243
  22002451.897    22002451.5194   22002453.8934  115623687.609 7  90096405.73045
      1816.625        1415.551
  24026553.212    24026553.2074   24026557.1234  126260405.455 6  98384753.49942
      2957.685        2304.694
  24276680.245    24276680.3824   24276685.1794  127574842.793 5  99408997.32642
     -3541.792       -2759.823
  24938395.539    24938396.0644   24938398.4784  131052167.874 5 102118590.20241
     -3894.561       -3034.709
 08  5 10  1 23  0.0000000  0 14G 3G 6G 7G10G13G16G19G21G23G24G25G27
                                G29G31
  22242284.089    22242283.5604   22242286.8014  116884011.548 7  91078476.15344
      3240.852        2525.334
  21162812.815    21162812.4714   21162815.1254  111211369.255 8  86658229.26546
      1264.244         985.126
  23103968.883    23103968.4284   23103971.5844  121412188.545 6  94606935.72143
      3113.992        2426.481
  23693789.961    23693789.4624   23693793.6204  124511721.492 5  97022138.38141
       433.056         337.459
  21741066.149    21741066.0224   21741068.1374  114250090.945 8  89026070.06745
      -785.152        -611.805
  20481389.296    20481388.5834   20481390.3814  107630468.187 8  83867921.95547
      -939.303        -731.924
  25054266.730    25054266.4904   25054269.9464  131661069.513 4 102593058.17641
      3856.935        3005.368
  23239955.776    23239955.3194   23239956.6964  122126803.929 7  95163763.26043
      1887.580        1470.837
  22697886.273    22697885.6984   22697886.0584  119278240.794 7  92944095.34444
     -3055.113       -2380.605
  23045628.556    23045627.8434   23045632.3744  121105603.410 6  94368033.74243
      -862.173        -671.821
  21992122.937    21992122.8434   21992125.7314  115569410.653 7  90054112.01645
      1801.968        1404.132
  24009687.046    24009686.9074   24009690.8724  126171774.650 5  98315690.57542
      2951.180        2299.620
  24296921.451    24296920.9964   24296925.3184  127681204.246 5  99491876.28042
     -3548.846       -2765.337
  24960636.893    24960637.2444   24960639.7254  131169046.081 5 102209664.03842
     -3897.011       -3036.636
 08  5 10  1 23 30.0000000  0 14G 3G 6G 7G10G13G16G19G21G23G24G25G27
                                G29G31
  22223816.197    22223815.4784   22223819.0794  116786963.525 7  91002854.32944
      3229.182        2516.240
  21155646.159    21155645.6694   21155648.3534  111173707.723 8  86628882.59546
      1246.638         971.402
  23086219.507    23086219.4094   23086221.6434  121318918.033 6  94534257.46643
      3104.021        2418.712
  23691379.210    23691377.2044   23691382.5674  124499051.798 5  97012265.91241
       411.754         320.836
  21745612.473    21745612.6884   21745614.4784  114273983.694 7  89044687.80545
      -807.591        -629.296
  20486800.469    20486799.8104   20486801.6244  107658904.860 8  83890080.42547
      -956.340        -745.198
  25032253.660    25032253.9794   25032254.9964  131545389.883 4 102502918.15341
      3855.119        3003.960
  23229223.871    23229223.0414   23229224.4584  122070404.829 6  95119815.91543
      1872.454        1459.058
  22715367.660    22715367.3274   22715367.4914  119370104.613 7  93015677.49744
     -3069.013       -2391.434
  23050608.414    23050607.7314   23050611.4574  121131769.893 6  94388423.23043
      -882.128        -687.373
  21981878.693    21981878.3344   21981880.5304  115515574.256 8  90012161.60246
      1787.222        1392.642
  23992858.803    23992858.0434   23992861.6424  126083340.296 5  98246780.74042
      2944.618        2294.523
  24317201.948    24317201.5874   24317203.6194  127787777.153 5  99574920.07842
     -3555.877       -2770.817
  24982892.842    24982892.8314   24982894.6334  131285997.778 5 102300795.28942
     -3899.485       -3038.578
 08  5 10  1 24  0.0000000  0 14G 3G 6G 7G10G13G16G19G21G23G24G25G27
                                G29G31
  22205414.945    22205414.6204   22205417.9234  116690264.405 7  90927504.35544
      3217.475        2507.123
  21148579.483    21148579.0504   21148581.8824  111136572.876 8  86599946.36246
      1229.034         957.688
  23068527.173    23068527.3744   23068529.3484  121225943.018 6  94461809.39843
      3094.206        2411.071
  23689088.812    23689087.9804   23689093.0314  124487017.070 5  97002888.21041
       390.520         304.308
  21750286.805    21750286.6044   21750288.1314  114298546.350 8  89063827.53645
      -829.919        -646.683
  20492308.527    20492307.9324   20492309.7654  107687849.937 8  83912635.01047
      -973.298        -758.412
  25010250.085    25010249.6104   25010252.6004  131429764.952 4 102412820.91641
      3853.265        3002.531
  23218576.992    23218576.1584   23218577.7784  122014457.987 6  95076221.00443
      1857.322        1447.267
  22732927.260    22732926.9094   22732926.7024  119462381.925 6  93087581.90544
     -3082.756       -2402.140
  23055700.614    23055700.3114   23055704.3774  121158531.424 6  94409276.37543
      -901.963        -702.825
  21971717.483    21971717.1984   21971720.0784  115462178.370 7  89970554.43846
      1772.491        1381.163
  23976068.574    23976067.4644   23976070.9434  125995102.755 5  98178024.28142
      2937.980        2289.345
  24337521.474    24337521.9034   24337523.2434  127894557.553 6  99658125.64742
     -3562.812       -2776.214
  25005158.596    25005160.6814   25005163.8914  131403018.839 5 102391980.56042
     -3901.854       -3040.386
 08  5 10  1 24 30.0000000  0 14G 3G 6G 7G10G13G16G19G21G23G24G25G27
                                G29G31
  22187081.260    22187080.5744   22187083.6134  116593917.881 6  90852429.14844
      3205.716        2497.961
  21141613.674    21141613.2744   21141616.0784  111099967.217 8  86571422.49246
      1211.432         943.977
  23050891.314    23050891.1894   23050894.5874  121133267.825 6  94389595.02543
      3084.149        2403.233
  23686919.393    23686918.9664   23686924.4924  124475620.294 5  96994007.62641
       369.315         287.793
  21755088.268    21755088.4114   21755090.1934  114323779.785 7  89083489.95645
      -852.217        -664.064
  20497913.476    20497912.9624   20497914.8394  107717304.590 8  83935586.67247
      -990.228        -771.607
  24988259.773    24988258.2424   24988261.5294  131314198.769 4 102322769.38041
      3851.328        3001.029
  23208016.525    23208016.1524   23208018.5504  121958966.883 6  95032981.21943
      1842.186        1435.466
  22750565.770    22750565.3054   22750565.2104  119555071.143 7  93159807.28544
     -3096.396       -2412.773
  23060906.521    23060906.0804   23060910.3444  121185888.968 6  94430593.93343
      -921.750        -718.236
  21961641.198    21961640.8534   21961643.2144  115409226.490 7  89929293.24646
      1757.704        1369.639
  23959315.214    23959315.0514   23959318.5064  125907065.623 6  98109423.95442
      2931.277        2284.127
  24357880.954    24357880.1204   24357882.8634  128001544.495 6  99741492.15242
     -3569.549       -2781.472
  25027442.753    25027441.0024   25027444.2944  131520109.551 4 102483219.96841
     -3904.082       -3042.118
 08  5 10  1 25  0.0000000  0 14G 3G 6G 7G10G13G16G19G21G23G24G25G27
                                G29G31
  22168814.076    22168813.8004   22168816.9664  116497925.007 7  90777629.53944
      3193.955        2488.799
  21134748.556    21134747.9564   21134750.7204  111063889.728 8  86543310.17246
      1193.872         930.293
  23033313.845    23033313.6294   23033316.3994  121040892.857 6  94317614.62344
      3074.220        2395.497
  23684872.536    23684871.0614   23684876.4484  124464859.950 5  96985622.95642
       348.177         271.301
  21760017.056    21760017.1684   21760018.9744  114349681.324 7  89103672.98445
      -874.423        -681.367
  20503615.160    20503614.4684   20503616.4024  107747266.253 8  83958933.41947
     -1007.078        -784.734
  24966280.398    24966277.7694   24966281.4194  131198691.510 5 102232763.79241
      3849.392        2999.526
  23197544.389    23197543.7564   23197545.4414  121903931.812 6  94990096.74943
      1826.968        1423.614
  22768281.689    22768281.0584   22768281.1194  119648167.682 7  93232350.06144
     -3109.893       -2423.288
  23066225.372    23066225.0484   23066228.6774  121213839.890 6  94452373.88043
      -941.477        -733.616
  21951649.137    21951648.8704   21951651.5824  115356718.432 7  89888377.88846
      1742.916        1358.120
  23942600.008    23942599.2164   23942603.2664  125819228.827 5  98040979.71542
      2924.676        2278.961
  24378277.255    24378277.6574   24378280.4144  128108734.130 5  99825016.51542
     -3576.233       -2786.672
  25049736.360    25049736.9054   25049739.0354  131637266.056 5 102574510.85441
     -3906.315       -3043.876
 08  5 10  1 25 30.0000000  0 14G 3G 6G 7G10G13G16G19G21G23G24G25G27
                                G29G31
  22150615.292    22150614.6454   22150617.5164  116402287.462 7  90703106.77444
      3182.003        2479.485
  21127983.752    21127983.2414   21127986.0074  111028340.671 8  86515609.64646
      1176.214         916.529
  23015792.748    23015792.6044   23015794.0044  120948819.585 6  94245869.22043
      3064.078        2387.583
  23682947.135    23682945.5004   23682949.8854  124454735.364 5  96977733.72442
       326.916         254.733
  21765072.738    21765072.5254   21765074.5614  114376249.166 7  89124375.20245
      -896.613        -698.660
  20509412.692    20509412.1084   20509414.0104  107777732.944 8  83982673.71447
     -1023.881        -797.828
  24944312.321    24944310.1434   24944311.8164  131083244.451 5 102142805.05041
      3847.284        2997.899
  23187157.659    23187157.2334   23187159.7384  121849353.207 6  94947568.00243
      1811.677        1411.680
  22786073.373    22786073.1674   22786073.9124  119741667.783 6  93305207.30544
     -3123.316       -2433.758
  23071656.678    23071656.3584   23071660.1764  121242382.225 6  94474614.65243
      -961.203        -748.986
  21941741.883    21941741.5414   21941744.0414  115304655.018 7  89847809.00946
      1728.069        1346.545
  23925924.048    23925922.7704   23925926.1254  125731593.531 5  97972692.51542
      2917.863        2273.656
  24398711.960    24398711.7284   24398715.4944  128216123.151 4  99908696.17842
     -3582.852       -2791.815
  25072043.068    25072043.3414   25072045.7514  131754485.402 5 102665850.64241
     -3908.360       -3045.466
 08  5 10  1 26  0.0000000  0 14G 3G 6G 7G10G13G16G19G21G23G24G25G27
                                G29G31
  22132483.262    22132482.9224   22132486.0214  116307005.383 7  90628861.04544
      3170.053        2470.167
  21121319.138    21121318.7584   21121321.4664  110993318.692 8  86488319.76846
      1158.560         902.771
  22998328.421    22998328.6274   22998330.5514  120857048.169 6  94174358.99543
      3053.961        2379.705
  23681139.980    23681138.3864   23681143.1964  124445245.138 5  96970338.72742
       305.696         238.213
  21770254.861    21770254.6084   21770256.8274  114403480.043 7  89145594.06845
      -918.772        -715.931
  20515305.912    20515305.2824   20515307.2084  107808701.609 8  84006805.11447
     -1040.692        -810.932
  24922354.873    24922353.2604   24922353.6704  130967857.673 5 102052893.32441
      3845.228        2996.303
  23176859.373    23176858.7054   23176860.5124  121795231.762 6  94905395.44843
      1796.391        1399.780
  22803941.792    22803941.5394   22803942.2154  119835565.782 7  93378374.55144
     -3136.581       -2444.096
  23077199.827    23077199.4784   23077204.0694  121271512.837 6  94497313.80043
      -980.823        -764.274
  21931919.209    21931918.6074   21931921.2464  115253035.677 8  89807586.14946
      1713.206        1334.961
  23909285.809    23909285.2514   23909289.1104  125644159.458 6  97904562.10443
      2911.050        2268.356
  24419185.714    24419185.1354   24419188.7964  128323706.844 5  99992527.54942
     -3589.290       -2796.834
  25094360.517    25094360.8324   25094363.0684  131871763.891 5 102757236.41742
     -3910.281       -3046.987
 08  5 10  1 26 30.0000000  0 14G 3G 6G 7G10G13G16G19G21G23G24G25G27
                                G29G31
  22114420.193    22114419.5754   22114422.9344  116212082.061 7  90554894.87344
      3158.034        2460.801
  21114755.328    21114754.9904   21114757.7714  110958825.783 8  86461442.19746
      1140.893         889.014
  22980923.661    22980923.7204   22980926.0984  120765582.301 6  94103086.91644
      3043.689        2371.708
  23679454.730    23679454.8214   23679458.7404  124436390.884 5  96963439.31342
       284.472         221.674
  21775563.035    21775563.0644   21775564.7524  114431374.284 7  89167329.83645
      -940.917        -733.185
  20521294.667    20521293.9854   20521295.9874  107840172.677 8  84031328.02047
     -1057.451        -823.986
  24900406.359    24900404.9384   24900408.7214  130852533.843 4 101963030.70041
      3842.892        2994.458
  23166647.164    23166646.5704   23166648.9564  121741570.527 6  94863581.54143
      1781.000        1387.798
  22821885.147    22821885.2474   22821885.4654  119929860.243 6  93451850.77344
     -3149.785       -2454.375
  23082855.537    23082855.2054   23082859.7414  121301232.213 6  94520471.76543
     -1000.481        -779.589
  21922181.185    21922180.8534   21922183.3984  115201863.140 7  89767711.45146
      1698.227        1323.293
  23892686.527    23892685.2254   23892689.2704  125556929.336 5  97836590.62543
      2904.202        2263.019
  24439696.301    24439695.5684   24439697.4664  128431483.751 6 100076509.57442
     -3595.788       -2801.921
  25116688.277    25116688.9134   25116690.6944  131989100.849 5 102848667.82742
     -3912.125       -3048.391
 08  5 10  1 27  0.0000000  0 14G 3G 6G 7G10G13G16G19G21G23G24G25G27
                                G29G31
  22096426.144    22096425.4894   22096428.8044  116117523.949 7  90481213.25144
      3145.794        2451.267
  21108293.180    21108292.7964   21108295.6254  110924866.681 8  86434980.54946
      1122.992         875.058
  22963577.628    22963577.5084   22963579.8124  120674428.321 6  94032057.88344
      3033.140        2363.495
  23677892.995    23677891.9224   23677896.4274  124428176.829 5  96957038.76842
       263.025         204.947
  21780997.920    21780997.7224   21780999.5764  114459934.966 7  89189584.90445
      -963.163        -750.514
  20527379.538    20527378.8574   20527380.8164  107872149.090 8  84056244.70547
     -1074.339        -837.146
  24878476.245    24878473.9194   24878476.7584  130737279.448 4 101873222.20541
      3840.575        2992.653
  23156524.956    23156524.5014   23156526.4974  121688375.307 6  94822130.80143
      1765.347        1375.595
  22839904.979    22839904.4844   22839904.6144  120024552.285 6  93525636.69944
     -3163.047       -2464.714
  23088623.429    23088623.3694   23088627.1714  121331542.880 6  94544090.47743
     -1020.347        -795.076
  21912529.616    21912529.3214   21912531.6494  115151143.174 8  89728189.43646
      1683.051        1311.470
  23876126.577    23876126.2524   23876129.7344  125469909.003 6  97768782.62543
      2897.192        2257.540
  24460242.254    24460241.8444   24460243.9264  128539455.443 6 100160643.37442
     -3602.298       -2806.987
  25139028.887    25139027.1034   25139031.4294  132106498.146 4 102940146.20641
     -3914.245       -3050.074
 08  5 10  1 27 30.0000000  0 14G 3G 6G 7G10G13G16G19G21G23G24G25G27
                                G29G31
  22078502.768    22078502.1074   22078504.8804  116023333.853 7  90407818.34944
      3133.431        2441.631
  21101932.853    21101932.4414   21101935.3904  110891443.087 8  86408936.19146
      1105.152         861.151
  22946290.725    22946290.9414   22946293.5514  120583588.842 6  93961273.90244
      3022.684        2355.331
  23676451.637    23676450.2314   23676455.4614  124420604.267 5  96951138.09542
       241.715         188.350
  21786559.754    21786559.6294   21786561.3304  114489161.713 7  89212358.95645
      -985.355        -767.806
  20533560.514    20533559.8984   20533561.8674  107904630.515 8  84081554.92747
     -1091.187        -850.278
  24856557.982    24856556.3354   24856558.6564  130622097.382 5 101783470.03341
      3838.188        2990.792
  23146491.346    23146490.9834   23146492.8304  121635648.447 6  94781044.96844
      1749.688        1363.384
  22857999.712    22857998.9924   22857999.0544  120119639.371 6  93599730.57044
     -3176.185       -2474.949
  23094503.661    23094503.5424   23094507.5074  121362444.358 6  94568169.54143
     -1039.942        -810.338
  21902964.145    21902963.7674   21902966.5224  115100877.972 7  89689021.77446
      1667.871        1299.640
  23859607.597    23859607.4514   23859610.7804  125383101.294 6  97701140.28343
      2890.082        2252.018
  24480824.687    24480824.3764   24480826.9784  128647620.701 5 100244927.96042
     -3608.777       -2812.031
  25161380.573    25161380.7794   25161382.4404  132223954.630 5 103031670.74641
     -3916.205       -3051.588
 08  5 10  1 28  0.0000000  0 14G 3G 6G 7G10G13G16G19G21G23G24G25G27
                                G29G31
  22060649.149    22060648.7214   22060652.0904  115929513.831 7  90334711.80844
      3121.194        2432.099
  21095674.346    21095673.9664   21095676.8334  110858555.196 8  86383309.28646
      1087.393         847.323
  22929065.108    22929065.0314   22929067.0824  120493065.934 6  93890736.58344
      3012.173        2347.151
  23675132.392    23675131.7584   23675136.1294  124413672.619 6  96945736.78643
       220.434         171.779
  21792247.747    21792247.5834   21792249.5064  114519052.735 7  89235650.64545
     -1007.369        -784.959
  20539837.327    20539836.7144   20539838.6984  107937615.664 8  84107257.63947
     -1107.855        -863.263
  24834653.566    24834652.5714   24834653.4914  130506989.291 5 101693775.48842
      3835.803        2988.932
  23136547.651    23136546.7474   23136548.5634  121583391.250 7  94740325.05344
      1734.090        1351.244
  22876168.184    22876168.2394   22876168.2574  120215118.038 6  93674129.52344
     -3189.020       -2484.946
  23100496.548    23100495.7624   23100499.9214  121393935.348 6  94592707.97543
     -1059.426        -825.522
  21893485.996    21893485.6484   21893488.0404  115051068.556 8  89650209.27146
      1652.732        1287.839
  23843129.209    23843128.8064   23843132.6004  125296507.480 6  97633664.62143
      2882.967        2246.482
  24501443.414    24501443.3204   24501446.7934  128755976.574 5 100329361.04342
     -3614.960       -2816.827
  25183742.984    25183742.1964   25183743.1874  132341467.791 6 103123239.45242
     -3917.992       -3053.002
 08  5 10  1 28 30.0000000  0 14G 3G 6G 7G10G13G16G19G21G23G24G25G27
                                G29G31
  22042867.315    22042866.3534   22042869.7544  115836067.122 7  90261896.21344
      3108.639        2422.307
  21089518.729    21089517.9434   21089520.8264  110826205.021 8  86358101.27846
      1069.353         833.265
  22911900.385    22911900.3654   22911902.5024  120402863.407 6  93820448.91344
      3001.377        2338.731
  23673935.871    23673935.0154   23673939.4714  124407383.695 5  96940836.34743
       198.919         154.996
  21798062.331    21798062.0684   21798063.8884  114549608.265 7  89259460.14345
     -1029.604        -802.291
  20546210.042    20546209.5114   20546211.5024  107971104.864 8  84133353.11047
     -1124.688        -876.385
  24812763.202    24812761.6674   24812763.3714  130391958.122 5 101604140.94341
      3833.047        2986.785
  23126692.624    23126692.4374   23126694.5714  121531607.025 6  94699973.71444
      1718.224        1338.864
  22894411.873    22894410.9644   22894411.5724  120310986.697 7  93748832.34044
     -3202.120       -2495.162
  23106601.291    23106600.7494   23106604.7464  121426015.986 6  94617705.88343
     -1079.200        -840.935
  21884094.392    21884093.9814   21884097.1534  115001717.863 7  89611754.20046
      1637.354        1275.862
  23826692.577    23826691.8354   23826695.4044  125210130.578 6  97566357.96043
      2875.543        2240.702
  24522099.795    24522099.4424   24522102.7594  128864521.698 5 100413941.68842
     -3621.307       -2821.789
  25206114.934    25206114.3114   25206112.5814  132459036.932 5 103214851.73041
     -3919.971       -3054.560
 08  5 10  1 29  0.0000000  0 14G 3G 6G 7G10G13G16G19G21G23G24G25G27
                                G29G31
  22025155.821    22025155.5344   22025158.5434  115742995.728 7  90189373.08444
      3096.061        2412.511
  21083464.715    21083464.3614   21083467.3844  110794392.681 8  86333312.38946
      1051.411         819.283
  22894797.150    22894797.1254   22894798.4684  120312982.807 6  93750412.11144
      2990.577        2330.321
  23672862.341    23672860.5834   23672865.0834  124401736.984 6  96936436.32943
       177.554         138.356
  21804002.677    21804002.7054   21804004.3714  114580826.438 7  89283786.03545
     -1051.657        -819.475
  20552678.393    20552677.8654   20552679.8714  108005096.316 8  84159839.95647
     -1141.445        -889.441
  24790889.066    24790888.3334   24790887.9314  130277005.775 5 101514567.72741
      3830.484        2984.786
  23116929.490    23116928.7724   23116929.8524  121480297.303 7  94659992.18844
      1702.397        1326.553
  22912727.766    22912727.8134   22912728.0594  120407240.959 6  93823835.41343
     -3214.871       -2505.097
  23112817.909    23112817.0614   23112821.2584  121458684.363 6  94643161.77443
     -1098.743        -856.166
  21874791.339    21874790.8894   21874793.2694  114952826.760 7  89573657.23946
      1621.987        1263.883
  23810296.417    23810296.4044   23810300.1824  125123971.496 6  97499221.04143
      2868.271        2235.017
  24542789.287    24542790.1804   24542793.2054  128973252.846 5 100498667.19041
     -3627.489       -2826.597
  25228497.260    25228497.6644   25228498.1564  132576659.639 5 103306505.76541
     -3921.608       -3055.840
 08  5 10  1 29 30.0000000  0 14G 3G 6G 7G10G13G16G19G21G23G24G25G27
                                G29G31
  22007516.297    22007515.6484   22007518.7494  115650299.363 7  90117142.21144
      3083.535        2402.750
  21077513.050    21077512.6954   21077515.7424  110763116.849 8  86308941.62746
      1033.490         805.315
  22877753.956    22877753.9134   22877755.7034  120223424.148 6  93680626.14044
      2979.820        2321.938
  23671909.256    23671908.2434   23671912.2684  124396730.565 6  96932535.23643
       156.114         121.645
  21810068.957    21810068.4594   21810070.7144  114612703.821 7  89308625.54145
     -1073.645        -836.601
  20559241.672    20559241.1124   20559243.0984  108039586.824 8  84186715.71847
     -1158.056        -902.374
  24769028.668    24769026.4144   24769029.8624  130162131.764 5 101425055.59441
      3827.689        2982.604
  23107255.743    23107254.6234   23107256.1344  121429461.408 7  94620379.86144
      1686.497        1314.150
  22931117.552    22931117.5344   22931117.1234  120503876.715 7  93899136.06744
     -3227.619       -2515.032
  23119145.234    23119145.1584   23119149.0244  121491937.273 6  94669073.10543
     -1118.273        -871.387
  21865574.664    21865574.2004   21865577.1524  114904394.483 7  89535917.81946
      1606.659        1251.940
  23793942.976    23793942.7774   23793946.5804  125038030.333 6  97432253.93343
      2860.948        2229.312
  24563516.116    24563515.3824   24563519.3174  129082165.538 5 100583534.12442
     -3633.515       -2831.300
  25250889.763    25250889.4864   25250891.2494  132694331.981 5 103398198.48441
     -3923.338       -3057.173
 08  5 10  1 30  0.0000000  0 14G 3G 6G 7G10G13G16G19G21G23G24G25G27
                                G29G31
  21989948.810    21989948.4014   21989951.4654  115557981.857 7  90045206.61044
      3070.917        2392.919
  21071664.020    21071663.4584   21071666.5304  110732378.931 8  86284990.00746
      1015.607         791.382
  22860774.129    22860773.7384   22860775.8854  120134190.748 6  93611093.67144
      2969.038        2313.539
  23671078.575    23671076.9154   23671081.7654  124392365.697 5  96929134.04943
       134.755         105.021
  21816260.132    21816260.0064   21816262.3304  114645240.140 7  89333978.54545
     -1095.492        -853.633
  20565900.161    20565899.4944   20565901.3444  108074576.224 8  84213980.14947
     -1174.619        -915.286
  24747183.980    24747183.3214   24747185.4404  130047338.935 5 101335606.81541
      3824.960        2980.498
  23097672.038    23097671.4324   23097672.8604  121379102.141 6  94581138.96544
      1670.673        1301.817
  22949578.951    22949578.2564   22949578.7834  120600890.818 6  93974731.54044
     -3240.076       -2524.735
  23125584.054    23125583.4064   23125587.6724  121525774.213 6  94695439.51843
     -1137.572        -886.423
  21856446.308    21856445.7834   21856448.3994  114856423.490 8  89498537.83946
      1591.345        1240.007
  23777630.871    23777630.3304   23777633.6344  124952309.349 6  97365458.37743
      2853.654        2223.638
  24584276.555    24584275.6714   24584278.5184  129191258.115 5 100668541.31943
     -3639.363       -2835.871
  25273291.090    25273291.5384   25273293.1184  132812052.632 5 103489928.77641
     -3924.859       -3058.352
 08  5 10  1 30 30.0000000  0 13G 3G 6G 7G10G13G16G19G21G23G24G25G27
                                G29
  21972454.200    21972453.7414   21972457.0254  115466047.138 7  89973569.21045
      3058.183        2382.999
  21065917.524    21065917.1234   21065920.1614  110702181.727 8  86261459.71446
       997.592         777.339
  22843855.849    22843855.6014   22843858.0774  120045286.691 6  93541817.80344
      2958.003        2304.935
  23670369.771    23670369.0324   23670373.3814  124388644.808 6  96926234.65043
       113.322          88.294
  21822577.109    21822577.0664   21822579.5204  114678436.532 7  89359845.88545
     -1117.446        -870.736
  20572653.541    20572652.9804   20572654.8314  108110065.716 8  84241634.31747
     -1191.238        -928.238
  24725355.035    24725354.6344   24725356.2984  129932631.742 5 101246224.66242
      3822.344        2978.433
  23088180.633    23088179.7824   23088181.7454  121329223.190 6  94542272.34644
      1654.708        1289.387
  22968111.082    22968110.6774   22968110.7174  120698282.293 6  94050620.99743
     -3252.559       -2534.461
  23132134.418    23132133.7194   23132138.6654  121560195.790 6  94722261.50343
     -1157.021        -901.571
  21847405.729    21847405.4144   21847408.3354  114808917.306 7  89461520.05046
      1575.854        1227.934
  23761360.273    23761360.2864   23761364.0294  124866812.699 6  97298837.63643
      2846.211        2217.826
  24605069.713    24605070.2574   24605072.3464  129300530.286 6 100753688.41943
     -3645.359       -2840.539
 08  5 10  1 31  0.0000000  0 13G 3G 6G 7G10G13G16G19G21G23G24G25G27
                                G29
  21955032.682    21955032.2234   21955035.5074  115374496.962 7  89902231.43745
      3045.177        2372.864
  21060274.182    21060273.8054   21060276.8314  110672525.396 8  86238350.84146
       979.475         763.230
  22827000.961    22827000.8714   22827003.2944  119956713.948 6  93472800.08944
      2946.875        2296.267
  23669785.649    23669783.9284   23669788.0664  124385567.015 6  96923836.36943
        91.867          71.590
  21829019.090    21829019.2474   21829021.8464  114712291.157 7  89386226.13645
     -1139.432        -887.870
  20579501.889    20579501.2404   20579503.0574  108146053.871 8  84269677.04647
     -1207.922        -941.237
  24703544.647    24703543.5414   24703544.1504  129818011.801 5 101156910.50441
      3819.305        2976.083
  23078780.656    23078779.8814   23078781.5734  121279825.957 6  94503780.98544
      1638.500        1276.762
  22986715.025    22986714.8304   22986715.7724  120796047.842 6  94126801.95943
     -3265.031       -2544.180
  23138796.336    23138795.7384   23138799.1134  121595200.929 6  94749538.20743
     -1176.556        -916.803
  21838454.502    21838454.0594   21838456.8894  114761877.101 7  89424865.37346
      1560.210        1215.750
  23745134.590    23745134.0434   23745137.6054  124781541.681 6  97232392.71243
      2838.548        2211.853
  24625897.045    24625897.2024   24625900.1984  129409979.473 5 100838973.48942
     -3651.209       -2845.099
 08  5 10  1 31 30.0000000  0 13G 3G 6G 7G10G13G16G19G21G23G24G25G27
                                G29
  21937685.318    21937684.4004   21937687.7684  115283334.853 7  89831196.07744
      3032.248        2362.777
  21054734.156    21054733.5884   21054736.6604  110643411.572 8  86215664.72346
       961.445         749.178
  22810209.661    22810209.5154   22810211.7164  119868475.769 6  93404043.08744
      2935.679        2287.543
  23669321.213    23669320.3374   23669324.7574  124383133.897 6  96921940.47543
        70.459          54.890
  21835586.766    21835586.9404   21835589.4444  114746803.314 7  89413118.73045
     -1161.323        -904.924
  20586445.199    20586444.4044   20586446.2654  108182540.272 8  84298107.96247
     -1224.495        -954.157
  24681750.670    24681749.1574   24681751.0764  129703482.110 5 101067666.65742
      3816.170        2973.615
  23069472.480    23069472.4354   23069473.8704  121230913.448 6  94465667.33544
      1622.361        1264.175
  23005390.557    23005390.0674   23005390.6094  120894185.448 6  94203272.82343
     -3277.364       -2553.782
  23145568.415    23145568.1434   23145571.4684  121630788.945 6  94777269.12243
     -1195.885        -931.871
  21829592.148    21829591.7754   21829594.0654  114715305.247 8  89388575.62046
      1544.586        1203.573
  23728951.246    23728951.0984   23728955.0684  124696499.051 6  97166125.76243
      2830.959        2205.938
  24646756.336    24646755.6744   24646758.4074  129519604.121 4 100924395.34441
     -3656.969       -2849.592
 08  5 10  1 32  0.0000000  0 13G 3G 6G 7G10G13G16G19G21G23G24G25G27
                                G29
  21920411.542    21920411.0444   21920414.5864  115192562.976 7  89760464.78445
      3019.232        2352.649
  21049297.314    21049296.7414   21049299.8124  110614840.774 8  86193401.73546
       943.330         735.056
  22793482.620    22793482.3434   22793484.7724  119780574.457 6  93335548.57844
      2924.400        2278.753
  23668981.149    23668979.8804   23668984.8334  124381345.152 6  96920546.64643
        48.947          38.150
  21842279.121    21842279.0204   21842281.6014  114781971.613 7  89440522.60645
     -1183.185        -921.964
  20593482.709    20593482.1304   20593483.9324  108219523.663 8  84326926.20547
     -1241.011        -967.022
  24659973.459    24659971.9544   24659972.9764  129589044.294 5 100978494.43941
      3813.043        2971.213
  23060258.218    23060256.5574   23060258.6194  121182486.482 6  94427931.99044
      1606.158        1251.558
  23024136.142    23024135.5634   23024135.7784  120992691.201 6  94280030.47843
     -3289.652       -2563.371
  23152451.009    23152450.4094   23152454.7784  121666958.430 6  94805453.09243
     -1215.292        -946.984
  21820819.496    21820818.9854   21820821.6864  114669203.025 7  89352651.81246
      1528.920        1191.367
  23712812.204    23712811.3544   23712815.6614  124611686.427 6  97100038.02643
      2823.367        2200.025
  24667650.787    24667651.1974   24667654.1194  129629401.363 5 101009951.69441
     -3662.735       -2854.122
 08  5 10  1 32 30.0000000  0 13G 3G 6G 7G10G13G16G19G21G23G24G25G27
                                G29
  21903213.609    21903213.0384   21903216.0874  115102186.108 7  89690041.29645
      3006.015        2342.346
  21043964.438    21043963.8814   21043967.0334  110586816.452 8  86171564.57546
       925.083         720.845
  22776820.874    22776820.4924   22776822.6584  119693015.136 6  93267320.55944
      2912.890        2269.783
  23668763.773    23668762.8624   23668767.2174  124380203.729 6  96919657.22743
        27.274          21.246
  21849097.112    21849097.0494   21849098.6234  114817797.999 7  89468439.27145
     -1205.094        -939.032
  20600615.590    20600614.7474   20600616.6574  108257005.811 8  84356133.05647
     -1257.656        -979.987
  24638215.241    24638214.4994   24638215.6654  129474703.516 5 100889397.76242
      3809.738        2968.632
  23051135.801    23051134.7644   23051136.2684  121134550.141 6  94390579.00544
      1589.722        1238.740
  23042950.366    23042950.2714   23042951.0094  121091565.532 6  94357075.35643
     -3301.897       -2572.901
  23159444.815    23159443.9654   23159448.2744  121703711.003 6  94834091.45443
     -1234.738        -962.121
  21812136.586    21812136.0214   21812138.4734  114623575.016 8  89317097.54346
      1513.058        1179.009
  23696717.440    23696716.6964   23696720.4464  124527108.456 5  97034133.14343
      2815.302        2193.758
  24688577.929    24688578.2244   24688581.4504  129739371.959 5 101095643.11142
     -3668.456       -2858.545
 08  5 10  1 33  0.0000000  0 13G 3G 6G 7G10G13G16G19G21G23G24G25G27
                                G29
  21886090.948    21886090.6064   21886093.5684  115012206.592 7  89619927.38945
      2992.720        2331.993
  21038735.619    21038735.1884   21038738.2524  110559339.395 8  86150153.87546
       906.835         706.625
  22760224.315    22760224.1144   22760226.5324  119605800.460 6  93199361.09644
      2901.465        2260.881
  23668670.689    23668669.2334   23668673.4674  124379710.106 6  96919272.57843
         5.692           4.432
  21856039.619    21856039.2714   21856041.0704  114854280.942 7  89496867.53845
     -1226.946        -956.064
  20607842.637    20607842.1644   20607844.0894  108294986.151 8  84385728.07347
     -1274.253        -992.925
  24616475.851    24616474.2274   24616476.6384  129360462.125 5 100800378.61542
      3806.396        2966.027
  23042107.711    23042106.8974   23042108.2794  121087106.405 7  94353609.79544
      1573.317        1225.973
  23061836.566    23061835.6084   23061836.1114  121190805.297 7  94434405.00343
     -3314.004       -2582.337
  23166549.336    23166548.7694   23166552.5854  121741045.432 6  94863183.23343
     -1254.039        -977.172
  21803544.224    21803543.9764   21803546.6234  114578422.692 8  89281913.91746
      1497.212        1166.661
  23680668.163    23680666.9524   23680670.5974  124442767.344 5  96968412.81643
      2807.421        2187.612
  24709538.466    24709538.1254   24709540.6814  129849513.982 5 101181468.18043
     -3674.131       -2862.960
 08  5 10  1 33 30.0000000  0 13G 3G 6G 7G10G13G16G19G21G23G24G25G27
                                G29
  21869044.725    21869044.0714   21869047.1024  114922626.585 7  89550124.78245
      2979.264        2321.495
  21033611.207    21033610.7424   21033613.8214  110532410.396 8  86129170.25546
       888.413         692.270
  22743693.380    22743693.4714   22743695.9774  119518932.419 6  93131671.74244
      2889.725        2251.734
  23668699.360    23668698.7624   23668703.0544  124379864.437 6  96919392.83543
       -16.023         -12.499
  21863106.340    21863106.3064   21863108.1724  114891419.400 7  89525806.59945
     -1248.922        -973.185
  20615164.683    20615164.1174   20615166.0234  108333463.483 8  84415710.38547
     -1290.945       -1005.935
  24594756.165    24594754.3924   24594755.9084  129246322.335 5 100711438.59542
      3802.898        2963.273
  23033173.425    23033172.6314   23033173.9094  121040156.960 7  94317025.77844
      1556.664        1212.987
  23080789.210    23080789.0944   23080789.1614  121290407.771 6  94512017.36843
     -3326.189       -2591.833
  23173764.500    23173763.9894   23173768.0324  121778960.522 6  94892727.47743
     -1273.489        -992.320
  21795043.231    21795042.6084   21795044.8074  114533747.592 8  89247102.16546
      1481.142        1154.138
  23664663.534    23664663.5364   23664666.8464  124358665.162 6  96902878.66943
      2799.334        2181.292
  24730529.235    24730528.4794   24730531.6544  129959823.907 5 101267423.76343
     -3679.948       -2867.507
 08  5 10  1 34  0.0000000  0 13G 3G 6G 7G10G13G16G19G21G23G24G25G27
                                G29
  21852074.638    21852074.1024   21852077.1684  114833449.557 7  89480636.23745
      2965.914        2311.101
  21028591.215    21028590.6994   21028593.8754  110506030.428 8  86108614.45546
       870.250         678.117
  22727230.101    22727230.1184   22727231.7124  119432414.225 6  93064254.98444
      2878.050        2242.639
  23668852.046    23668850.9464   23668855.5324  124380666.957 6  96920018.17243
       -37.451         -29.181
  21870298.288    21870298.0214   21870299.7774  114929212.149 7  89555255.49345
     -1270.583        -990.068
  20622581.397    20622580.6654   20622582.5784  108372437.799 8  84446080.04547
     -1307.340       -1018.708
  24573054.980    24573053.2034   24573056.7494  129132286.728 5 100622579.75541
      3799.520        2960.650
  23024333.783    23024332.7124   23024334.1414  120993704.109 7  94280828.73644
      1540.194        1200.156
  23099812.053    23099811.0574   23099811.0914  121390370.026 6  94589910.10243
     -3337.944       -2600.996
  23181089.659    23181089.3294   23181092.7224  121817455.602 6  94922723.63043
     -1292.813       -1007.386
  21786632.612    21786632.1084   21786634.8984  114489551.669 8  89212663.78746
      1465.248        1141.751
  23648704.906    23648704.7254   23648708.8774  124274804.243 5  96837532.52243
      2791.372        2175.101
  24751551.669    24751551.0364   24751554.6314  130070301.904 4 101353510.78842
     -3685.238       -2871.609
 08  5 10  1 34 30.0000000  0 13G 3G 6G 7G10G13G16G19G21G23G24G25G27
                                G29
  21835181.926    21835181.0794   21835184.1664  114744675.105 7  89411461.35345
      2952.419        2300.586
  21023675.351    21023674.9774   21023678.1224  110480197.858 8  86088485.16246
       851.965         663.871
  22710832.200    22710832.2594   22710834.6814  119346245.591 6  92997110.61144
      2866.423        2233.582
  23669127.112    23669126.4054   23669131.0304  124382115.227 6  96921146.69143
       -59.045         -46.006
  21877613.419    21877613.5364   21877615.3114  114967655.629 7  89585211.45745
     -1292.249       -1006.942
  20630091.646    20630091.1114   20630093.0564  108411905.184 8  84476833.84747
     -1323.776       -1031.515
  24551375.042    24551373.9464   24551375.1614  129018355.055 5 100533801.93442
      3795.952        2957.883
  23015588.339    23015587.5564   23015589.4304  120947747.501 6  94245018.39844
      1523.579        1187.202
  23118900.606    23118900.5304   23118900.4024  121490686.395 6  94668078.68243
     -3349.724       -2610.176
  23188525.318    23188524.6604   23188527.9504  121856526.736 6  94953168.64143
     -1311.984       -1022.327
  21778313.708    21778313.2584   21778315.6254  114445834.178 8  89178598.22446
      1449.266        1129.299
  23632792.090    23632791.7294   23632796.1994  124191183.942 6  96772373.87342
      2783.314        2168.812
  24772603.651    24772604.8864   24772608.3574  130180941.276 4 101439723.07741
     -3690.656       -2875.842
 08  5 10  1 35  0.0000000  0 13G 3G 6G 7G10G13G16G19G21G23G24G25G27
                                G29
  21818365.128    21818364.5824   21818367.6864  114656304.613 7  89342601.26545
      2938.855        2290.015
  21018863.684    21018863.3134   21018866.2874  110454912.100 8  86068781.99446
       833.711         649.646
  22694501.911    22694501.9064   22694504.0774  119260428.103 6  92930239.86544
      2854.667        2224.421
  23669526.040    23669525.2934   23669529.5444  124384208.421 6  96922777.74043
       -80.541         -62.764
  21885052.502    21885052.4894   21885054.2074  115006747.327 7  89615672.51945
     -1313.884       -1023.808
  20637695.491    20637694.9024   20637696.8774  108451863.261 8  84507969.98147
     -1340.152       -1044.275
  24529712.634    24529712.1034   24529714.2974  128904528.482 5 100445105.93341
      3792.373        2955.108
  23006937.671    23006936.6484   23006938.5964  120902287.229 6  94209594.83144
      1507.011        1174.296
  23138058.284    23138057.9674   23138057.4774  121591352.837 6  94746519.97943
     -3361.398       -2619.260
  23196069.436    23196069.1304   23196072.6414  121896171.552 6  94984060.69043
     -1331.095       -1037.210
  21770085.357    21770084.9634   21770087.3284  114402595.261 8  89144905.56546
      1433.251        1116.818
  23616926.437    23616926.0194   23616929.3714  124107805.146 6  96707403.40743
      2775.175        2162.470
  24793690.278    24793689.8654   24793691.6024  130291739.277 5 101526058.95241
     -3695.945       -2879.953
 08  5 10  1 35 30.0000000  0 13G 3G 6G 7G10G13G16G19G21G23G24G25G27
                                G29
  21801626.984    21801626.2044   21801629.3424  114568345.385 7  89274061.65645
      2925.155        2279.337
  21014157.153    21014156.7264   21014159.7434  110430178.836 8  86049509.29746
       815.286         635.289
  22678239.513    22678239.5184   22678241.7004  119174969.015 7  92863648.38744
      2842.662        2215.060
  23670047.948    23670046.8484   23670051.6244  124386951.548 6  96924915.23943
      -102.231         -79.652
  21892615.874    21892615.4974   21892616.9584  115046491.096 7  89646641.72245
     -1335.590       -1040.722
  20645393.448    20645392.8364   20645394.8144  108492316.232 8  84539491.73347
     -1356.619       -1057.109
  24508074.971    24508073.6734   24508075.8044  128790814.094 5 100356497.40241
      3788.707        2952.239
  22998382.893    22998381.6144   22998383.5264  120857330.440 6  94174563.56744
      1490.195        1161.189
  23157280.289    23157279.9654   23157281.1304  121692371.789 6  94825236.08143
     -3373.100       -2628.396
  23203722.988    23203722.6274   23203726.2844  121936393.703 6  95015402.60243
     -1350.281       -1052.158
  21761949.902    21761949.5194   21761951.8054  114359841.874 7  89111591.23846
      1417.059        1104.204
  23601107.361    23601106.8274   23601110.4654  124024674.957 6  96642626.66843
      2766.926        2156.049
  24814804.896    24814804.7454   24814806.9614  130402699.475 6 101612521.64641
     -3701.213       -2884.045
 08  5 10  1 36  0.0000000  0 13G 3G 6G 7G10G13G16G19G21G23G24G25G27
                                G29
  21784966.598    21784966.1264   21784969.1224  114480795.647 7  89205841.09445
      2911.382        2268.607
  21009555.271    21009554.6774   21009557.7004  110405994.810 8  86030664.59946
       796.913         620.964
  22662045.407    22662045.4374   22662047.1924  119089866.843 6  92797335.02644
      2830.729        2205.763
  23670692.787    23670692.0194   23670696.5354  124390340.341 6  96927555.85143
      -123.799         -96.474
  21900301.778    21900301.5494   21900303.2524  115086881.424 7  89678114.70645
     -1357.140       -1057.521
  20653184.719    20653184.0014   20653186.0294  108533259.375 8  84571395.53147
     -1372.953       -1069.831
  24486456.685    24486455.1144   24486456.5074  128677210.301 5 100267975.04642
      3784.894        2949.258
  22989922.181    22989921.7964   22989924.0694  120812875.037 6  94139922.98544
      1473.424        1148.124
  23176569.723    23176569.5134   23176570.0334  121793736.162 6  94904221.29543
     -3384.603       -2637.368
  23211486.377    23211485.5544   23211488.9864  121977188.160 6  95047190.51343
     -1369.393       -1067.070
  21753905.816    21753905.5814   21753907.7794  114317571.314 7  89078653.14946
      1400.906        1091.614
  23585335.270    23585334.7144   23585338.2014  123941791.141 6  96578041.87143
      2758.714        2149.650
  24835950.571    24835950.4334   24835952.0444  130513815.271 6 101699105.53542
     -3706.516       -2888.226
 08  5 10  1 36 30.0000000  0 13G 3G 6G 7G10G13G16G19G21G23G24G25G27
                                G29
  21768385.024    21768384.4414   21768387.3454  114393657.652 7  89137941.39045
      2897.591        2257.867
  21005057.730    21005057.2764   21005060.1624  110382360.509 8  86012248.29946
       778.547         606.660
  22645919.232    22645919.2724   22645921.1614  119005124.068 7  92731301.69444
      2818.586        2196.298
  23671460.304    23671459.8404   23671464.0954  124394375.176 6  96930699.88243
      -145.291        -113.212
  21908110.532    21908110.2984   21908112.1584  115127916.868 7  89710090.37145
     -1378.723       -1074.331
  20661068.926    20661068.1984   20661070.2554  108574691.199 8  84603680.07847
     -1389.307       -1082.577
  24464859.890    24464858.7644   24464860.2914  128563719.294 5 100179540.57542
      3780.920        2946.173
  22981559.449    22981558.4774   22981560.2304  120768922.513 7  94105674.25644
      1456.567        1134.990
  23195923.226    23195923.1434   23195923.0514  121895442.856 6  94983473.36243
     -3396.072       -2646.291
  23219357.174    23219356.8814   23219360.7754  122018553.222 6  95079423.05043
     -1388.540       -1081.967
  21745954.311    21745953.8374   21745956.6134  114275785.143 8  89046092.49946
      1384.651        1078.946
  23569609.768    23569609.5444   23569612.8514  123859155.743 6  96513650.66243
      2750.159        2142.985
  24857123.468    24857123.1834   24857125.5504  130625084.029 5 101785808.53142
     -3711.674       -2892.232
 08  5 10  1 37  0.0000000  0 13G 3G 6G 7G10G13G16G19G21G23G24G25G27
                                G29
  21751882.823    21751881.9284   21751884.9184  114306936.881 7  89070366.81545
      2883.662        2247.007
  21000665.435    21000665.0844   21000667.9414  110359279.531 8  85994263.12846
       760.086         592.274
  22629862.895    22629862.4684   22629864.7204  118920746.079 7  92665552.63044
      2806.425        2186.822
  23672352.072    23672351.1394   23672355.5754  124399059.402 6  96934349.93443
      -166.992        -130.126
  21916042.430    21916042.3694   21916043.8254  115169598.934 7  89742569.88745
     -1400.227       -1091.092
  20669046.453    20669045.8624   20669047.8444  108616613.974 8  84636347.18847
     -1405.669       -1095.329
  24443285.539    24443284.5354   24443286.2284  128450346.150 5 100091197.95942
      3777.102        2943.207
  22973292.283    22973291.2874   22973292.9924  120725477.460 7  94071820.89544
      1439.611        1121.779
  23215343.037    23215342.6444   23215341.9174  121997491.271 6  95062991.63243
     -3407.316       -2655.050
  23227337.979    23227337.0514   23227340.7874  122060490.942 6  95112101.74243
     -1407.522       -1096.811
  21738095.848    21738095.4054   21738097.5434  114234487.854 8  89013912.80546
      1368.339        1066.239
  23553933.386    23553932.9844   23553936.0734  123776773.780 6  96449456.92643
      2741.697        2136.371
  24878326.834    24878325.3724   24878329.2244  130736506.484 4 101872631.07741
     -3716.740       -2896.162
 08  5 10  1 37 30.0000000  0 13G 3G 6G 7G10G13G16G19G21G23G24G25G27
                                G29
  21735459.320    21735458.8664   21735461.8354  114220633.357 7  89003117.33545
      2869.810        2236.217
  20996378.458    20996378.0314   20996380.9294  110336751.053 8  85976708.46546
       741.739         577.979
  22613875.579    22613875.4694   22613877.3884  118836733.249 6  92600088.09144
      2794.334        2177.402
  23673366.864    23673365.8534   23673370.0674  124404390.641 6  96938504.13843
      -188.481        -146.872
  21924096.176    21924096.3514   21924098.4164  115211924.539 7  89775550.86745
     -1421.583       -1107.719
  20677117.005    20677116.3704   20677118.3654  108659024.760 8  84669394.55347
     -1421.782       -1107.888
  24421733.784    24421732.3974   24421733.2834  128337091.676 5 100002947.70642
      3773.212        2940.174
  22965121.142    22965120.6154   22965122.3884  120682540.129 6  94038363.18244
      1422.739        1108.627
  23234826.863    23234826.2634   23234825.8244  122099877.158 6  95142772.84443
     -3418.461       -2663.729
  23235426.081    23235426.1644   23235430.2924  122102998.229 6  95145224.28343
     -1426.352       -1111.457
  21730329.765    21730329.4874   21730332.2904  114193679.241 8  88982113.88146
      1352.155        1053.627
  23538304.856    23538304.0944   23538307.8534  123694645.377 6  96385460.78443
      2733.377        2129.898
  24899558.779    24899557.9744   24899560.8594  130848079.202 5 101959570.75441
     -3721.630       -2899.971
 08  5 10  1 38  0.0000000  0 13G 3G 6G 7G10G13G16G19G21G23G24G25G27
                                G29
  21719116.439    21719115.6194   21719118.8634  114134748.752 7  88936194.30745
      2855.857        2225.344
  20992196.206    20992195.8514   20992198.8434  110314773.708 8  85959583.28646
       723.434         563.711
  22597957.892    22597958.0444   22597960.4164  118753087.015 6  92534909.22044
      2782.128        2167.890
  23674503.635    23674503.0824   23674507.0484  124410367.452 6  96943161.38443
      -209.970        -163.610
  21932273.085    21932273.0034   21932274.7644  115254890.598 7  89809030.92645
     -1442.794       -1124.253
  20685279.772    20685279.2004   20685281.3624  108701921.269 8  84702820.40647
     -1437.922       -1120.457
  24400205.770    24400204.6364   24400206.0674  128223955.967 5  99914789.93042
      3769.346        2937.187
  22957046.935    22957046.1814   22957047.8934  120640110.425 6  94005301.06044
      1405.923        1095.521
  23254373.512    23254372.8974   23254374.0064  122202595.982 6  95222813.42943
     -3429.467       -2672.309
  23243622.891    23243622.7164   23243626.7624  122146072.082 6  95178788.29243
     -1445.158       -1126.068
  21722657.452    21722656.9504   21722659.4614  114153359.295 8  88950695.74146
      1335.892        1040.958
  23522724.360    23522724.1584   23522727.5964  123612771.058 6  96321662.63443
      2724.942        2123.344
  24920817.783    24920817.7174   24920819.8324  130959797.992 5 102046624.38242
     -3726.221       -2903.542
 08  5 10  1 38 30.0000000  0 13G 3G 6G 7G10G13G16G19G21G23G24G25G27
                                G29
  21702852.858    21702852.4374   21702855.4764  114049283.915 7  88869598.13245
      2841.665        2214.279
  20988119.240    20988118.6294   20988121.5174  110293347.530 8  85942887.57546
       704.908         549.280
  22582111.213    22582110.8364   22582112.7984  118669808.966 7  92470017.25244
      2769.683        2158.192
  23675763.581    23675763.1164   23675767.3114  124416989.126 6  96948321.11743
      -231.570        -180.445
  21940570.506    21940570.2804   21940572.2434  115298494.930 7  89843008.34445
     -1464.202       -1140.937
  20693534.912    20693534.2044   20693536.3004  108745301.485 8  84736623.16647
     -1454.149       -1133.101
  24378699.814    24378697.4104   24378700.1424  128110940.275 5  99826725.29642
      3765.045        2933.809
  22949069.666    22949069.1084   22949071.3174  120598189.984 7  93972635.78644
      1388.751        1082.142
  23273982.653    23273982.0534   23273982.9034  122305644.130 6  95303110.62143
     -3440.545       -2680.946
  23251928.054    23251927.3014   23251931.6304  122189710.434 6  95212792.14543
     -1464.099       -1140.845
  21715078.047    21715077.3854   21715080.2644  114113528.895 8  88919659.07446
      1319.411        1028.116
  23507193.188    23507192.5644   23507196.6784  123531152.094 6  96258063.48243
      2716.265        2116.565
  24942104.518    24942104.6804   24942106.5944  131071660.423 5 102133789.90841
     -3731.296       -2907.504
 08  5 10  1 39  0.0000000  0 13G 3G 6G 7G10G13G16G19G21G23G24G25G27
                                G29
  21686670.159    21686669.6334   21686672.9164  113964243.571 7  88803332.95545
      2827.594        2203.323
  20984147.135    20984146.7064   20984149.4974  110272474.937 8  85926623.20846
       686.561         534.984
  22566334.475    22566334.3464   22566336.1044  118586903.345 7  92405415.47244
      2757.276        2148.528
  23677146.949    23677145.9134   23677150.4524  124424257.098 6  96953984.46843
      -252.985        -197.120
  21948989.852    21948989.6754   21948991.3804  115342737.934 7  89877483.42745
     -1485.433       -1157.479
  20701881.858    20701881.4624   20701883.4824  108789166.285 8  84770803.53147
     -1470.233       -1145.634
  24357217.056    24357216.1514   24357216.7954  127998049.808 5  99738758.46842
      3760.896        2930.557
  22941190.138    22941189.4844   22941191.2114  120556782.332 7  93940370.09444
      1371.751        1068.895
  23293654.558    23293653.6254   23293655.0404  122409020.186 6  95383663.29943
     -3451.263       -2689.296
  23260339.078    23260338.9074   23260342.7374  122233913.555 6  95247236.14043
     -1482.815       -1155.460
  21707592.055    21707591.6014   21707594.2034  114074191.447 8  88889006.52446
      1303.011        1015.335
  23491711.319    23491710.6404   23491713.2104  123449792.411 6  96194666.33643
      2707.676        2109.877
  24963418.614    24963418.0794   24963420.0934  131183665.905 5 102221067.03541
     -3735.885       -2911.078
 08  5 10  1 39 30.0000000  0 13G 3G 6G 7G10G13G16G19G21G23G24G25G27
                                G29
  21670568.293    21670567.8574   21670570.9244  113879627.638 7  88737398.46945
      2813.309        2192.193
  20980280.232    20980279.7824   20980282.5674  110252153.924 8  85910788.65646
       668.038         520.550
  22550629.105    22550628.9764   22550631.1144  118504370.492 7  92341104.17244
      2744.724        2138.749
  23678652.571    23678651.5474   23678655.4574  124432168.817 6  96960149.43443
      -274.603        -213.970
  21957529.640    21957529.6354   21957531.4774  115387615.933 7  89912453.29645
     -1506.621       -1173.987
  20710320.926    20710320.2414   20710322.2104  108833512.105 8  84805358.69647
     -1486.316       -1158.170
  24335757.853    24335756.9324   24335758.9824  127885284.489 5  99650889.36242
      3756.623        2927.235
  22933407.569    22933407.1404   22933408.9294  120515885.651 6  93908502.61244
      1354.541        1055.483
  23313387.387    23313387.2294   23313387.3774  122512718.966 6  95464467.55143
     -3462.074       -2697.728
  23268857.984    23268856.7494   23268860.9934  122278677.712 6  95282117.27743
     -1501.649       -1170.120
  21700200.325    21700199.9114   21700202.1934  114035345.843 8  88858737.23646
      1286.515        1002.479
  23476278.055    23476277.5094   23476280.4274  123368691.555 6  96131470.85643
      2698.891        2103.030
  24984757.564    24984758.0804   24984761.7014  131295809.515 4 102308451.46441
     -3740.452       -2914.614
 08  5 10  1 40  0.0000000  0 13G 3G 6G 7G10G13G16G19G21G23G24G25G27
                                G29
  21654548.186    21654547.3754   21654550.3084  113795439.537 7  88671797.35445
      2799.206        2181.200
  20976518.585    20976518.1664   20976520.9984  110232386.458 8  85895385.45046
       649.773         506.311
  22534995.312    22534995.2664   22534996.7914  118422213.729 6  92277085.92744
      2732.370        2129.121
  23680280.755    23680279.6594   23680283.7474  124440725.565 6  96966817.04843
      -295.862        -230.551
  21966190.021    21966190.0374   21966191.4634  115433127.847 7  89947917.12745
     -1527.516       -1190.271
  20718851.180    20718850.5584   20718852.5154  108878339.234 8  84840288.93647
     -1502.179       -1170.532
  24314325.155    24314323.4024   24314324.5374  127772647.298 5  99563119.99242
      3752.487        2924.013
  22925723.312    22925722.7014   22925724.4524  120475503.675 7  93877036.17544
      1337.561        1042.254
  23333182.083    23333181.6724   23333181.6184  122616738.159 6  95545521.44943
     -3472.580       -2705.915
  23277483.211    23277482.2274   23277486.2874  122324002.302 6  95317435.15343
     -1520.094       -1184.493
  21692901.865    21692901.5584   21692904.1954  113996994.707 8  88828853.25146
      1270.196         989.760
  23460894.786    23460894.4904   23460897.6344  123287852.774 6  96068479.61943
      2690.312        2096.345
  25006124.219    25006124.7154   25006127.8144  131408091.234 4 102395943.56041
     -3744.954       -2918.144
 08  5 10  1 40 30.0000000  0 13G 3G 6G 7G10G13G16G19G21G23G24G25G27
                                G29
  21638609.173    21638608.4754   21638611.4434  113711679.801 7  88606530.02445
      2784.814        2169.985
  20972862.112    20972861.6214   20972864.4044  110213171.144 8  85880412.46046
       631.278         491.903
  22519433.011    22519432.7874   22519434.5654  118340433.618 7  92213361.18044
      2719.680        2119.234
  23682031.545    23682030.2144   23682034.6834  124449925.291 6  96973985.65843
      -317.303        -247.251
  21974971.085    21974970.9314   21974971.9694  115479270.995 7  89983872.85745
     -1548.652       -1206.738
  20727472.514    20727471.9724   20727473.8344  108923644.809 8  84875591.98847
     -1518.164       -1182.984
  24292914.709    24292913.9164   24292915.6174  127660139.047 5  99475451.13642
      3748.028        2920.530
  22918136.538    22918135.8744   22918137.8564  120435636.420 7  93845970.84244
      1320.291        1028.802
  23353036.385    23353035.9594   23353036.4504  122721073.713 6  95626821.96643
     -3483.086       -2714.098
  23286214.131    23286213.2654   23286217.3334  122369884.136 6  95353187.23643
     -1538.675       -1198.969
  21685698.460    21685697.8814   21685700.3644  113959137.937 8  88799354.48346
      1253.633         976.859
  23445561.886    23445561.0674   23445564.5004  123207276.276 6  96005692.77443
      2681.494        2089.473
  25027517.083    25027516.6424   25027520.7974  131520506.150 5 102483539.48341
     -3749.378       -2921.616
 08  5 10  1 41  0.0000000  0 13G 3G 6G 7G10G13G16G19G21G23G24G25G27
                                G29
  21622752.236    21622751.6764   21622754.7734  113628352.136 7  88541599.42845
      2770.360        2158.721
  20969310.798    20969310.4804   20969313.2904  110194510.177 8  85865871.44846
       612.781         477.495
  22503942.770    22503942.3314   22503944.9474  118259034.470 6  92149933.29944
      2706.956        2109.318
  23683904.869    23683903.2204   23683908.2354  124459769.814 6  96981656.72943
      -338.895        -264.083
  21983871.790    21983871.6594   21983873.0914  115526045.422 7  90020320.48545
     -1569.654       -1223.113
  20736185.138    20736184.5324   20736186.3324  108969429.627 8  84911268.50547
     -1534.134       -1195.429
  24271529.587    24271528.9034   24271531.6894  127547763.323 5  99387885.59342
      3743.548        2917.051
  22910648.555    22910648.3284   22910650.0034  120396287.315 6  93815309.23144
      1302.997        1015.328
  23372949.655    23372949.1374   23372950.8964  122825723.892 6  95708367.47343
     -3493.495       -2722.191
  23295050.712    23295050.2834   23295054.4744  122416324.117 6  95389374.25443
     -1557.248       -1213.453
  21678588.816    21678588.4724   21678590.9864  113921778.560 7  88770243.28646
      1237.022         963.915
  23430279.174    23430278.6154   23430282.2334  123126965.962 6  95943113.33944
      2672.591        2082.530
  25048933.775    25048933.9264   25048936.3324  131633054.610 5 102571239.61842
     -3753.771       -2924.993
 08  5 10  1 41 30.0000000  0 13G 3G 6G 7G10G13G16G19G21G23G24G25G27
                                G29
  21606978.383    21606977.9634   21606980.8954  113545460.222 7  88477008.32945
      2755.704        2147.301
  20965865.798    20965865.3454   20965868.1194  110176405.415 8  85851763.83846
       594.147         462.972
  22488526.635    22488526.3344   22488528.2204  118178020.271 7  92086805.35044
      2693.972        2099.201
  23685900.526    23685899.9544   23685904.2754  124470259.965 6  96989830.87443
      -360.442        -280.854
  21992892.391    21992892.5924   21992894.2344  115573450.859 7  90057259.80945
     -1590.714       -1239.517
  20744988.770    20744988.3074   20744990.1064  109015694.030 8  84947318.72747
     -1550.140       -1207.906
  24250171.585    24250170.1194   24250173.7294  127435524.063 5  99300426.39742
      3738.927        2913.447
  22903260.188    22903259.4414   22903260.9824  120357458.829 7  93785053.30444
      1285.539        1001.714
  23392924.603    23392923.9574   23392924.6724  122930687.002 6  95790156.87943
     -3503.980       -2730.373
  23303993.969    23303993.6614   23303997.7194  122463321.910 6  95425995.96443
     -1575.939       -1227.999
  21671574.851    21671574.3934   21671576.9384  113884919.454 8  88741521.91246
      1220.245         950.836
  23415048.125    23415046.9494   23415050.4224  123046925.087 6  95880743.87243
      2663.506        2075.459
  25070376.331    25070375.8134   25070378.6794  131745735.138 5 102659042.58641
     -3758.294       -2928.532
 08  5 10  1 42  0.0000000  0 13G 3G 6G 7G10G13G16G19G21G23G24G25G27
                                G29
  21591287.959    21591287.3564   21591290.1624  113463005.211 7  88412757.65145
      2741.213        2136.010
  20962526.349    20962525.8624   20962528.5934  110158856.103 8  85838089.04546
       575.717         448.615
  22473183.219    22473183.3814   22473185.6414  118097391.944 6  92023978.09144
      2681.162        2089.222
  23688019.261    23688018.1784   23688023.1234  124481394.183 6  96998506.91142
      -381.816        -297.512
  22002032.897    22002032.8984   22002034.8904  115621483.960 7  90094688.21245
     -1611.517       -1255.729
  20753883.485    20753882.7844   20753884.6054  109062435.020 8  84983740.27647
     -1565.943       -1220.213
  24228839.620    24228838.6614   24228841.7964  127323422.327 5  99213074.48542
      3734.431        2909.938
  22895970.186    22895969.6644   22895970.9054  120319150.949 7  93755203.03544
      1268.257         988.261
  23412956.415    23412956.2784   23412956.8534  123035958.587 6  95872186.63543
     -3514.133       -2738.272
  23313042.949    23313042.2484   23313046.9484  122510874.658 6  95463050.08443
     -1594.409       -1242.384
  21664656.180    21664655.6474   21664658.2294  113848560.798 8  88713190.48946
      1203.622         937.890
  23399868.381    23399867.5174   23399870.5124  122967154.443 6  95818584.92044
      2654.536        2068.464
  25091844.235    25091844.1044   25091846.3284  131858544.819 4 102746946.12941
     -3762.448       -2931.779
 08  5 10  1 42 30.0000000  0 13G 3G 6G 7G10G13G16G19G21G23G24G25G27
                                G29
  21575679.839    21575679.6014   21575682.6704  113380986.612 7  88348847.05645
      2726.683        2124.684
  20959291.916    20959291.4554   20959294.3214  110141859.969 8  85824845.34146
       557.339         434.289
  22457913.386    22457913.4424   22457916.0384  118017149.215 6  91961451.33244
      2668.361        2079.240
  23690259.779    23690258.9224   23690264.3074  124493169.496 5  97007682.45442
      -403.157        -314.132
  22011292.661    22011292.3854   22011294.4914  115670140.664 7  90132602.53745
     -1632.178       -1271.826
  20762867.819    20762867.2634   20762869.1224  109109648.883 8  85020530.27147
     -1581.622       -1232.435
  24207534.163    24207532.2254   24207534.3594  127211456.756 5  99125828.42742
      3729.911        2906.435
  22888779.463    22888778.9074   22888780.4094  120281363.036 7  93725757.93544
      1250.967         974.775
  23433047.519    23433046.4564   23433046.4904  123141532.447 6  95954451.63343
     -3524.100       -2746.038
  23322197.034    23322196.2664   23322200.4724  122558978.057 6  95500533.27743
     -1612.550       -1256.534
  21657831.900    21657831.7154   21657834.0914  113812701.065 8  88685247.83246
      1187.032         924.960
  23384739.246    23384738.8754   23384742.0504  122887653.095 6  95756635.80844
      2645.585        2061.498
  25113334.299    25113334.3244   25113336.9924  131971478.537 5 102834946.44941
     -3766.437       -2934.901
 08  5 10  1 43  0.0000000  0 13G 3G 6G 7G10G13G16G19G21G23G24G25G27
                                G29
  21560156.656    21560156.1234   21560159.1004  113299410.605 7  88285281.34345
      2711.901        2113.176
  20956163.607    20956163.1774   20956165.9784  110125420.638 8  85812035.46546
       538.727         419.785
  22442718.504    22442718.3504   22442720.4624  117937297.995 7  91899229.61944
      2655.224        2069.009
  23692624.286    23692622.9644   23692627.4194  124505588.699 6  97017359.74742
      -424.649        -330.903
  22020670.768    22020670.3774   22020671.7644  115719422.824 7  90171004.22345
     -1653.102       -1288.130
  20771942.924    20771942.2234   20771944.1024  109157337.942 8  85057690.54547
     -1597.483       -1244.791
  24186254.848    24186253.8404   24186255.7714  127099634.197 5  99038693.79642
      3725.003        2902.604
  22881688.447    22881687.6024   22881689.5114  120244099.898 6  93696721.78044
      1233.395         961.076
  23453195.521    23453195.2024   23453195.4084  123247409.796 6  96036953.19443
     -3534.248       -2753.965
  23331455.796    23331455.5704   23331459.8494  122607633.845 5  95538446.87943
     -1630.989       -1270.896
  21651104.330    21651103.8184   21651106.3514  113777345.382 8  88657697.95846
      1170.151         911.801
  23369662.948    23369662.3694   23369666.0954  122808426.900 6  95694901.13444
      2636.312        2054.264
  25134849.489    25134847.7084   25134851.6204  132084537.871 5 102923044.61841
     -3770.629       -2938.165
 08  5 10  1 43 30.0000000  0 13G 3G 6G 7G10G13G16G19G21G23G24G25G27
                                G29
  21544717.378    21544716.9374   21544719.8704  113218276.429 7  88222059.81745
      2696.989        2101.555
  20953141.049    20953140.5504   20953143.2764  110109536.553 8  85799658.27546
       520.129         405.295
  22427597.540    22427597.4634   22427599.9934  117857838.496 7  91837313.15844
      2642.003        2058.700
  23695108.206    23695107.7274   23695112.6224  124518649.276 5  97027536.80342
      -446.175        -347.671
  22030166.879    22030166.4434   22030168.4484  115769326.472 7  90209890.16945
     -1673.881       -1304.323
  20781107.488    20781107.0524   20781108.9504  109205499.428 8  85095218.95747
     -1613.316       -1257.128
  24165002.488    24165001.3594   24165003.8564  126987953.788 5  98951669.88542
      3720.242        2898.892
  22874697.589    22874696.8684   22874698.4974  120207361.367 6  93668094.36244
      1215.748         947.336
  23473399.894    23473399.4674   23473398.9584  123353585.909 6  96119687.78143
     -3544.284       -2761.777
  23340818.691    23340818.6744   23340821.9244  122656838.342 6  95576788.05943
     -1649.392       -1285.239
  21644471.839    21644471.5184   21644473.9604  113742492.814 8  88630540.13446
      1153.243         898.628
  23354638.449    23354638.1444   23354641.6694  122729475.457 6  95633380.58244
      2627.005        2047.017
  25156386.584    25156385.8474   25156387.9124  132197718.192 4 103011236.98341
     -3774.911       -2941.497
